[[{"header":{"parameterUnit":"m.s-1","parameterCategory":1,"la1":30.6,"la2":29.2853,"lo1":-89.7004,"lo2":-87.6739,"dy":0.0162,"dx":0.0183,"nx":112,"ny":82,"refTime":"2023-10-08T06:00:00:Z","depth":0,"parameterNumber":2,"parameterNumberName":"U-component_of_WINDS"},"data":[0.0,0.0,0.0,0.0,0.0,0.0,0.0,0.0,0.0,0.0,0.0,0.0,0.0,0.0,0.0,0.0,0.0,0.0,0.0,0.0,0.0,0.0,0.0,0.0,0.0,0.0,0.0,0.0,0.0,0.0,0.0,0.0,0.0,0.0,0.0,0.0,0.0,0.0,0.0,0.0,0.0,0.0,0.0,0.0,0.0,0.0,0.0,0.0,0.0,0.0,0.0,0.0,0.0,0.0,0.0,0.0,0.0,0.0,0.0,0.0,0.0,0.0,0.0,0.0,0.0,0.0,0.0,0.0,0.0,0.0,0.0,0.0,0.0,0.0,0.0,0.0,0.0,0.0,0.0,0.0,0.0,0.0,0.0,0.0,0.0,0.0,0.0,0.0,0.0,0.0,0.536,0.6053,0.7078,0.841,1.0141,0.9406,0.9043,0.9471,0.0,0.0,0.0,0.0,0.0,0.0,0.0,0.0,0.0,0.0,0.0,0.0,0.0,0.0,0.0,0.0,0.0,0.0,0.0,0.0,0.0,0.0,0.0,0.0,0.0,0.0,0.0,0.0,0.0,0.0,0.0,0.0,0.0,0.0,0.0,0.0,0.0,0.0,0.0,0.0,0.0,0.0,0.0,0.0,0.0,0.0,0.0,0.0,0.0,0.0,0.0,0.0,0.0,0.0,0.0,0.0,0.0,0.0,0.0,0.0,0.0,0.0,0.0,0.0,0.0,0.0,0.0,0.0,0.0,0.0,0.0,0.0,0.0,0.0,0.0,0.0,0.0,0.0,0.0,0.0,0.0,0.0,0.0,0.0,0.0,0.0,0.0,0.0,0.0,0.0,0.0,0.0,0.0,0.0,0.0,0.0,0.0,0.0,0.0,0.0,0.0,0.0,0.0,0.0,0.5039,0.6149,0.663,0.7542,0.9166,0.8343,0.8234,0.9423,0.0,0.0,0.0,0.0,0.0,0.0,0.0,0.0,0.0,0.0,0.0,0.0,0.0,0.0,0.0,0.0,0.0,0.0,0.0,0.0,0.0,0.0,0.0,0.0,0.0,0.0,0.0,0.0,0.0,0.0,0.0,0.0,0.0,0.0,0.0,0.0,0.0,0.0,0.0,0.0,0.0,0.0,0.0,0.0,0.0,0.0,0.0,0.0,0.0,0.0,0.0,0.0,0.0,0.0,0.0,0.0,0.0,0.0,0.0,0.0,0.0,0.0,0.0,0.0,0.0,0.0,0.0,0.0,0.0,0.0,0.0,0.0,0.0,0.0,0.0,0.0,0.0,0.0,0.0,0.0,0.0,0.0,0.0,0.0,0.0,0.0,0.0,0.0,0.0,0.0,0.0,0.0,0.0,0.0,0.0,0.0,0.0,0.0,0.0,0.0,0.0,0.0,0.0,0.4287,0.5127,0.5945,0.6357,0.7293,0.9055,0.8234,0.8208,0.963,0.9176,0.0,0.0,0.0,0.0,0.0,0.0,0.0,0.0,0.0,0.0,0.0,0.0,0.0,0.0,0.0,0.0,0.0,0.0,0.0,0.0,0.0,0.0,0.0,0.0,0.0,0.0,0.0,0.0,0.0,0.0,0.0,0.0,0.0,0.0,0.0,0.0,0.0,0.0,0.0,0.0,0.0,0.0,0.0,0.0,0.0,0.0,0.0,0.0,0.0,0.0,0.0,0.0,0.0,0.0,0.0,0.0,0.0,0.0,0.0,0.0,0.0,0.0,0.0,0.0,0.0,0.0,0.0,0.0,0.0,0.0,0.0,0.0,0.0,0.0,0.0,0.0,0.0,0.0,0.0,0.0,0.0,0.0,0.0,0.0,0.0,0.0,0.0,0.0,0.0,0.0,0.0,0.0,0.0,0.0,0.0,0.0,0.0,0.0,0.0,0.0,0.0,0.0,0.4707,0.5267,0.5862,0.6276,0.7236,0.9052,0.8217,0.8169,0.953,0.8729,0.0,0.0,0.0,0.0,0.0,0.0,0.0,0.0,0.0,0.0,0.0,0.0,0.0,0.0,0.0,0.0,0.0,0.0,0.0,0.0,0.0,0.0,0.0,0.0,0.0,0.0,0.0,0.0,0.0,0.0,0.0,0.0,0.0,0.0,0.0,0.0,0.0,0.0,0.0,0.0,0.0,0.0,0.0,0.0,0.0,0.0,0.0,0.0,0.0,0.0,0.0,0.0,0.0,0.0,0.0,0.0,0.0,0.0,0.0,0.0,0.0,0.0,0.0,0.0,0.0,0.0,0.0,0.0,0.0,0.0,0.0,0.0,0.0,0.0,0.0,0.0,0.0,0.0,0.0,0.0,0.0,0.0,0.0,0.0,0.0,0.0,0.0,0.0,0.0,0.0,0.0,0.0,0.0,0.0,0.0,0.0,0.0,0.0,0.0,0.0,0.0,0.0,0.4622,0.5261,0.616,0.6403,0.717,0.8798,0.7943,0.7743,0.8717,0.8253,0.0,0.0,0.0,0.0,0.0,0.0,0.0,0.0,0.0,0.0,0.0,0.0,0.0,0.0,0.0,0.0,0.0,0.0,0.0,0.0,0.0,0.0,0.0,0.0,0.0,0.0,0.0,0.0,0.0,0.0,0.0,0.0,0.0,0.0,0.0,0.0,0.0,0.0,0.0,0.0,0.0,0.0,0.0,0.0,0.0,0.0,0.0,0.0,0.0,0.0,0.0,0.0,0.0,0.0,0.0,0.0,0.0,0.0,0.0,0.0,0.0,0.0,0.0,0.0,0.0,0.0,0.0,0.0,0.0,0.0,0.0,0.0,0.0,0.0,0.0,0.0,0.0,0.0,0.0,0.0,0.0,0.0,0.0,0.0,0.0,0.0,0.0,0.0,0.0,0.0,0.0,0.0,0.0,0.0,0.0,0.0,0.0,0.0,0.0,0.0,0.0,0.0,0.4348,0.5192,0.562,0.5914,0.6704,0.8273,0.7573,0.7445,0.839,0.0,0.0,0.0,0.0,0.0,0.0,0.0,0.0,0.0,0.0,0.0,0.0,0.0,0.0,0.0,0.0,0.0,0.0,0.0,0.0,0.0,0.0,0.0,0.0,0.0,0.0,0.0,0.0,0.0,0.0,0.0,0.0,0.0,0.0,0.0,0.0,0.0,0.0,0.0,0.0,0.0,0.0,0.0,0.0,0.0,0.0,0.0,0.0,0.0,0.0,0.0,0.0,0.0,0.0,0.0,0.0,0.0,0.0,0.0,0.0,0.0,0.0,0.0,0.0,0.0,0.0,0.0,0.0,0.0,0.0,0.0,0.0,0.0,0.0,0.0,0.0,0.0,0.0,0.0,0.0,0.0,0.0,0.0,0.0,0.0,0.0,0.0,0.0,0.0,0.0,0.0,0.0,0.0,0.0,0.0,0.0,0.0,0.0,0.0,0.0,0.0,0.0,0.2925,0.4175,0.5128,0.5379,0.5641,0.6337,0.7628,0.7224,0.7119,0.7664,0.0,0.0,0.0,0.0,0.0,0.0,0.0,0.0,0.0,0.0,0.0,0.0,0.0,0.0,0.0,0.0,0.0,0.0,0.0,0.0,0.0,0.0,0.0,0.0,0.0,0.0,0.0,0.0,0.0,0.0,0.0,0.0,0.0,0.0,0.0,0.0,0.0,0.0,0.0,0.0,0.0,0.0,0.0,0.0,0.0,0.0,0.0,0.0,0.0,0.0,0.0,0.0,0.0,0.0,0.0,0.0,0.0,0.0,0.0,0.0,0.0,0.0,0.0,0.0,0.0,0.0,0.0,0.0,0.0,0.0,0.0,0.0,0.0,0.0,0.0,0.0,0.0,0.0,0.0,0.0,0.0,0.0,0.0,0.0,0.0,0.0,0.0,0.0,0.0,0.0,0.0,0.0,0.0,0.0,0.0,0.0,0.0,0.0,0.0,0.0,0.0,0.0,0.302,0.4148,0.5084,0.5552,0.5711,0.6115,0.6928,0.6935,0.676,0.0,0.0,0.0,0.0,0.0,0.0,0.0,0.0,0.0,0.0,0.0,0.0,0.0,0.0,0.0,0.0,0.0,0.0,0.0,0.0,0.0,0.0,0.0,0.0,0.0,0.0,0.0,0.0,0.0,0.0,0.0,0.0,0.0,0.0,0.0,0.0,0.0,0.0,0.0,0.0,0.0,0.0,0.0,0.0,0.0,0.0,0.0,0.0,0.0,0.0,0.0,0.0,0.0,0.0,0.0,0.0,0.0,0.0,0.0,0.0,0.0,0.0,0.0,0.0,0.0,0.0,0.0,0.0,0.0,0.0,0.0,0.0,0.0,0.0,0.0,0.0,0.0,0.0,0.0,0.0,0.0,0.0,0.0,0.0,0.0,0.0,0.0,0.0,0.0,0.0,0.0,0.0,0.0,0.0,0.0,0.0,0.0,0.0,0.0,0.0,0.0,0.0,0.0,0.3044,0.4116,0.4996,0.541,0.5501,0.581,0.652,0.6687,0.6616,0.6273,0.0,0.0,0.0,0.0,0.0,0.0,0.0,0.0,0.0,0.0,0.0,0.0,0.0,0.0,0.0,0.0,0.0,0.0,0.0,0.0,0.0,0.0,0.0,0.0,0.0,0.0,0.0,0.0,0.0,0.0,0.0,0.0,0.0,0.0,0.0,0.0,0.0,0.0,0.0,0.0,0.0,0.0,0.0,0.0,0.0,0.0,0.0,0.0,0.0,0.0,0.0,0.0,0.0,0.0,0.0,0.0,0.0,0.0,0.0,0.0,0.0,0.0,0.0,0.0,0.0,0.0,0.0,0.0,0.0,0.0,0.0,0.0,0.0,0.0,0.0,0.0,0.0,0.0,0.0,0.0,0.0,0.0,0.0,0.0,0.0,0.0,0.0,0.0,0.0,0.0,0.0,0.0,0.0,0.0,0.0,0.0,0.0,0.0,0.0,0.0,0.0,0.0,0.297,0.4062,0.4927,0.5243,0.5396,0.5632,0.6045,0.6342,0.6438,0.6285,0.0,0.0,0.0,0.0,0.0,0.0,0.0,0.0,0.0,0.0,0.0,0.0,0.0,0.0,0.0,0.0,0.0,0.0,0.0,0.0,0.0,0.0,0.0,0.0,0.0,0.0,0.0,0.0,0.0,0.0,0.0,0.0,0.0,0.0,0.0,0.0,0.0,0.0,0.0,0.0,0.0,0.0,0.0,0.0,0.0,0.0,0.0,0.0,0.0,0.0,0.0,0.0,0.0,0.0,0.0,0.0,0.0,0.0,0.0,0.0,0.0,0.0,0.0,0.0,0.0,0.0,0.0,0.0,0.0,0.0,0.0,0.0,0.0,0.0,0.0,0.0,0.0,0.0,0.0,0.0,0.0,0.0,0.0,0.0,0.0,0.0,0.0,0.0,0.0,0.0,0.0,0.0,0.0,0.0,0.0,0.0,0.0,0.0,0.0,0.0,0.0,0.0,0.2855,0.4006,0.4877,0.507,0.5392,0.5607,0.5607,0.5976,0.6251,0.6325,0.0,0.0,0.0,0.0,0.0,0.0,0.0,0.0,0.0,0.0,0.0,0.0,0.0,0.0,0.0,0.0,0.0,0.0,0.0,0.0,0.0,0.0,0.0,0.0,0.0,0.0,0.0,0.0,0.0,0.0,0.0,0.0,0.0,0.0,0.0,0.0,0.0,0.0,0.0,0.0,0.0,0.0,0.0,0.0,0.0,0.0,0.0,0.0,0.0,0.0,0.0,0.0,0.0,0.0,0.0,0.0,0.0,0.0,0.0,0.0,0.4989,0.4381,0.0,0.0,0.0,0.0,0.0,0.0,0.0,0.0,0.0,0.0,0.0,0.0,0.0,0.0,0.0,0.0,0.0,0.0,0.0,0.0,0.0,0.0,0.0,0.0,0.0,0.0,0.0,0.0,0.0,0.0,0.0,0.0,0.0,0.0,0.0,0.0,0.0,0.0,0.0,0.0,0.2863,0.4006,0.4877,0.507,0.5392,0.5607,0.5607,0.6114,0.6245,0.5792,0.6414,0.0,0.0,0.0,0.0,0.0,0.0,0.0,0.0,0.0,0.0,0.0,0.0,0.0,0.0,0.0,0.0,0.0,0.0,0.0,0.0,0.0,0.0,0.0,0.0,0.0,0.0,0.0,0.0,0.0,0.0,0.0,0.0,0.0,0.0,0.0,0.0,0.0,0.0,0.0,0.0,0.0,0.0,0.0,0.0,0.0,0.0,0.0,0.0,0.0,0.0,0.0,0.0,0.0,0.0,0.0,0.0,0.0,0.0,0.0,0.6305,0.5558,0.0,0.0,0.0,0.0,0.0,0.0,0.0,0.0,0.0,0.0,0.0,0.0,0.0,0.0,0.0,0.0,0.0,0.0,0.0,0.0,0.0,0.0,0.0,0.0,0.0,0.0,0.0,0.0,0.0,0.0,0.0,0.0,0.0,0.0,0.0,0.0,0.0,0.0,0.0,0.0,0.2723,0.3917,0.4813,0.4976,0.5305,0.5494,0.5494,0.5793,0.5955,0.5937,0.6224,0.0,0.0,0.0,0.0,0.0,0.0,0.0,0.0,0.0,0.0,0.0,0.0,0.0,0.0,0.0,0.0,0.0,0.0,0.0,0.0,0.0,0.0,0.0,0.0,0.0,0.0,0.0,0.0,0.0,0.0,0.0,0.0,0.0,0.0,0.0,0.0,0.0,0.0,0.0,0.0,0.0,0.0,0.0,0.0,0.0,0.0,0.0,0.0,0.0,0.0,0.0,0.0,0.0,0.5728,0.6685,0.7797,0.8436,0.8967,0.931,0.773,0.7052,0.6967,0.605,0.0,0.0,0.0,0.0,0.0,0.0,0.0,0.0,0.0,0.0,0.0,0.0,0.0,0.0,0.0,0.0,0.0,0.0,0.0,0.0,0.0,0.0,0.5732,0.579,0.5802,0.5638,0.5057,0.0,0.0,0.0,0.0,0.0,0.0,0.0,0.0,0.0,0.0,0.0,0.2764,0.3932,0.4774,0.4883,0.5205,0.5395,0.5395,0.5419,0.5631,0.6118,0.5876,0.5855,0.0,0.0,0.0,0.0,0.0,0.0,0.0,0.0,0.0,0.0,0.0,0.0,0.0,0.0,0.0,0.0,0.0,0.0,0.0,0.0,0.0,0.0,0.0,0.0,0.0,0.0,0.0,0.0,0.0,0.0,0.0,0.0,0.3402,0.2702,0.0,0.0,0.0,0.0,0.0,0.0,0.0,0.0,0.0,0.0,0.0,0.0,0.0,0.3244,0.4206,0.522,0.6258,0.7353,0.832,0.9098,0.9646,0.9918,1.0091,1.0145,1.0081,0.0,0.7998,0.7664,0.0,0.0,0.0,0.0,0.0,0.0,0.0,0.0,0.0,0.0,0.0,0.0,0.0,0.0,0.0,0.0,0.0,0.0,0.0,0.0,0.0,0.0,0.7263,0.6754,0.6211,0.5802,0.5821,0.4617,0.3289,0.2432,0.2256,0.1986,0.0,0.0,0.0,0.0,0.0,0.0,0.3439,0.4336,0.4871,0.4888,0.5205,0.5395,0.5395,0.5504,0.5549,0.5526,0.5942,0.5906,0.5209,0.5931,0.0,0.0,0.0,0.0,0.0,0.0,0.0,0.0,0.0,0.0,0.0,0.0,0.0,0.0,0.0,0.0,0.0,0.0,0.0,0.0,0.0,0.0,0.0,0.0,0.0,0.0,0.0,0.0,0.0,0.4469,0.4697,0.354,0.3871,0.3894,0.0,0.0,0.0,0.0,0.0,0.0,0.0,0.0,0.0,0.3882,0.3972,0.4647,0.6008,0.6597,0.771,0.9371,0.9332,0.9805,1.0703,1.023,1.0069,1.0117,1.0143,0.9559,0.8596,0.8615,0.7983,0.6909,0.0,0.0,0.0,0.0,0.6136,0.6382,0.7242,0.7476,0.7414,0.7453,0.0,0.0,0.0,0.0,0.0,0.0,0.0,0.6103,0.6496,0.6545,0.6509,0.6741,0.6381,0.5935,0.5855,0.5214,0.4368,0.3335,0.2703,0.21,0.1346,0.1511,0.0,0.0,0.0,0.3125,0.3676,0.4389,0.4877,0.4943,0.5094,0.5166,0.5166,0.5237,0.5214,0.5064,0.5593,0.5694,0.5198,0.5572,0.5668,0.0,0.0,0.0,0.0,0.0,0.0,0.0,0.0,0.0,0.0,0.0,0.0,0.0,0.0,0.0,0.0,0.0,0.0,0.0,0.0,0.0,0.0,0.0,0.0,0.0,0.0,0.0,0.0,0.5707,0.5978,0.4404,0.5227,0.5491,0.0,0.0,0.0,0.0,0.0,0.0,0.5241,0.4697,0.4882,0.5951,0.5821,0.6323,0.7603,0.7717,0.8556,1.012,0.9726,1.0178,1.1343,1.0344,1.0079,1.039,1.0288,0.9961,0.9491,0.917,0.8721,0.8135,0.752,0.7008,0.6687,0.7127,0.718,0.7202,0.8459,0.859,0.8242,0.845,0.8098,0.7442,0.65,0.0,0.0,0.0,0.0,0.6067,0.6708,0.635,0.5985,0.6529,0.6391,0.6045,0.5876,0.5525,0.5034,0.4307,0.3489,0.2721,0.2062,0.2234,0.0,0.1957,0.2807,0.3637,0.4003,0.452,0.4895,0.4988,0.4998,0.4998,0.4998,0.4998,0.496,0.4849,0.5201,0.5335,0.5174,0.5258,0.5426,0.569,0.0,0.0,0.0,0.0,0.0,0.0,0.0,0.0,0.0,0.0,0.0,0.0,0.0,0.0,0.0,0.0,0.0,0.0,0.0,0.0,0.0,0.0,0.0,0.0,0.0,0.0,0.0,0.0,0.0,0.554,0.7331,0.0,0.0,0.0,0.0,0.726,0.7182,0.7582,0.8606,0.7957,0.8141,0.9419,0.8659,0.8391,0.8713,0.8714,0.8797,0.8903,0.9745,1.0651,1.1553,1.0624,1.0682,1.1524,1.1507,1.139,1.104,0.9338,0.8458,0.8185,0.7871,0.7447,0.7053,0.7563,0.7354,0.7005,0.8411,0.8257,0.7665,0.8932,0.8208,0.6788,0.641,0.5804,0.0,0.0,0.614,0.6306,0.6483,0.6636,0.6673,0.6384,0.6213,0.614,0.6243,0.5357,0.4664,0.5052,0.4883,0.4466,0.3782,0.0,0.3515,0.3483,0.3649,0.4012,0.4664,0.4898,0.4993,0.4998,0.4998,0.4998,0.4998,0.4998,0.4993,0.4988,0.4898,0.4828,0.4835,0.5128,0.5075,0.4579,0.4916,0.0,0.0,0.0,0.0,0.0,0.0,0.0,0.0,0.0,0.0,0.0,0.0,0.0,0.0,0.0,0.0,0.0,0.0,0.0,0.0,0.0,0.0,0.0,0.0,0.0,0.0,0.0,0.0,0.793,0.9034,0.0,0.8042,0.8712,0.9207,0.908,0.9362,0.9472,0.9291,0.8737,0.8484,0.8541,0.8224,0.8384,0.9044,0.9619,1.0186,1.0743,1.1041,1.1397,1.1758,1.0773,1.0237,1.0039,0.9961,0.9803,0.9574,0.8941,0.8997,0.9454,0.9228,0.8878,0.8528,0.8981,0.9013,0.8899,0.9665,0.924,0.8377,0.8518,0.795,0.7175,0.7137,0.6871,0.6623,0.6935,0.6834,0.6653,0.678,0.6649,0.6463,0.6388,0.632,0.6301,0.6298,0.5973,0.566,0.5659,0.4872,0.4172,0.4014,0.4208,0.4231,0.3859,0.4171,0.4558,0.4884,0.4971,0.4998,0.4998,0.4998,0.4998,0.4998,0.4998,0.4998,0.4998,0.4955,0.4863,0.4743,0.4847,0.4897,0.4878,0.5029,0.4979,0.0,0.0,0.0,0.0,0.0,0.0,0.0,0.0,0.0,0.0,0.0,0.0,0.0,0.0,0.0,0.0,0.0,0.0,0.0,0.0,0.0,0.0,0.0,0.0,0.0,0.8794,0.9878,0.9504,1.0613,1.1019,1.0066,1.0785,1.1286,1.1171,1.1594,1.167,1.115,1.0751,1.0406,1.0074,0.9665,0.973,1.0318,1.0493,1.0889,1.1462,1.143,1.1606,1.198,1.0973,1.0428,1.0204,1.0126,0.9932,0.971,1.0051,1.0304,1.0448,1.0022,0.9709,0.9475,0.9435,0.9443,0.9414,0.9347,0.9036,0.8582,0.7898,0.7459,0.7195,0.7197,0.7093,0.7021,0.7125,0.6905,0.6655,0.6762,0.6579,0.6344,0.6396,0.6412,0.639,0.6339,0.632,0.6243,0.6056,0.5208,0.4518,0.4568,0.4803,0.4746,0.4017,0.453,0.4908,0.4664,0.4882,0.5072,0.5072,0.502,0.4998,0.4998,0.4759,0.472,0.4979,0.474,0.4591,0.4593,0.468,0.4691,0.4596,0.4573,0.4555,0.4555,0.0,0.0,0.0,0.0,0.0,0.0,0.0,0.0,0.0,0.0,0.0,0.0,0.0,0.0,0.0,0.0,0.0,0.0,0.0,0.0,0.0,0.0,0.0,0.8131,0.9775,1.0828,1.0217,1.2094,1.2952,1.1714,1.2892,1.3636,1.3438,1.3807,1.4097,1.4254,1.4085,1.4066,1.4223,1.3088,1.246,1.2451,1.1393,1.0853,1.0853,1.0883,1.136,1.2204,1.1299,1.136,1.2204,1.2204,1.1972,1.1684,1.2669,1.229,1.1025,1.0159,0.9829,0.9684,0.8844,0.8512,0.8355,0.7357,0.7555,0.8091,0.7137,0.6806,0.6763,0.6478,0.6403,0.6401,0.6342,0.6309,0.6336,0.6396,0.6423,0.6398,0.6392,0.6392,0.6392,0.6362,0.63,0.6274,0.6244,0.5939,0.5642,0.554,0.5464,0.509,0.4093,0.4787,0.0,0.4068,0.4685,0.5192,0.5172,0.5035,0.4965,0.4945,0.4229,0.4112,0.492,0.4224,0.3967,0.436,0.4627,0.4401,0.3607,0.3532,0.3494,0.3498,0.0,0.0,0.0,0.0,0.0,0.0,0.0,0.0,0.0,0.0,0.0,0.0,0.0,0.0,0.0,0.0,0.0,0.0,0.0,0.0,0.0,1.036,1.1258,1.0407,1.172,1.2839,1.3095,1.38,1.4129,1.3766,1.4117,1.4323,1.4267,1.4502,1.4341,1.3611,1.3535,1.3112,1.2291,1.1955,1.1679,1.1485,1.1789,1.1955,1.1977,1.2604,1.3054,1.3294,1.3024,1.2664,1.2204,1.2204,1.2039,1.1841,1.2112,1.186,1.1284,1.0902,1.0351,0.9774,0.9526,0.903,0.8367,0.7448,0.7298,0.7441,0.7078,0.6937,0.6904,0.6752,0.6677,0.6698,0.6665,0.6654,0.6665,0.6692,0.6703,0.6578,0.6077,0.6261,0.6317,0.5425,0.5538,0.5669,0.5225,0.5369,0.5604,0.5776,0.5779,0.5609,0.5137,0.5283,0.5363,0.5022,0.5194,0.5069,0.4341,0.4216,0.405,0.3662,0.3414,0.3528,0.4101,0.3917,0.3809,0.3819,0.3883,0.3795,0.3532,0.3513,0.3526,0.0,0.0,0.0,0.0,0.0,0.0,0.0,0.0,0.0,0.0,0.0,0.0,0.0,0.0,0.0,0.0,0.0,0.0,0.0,0.0,0.0,0.0,1.1914,1.2898,1.2765,1.3481,1.4232,1.477,1.5016,1.5186,1.5271,1.5281,1.5281,1.5281,1.5309,1.505,1.4403,1.429,1.3857,1.2938,1.293,1.2732,1.233,1.2819,1.304,1.2952,1.3479,1.3693,1.3693,1.3693,1.3384,1.2844,1.2844,1.2699,1.2522,1.2522,1.2321,1.1929,0.0,0.0,0.0,0.0,0.8699,0.7875,0.7376,0.721,0.7199,0.7106,0.7084,0.7007,0.662,0.6503,0.644,0.6129,0.6035,0.6035,0.6035,0.6035,0.5941,0.5561,0.5704,0.5742,0.5038,0.5095,0.5204,0.4847,0.5009,0.0,0.5374,0.5546,0.5386,0.4567,0.479,0.4863,0.4411,0.464,0.4634,0.4041,0.3945,0.3777,0.3463,0.3102,0.0,0.0,0.0,0.3387,0.3668,0.3339,0.0,0.0,0.0,0.3139,0.3183,0.3214,0.0,0.0,0.3071,0.2924,0.0,0.0,0.0,0.0,0.0,0.0,0.0,0.0,0.0,0.0,0.0,0.0,0.0,0.0,0.0,0.0,1.3383,1.4137,1.4889,1.5049,1.5243,1.5627,1.5845,1.6043,1.6233,1.6216,1.6207,1.6188,1.6034,1.592,1.5901,1.5721,0.0,0.0,0.0,1.4634,1.4052,1.4012,1.392,1.3693,1.3693,1.3693,1.3693,1.3693,1.3693,1.3693,1.3693,1.3589,1.3429,1.3429,1.3173,1.2683,1.1752,1.0735,0.9684,0.8816,0.7903,0.7099,0.7099,0.0,0.0,0.6988,0.6988,0.6883,0.6215,0.6023,0.5895,0.5241,0.5057,0.5057,0.5057,0.5057,0.5026,0.4938,0.4987,0.4987,0.4843,0.4807,0.48,0.4741,0.4726,0.4672,0.4556,0.4916,0.4778,0.3373,0.3892,0.4097,0.3178,0.3681,0.409,0.3982,0.3852,0.0,0.3693,0.2982,0.2881,0.3697,0.2962,0.2842,0.3624,0.2901,0.2672,0.3035,0.2756,0.2605,0.261,0.2644,0.2671,0.2668,0.2865,0.2808,0.0,0.0,0.0,0.0,0.0,0.0,0.0,0.0,0.0,0.0,0.0,0.0,0.0,0.0,0.0,1.4876,1.4986,1.5111,1.5646,1.6006,1.615,1.6075,1.628,1.6413,1.646,1.6424,1.6358,1.6197,1.6141,1.6081,1.5901,1.5854,1.5646,1.5153,1.5144,1.4842,1.426,1.4251,1.4062,1.3693,1.3693,0.0,1.3693,1.3693,1.3693,1.3693,1.3693,1.3665,1.3627,1.3627,1.3235,1.2549,1.1545,1.0602,0.9684,0.8816,0.7654,0.6487,0.6487,0.6154,0.5759,0.5759,0.5759,0.5731,0.5575,0.5539,0.0,0.5352,0.532,0.532,0.532,0.532,0.519,0.4657,0.4835,0.4901,0.3929,0.4037,0.4195,0.3693,0.3956,0.4073,0.3572,0.4275,0.4728,0.4284,0.4403,0.4442,0.4143,0.4193,0.3961,0.3206,0.3105,0.2925,0.2485,0.2301,0.2387,0.2831,0.2624,0.2568,0.2744,0.2588,0.2554,0.2704,0.2635,0.2627,0.2676,0.254,0.2461,0.2459,0.2668,0.2719,0.0,0.0,0.0,0.0,0.0,0.0,0.0,0.0,0.0,0.0,0.0,1.509,1.557,0.0,1.6623,1.7557,1.7216,1.6904,1.7238,1.6936,1.6566,1.6358,1.646,1.6517,1.6517,1.6432,1.628,1.6072,1.6053,1.5968,1.575,1.574,1.5517,1.5059,1.4987,1.4646,1.4066,1.3869,1.3706,1.3505,1.3305,1.3259,1.3359,1.325,1.3204,1.3204,1.3204,1.3204,1.3195,1.3104,1.2822,1.2432,1.1722,1.0512,0.8968,0.7482,0.6482,0.5843,0.5843,0.5648,0.5397,0.5397,0.5397,0.5346,0.5039,0.4955,0.4899,0.4592,0.4508,0.4508,0.4508,0.4508,0.4414,0.4073,0.4205,0.4223,0.3644,0.3691,0.3767,0.3468,0.3595,0.3645,0.3353,0.3705,0.3987,0.3815,0.3819,0.3803,0.3711,0.3663,0.3468,0.2964,0.2892,0.2791,0.2519,0.2471,0.2508,0.2651,0.2619,0.2602,0.2602,0.2572,0.257,0.26,0.2469,0.2409,0.2458,0.2257,0.193,0.1502,0.1604,0.1899,0.0,0.0,0.0,0.0,0.0,0.0,0.0,1.4767,1.5066,1.5995,1.6674,1.7251,1.7731,1.8239,1.8778,1.9331,1.8684,1.8155,1.8298,1.7444,1.6736,1.6566,1.6547,1.6545,1.647,1.6309,1.611,1.5854,1.5835,1.5769,1.5598,1.5598,1.5437,1.5063,1.4924,1.4598,1.402,1.3757,1.3564,1.3483,1.3066,1.2956,1.3075,1.2812,1.2694,1.2694,1.2694,1.2694,1.2676,1.2527,1.2389,1.2261,1.1719,1.0186,0.8088,0.6571,0.5676,0.523,0.523,0.515,0.5039,0.5039,0.5039,0.4955,0.448,0.4313,0.4229,0.3726,0.3589,0.3589,0.3589,0.3589,0.3589,0.3589,0.3589,0.3589,0.3589,0.3548,0.351,0.3499,0.3461,0.3425,0.3414,0.3336,0.3263,0.3166,0.3106,0.3079,0.3029,0.303,0.3,0.2919,0.2914,0.2908,0.2897,0.2839,0.2785,0.2714,0.2698,0.2692,0.2692,0.2646,0.2593,0.2541,0.2334,0.2186,0.2138,0.1767,0.1236,0.0529,0.0333,0.0693,1.4209,1.4213,1.4682,1.5452,1.5871,1.6758,0.0,1.9657,1.9634,2.0354,2.1032,2.1096,1.9824,1.9473,1.9164,1.8462,1.7571,1.6992,1.7021,1.6903,1.6793,1.6774,1.6764,1.6623,1.6254,1.6197,1.6053,1.5655,1.5627,1.5617,1.5598,1.5598,1.557,1.5523,1.5517,1.5276,1.4767,1.4735,1.4547,1.4182,1.3649,1.3435,1.3413,1.2933,1.2694,1.2694,1.2694,1.2694,1.2685,1.2667,1.2413,1.1934,1.0818,0.9209,0.7573,0.7989,0.6644,0.4592,0.4592,0.4257,0.381,0.381,0.381,0.3782,0.3726,0.3698,0.3698,0.3617,0.3589,0.3589,0.3589,0.3589,0.3589,0.3589,0.3589,0.3589,0.3589,0.358,0.3561,0.3507,0.3491,0.3471,0.342,0.3336,0.329,0.3277,0.3185,0.3085,0.3096,0.3095,0.3063,0.3003,0.2994,0.2975,0.29,0.2839,0.2801,0.2796,0.2743,0.2692,0.2692,0.2687,0.2574,0.2338,0.2311,0.2164,0.1926,0.096,0.0431,0.0313,-0.0646,-0.0804,1.6096,1.6023,1.6272,1.6849,1.7823,1.9038,2.0647,2.1189,2.1657,2.2681,2.343,2.3443,2.203,2.1849,2.1381,1.9871,1.8538,1.7653,1.7397,1.657,1.5867,1.5557,1.5576,1.5773,1.6153,1.5996,1.5731,1.5394,1.5173,1.5026,1.4896,1.4721,1.4621,1.4621,1.443,1.4225,1.4024,1.3704,1.3529,1.3412,1.2872,1.2673,1.2776,1.2356,1.2191,1.2191,1.2191,1.2191,1.2191,1.2191,1.1591,1.0718,1.0758,0.8997,0.6431,0.6719,0.5607,0.3977,0.3977,0.381,0.3589,0.3589,0.3589,0.3589,0.3589,0.3589,0.3589,0.3589,0.3589,0.3589,0.3589,0.3589,0.3589,0.3589,0.3589,0.3589,0.3589,0.3589,0.358,0.3553,0.355,0.3542,0.3518,0.3463,0.3412,0.3352,0.3244,0.3155,0.3095,0.3093,0.3079,0.3063,0.3058,0.305,0.3025,0.3,0.2892,0.2708,0.2658,0.2583,0.2405,0.237,0.2304,0.2178,0.146,0.1031,0.0899,-0.0204,-0.1,-0.1508,-0.1956,-0.2325,1.7135,1.7399,1.7828,1.8325,1.9669,2.1058,2.1832,2.2506,2.3313,2.4393,2.4954,2.4798,2.3407,2.2906,2.2078,2.0207,1.8648,1.7514,1.7199,1.6019,1.5026,1.4574,1.4425,1.462,1.5375,1.5307,1.5115,1.4869,1.4627,1.4431,1.4277,1.4039,1.3908,1.3908,1.3654,1.3531,1.3531,1.3158,1.2995,1.3087,1.2544,1.2348,1.2414,1.1624,1.1254,1.1224,1.0883,1.0732,1.0732,1.071,1.0137,0.9351,0.9994,0.8394,0.5718,0.5656,0.4758,0.3589,0.3589,0.3589,0.3589,0.3589,0.3589,0.3589,0.3589,0.3589,0.3589,0.3589,0.3589,0.3589,0.3589,0.3589,0.3589,0.3589,0.3589,0.3589,0.3589,0.3589,0.3589,0.3589,0.3589,0.3589,0.3589,0.3537,0.3482,0.3441,0.332,0.3228,0.315,0.3101,0.3098,0.3103,0.3108,0.3073,0.2978,0.2954,0.2835,0.2502,0.2494,0.2399,0.2199,0.1876,0.1791,0.1977,0.0537,-0.0106,0.0105,-0.1218,-0.2184,-0.2812,-0.3022,-0.3444,1.6426,1.7569,1.8979,1.9903,2.1335,2.2798,2.3779,2.4529,2.5188,2.5813,2.569,2.5023,2.3573,2.1742,1.9978,1.8414,1.6824,1.5691,1.5514,1.4991,1.4547,1.4318,1.3628,1.3248,1.3465,1.3923,1.417,1.3934,1.3916,1.3916,1.3908,1.3908,1.3908,1.3908,1.3875,1.3875,1.3875,1.3875,1.3866,1.3875,1.3317,1.2969,1.2721,1.0743,0.9862,0.9802,0.8556,0.8008,0.8003,0.7941,0.7933,0.7967,0.7929,0.7045,0.5783,0.5722,0.4804,0.3589,0.3589,0.3589,0.3589,0.3589,0.3589,0.3589,0.3589,0.3589,0.3589,0.3589,0.3589,0.3589,0.3589,0.3589,0.3589,0.3589,0.3589,0.3589,0.3589,0.3589,0.3589,0.3589,0.3589,0.3589,0.3589,0.3537,0.3496,0.3493,0.3444,0.3336,0.3217,0.3152,0.309,0.3087,0.3109,0.2978,0.2642,0.2619,0.2502,0.2218,0.2216,0.2196,0.2201,0.1199,0.0993,0.1696,-0.0243,-0.0875,-0.0105,-0.1888,-0.2771,-0.2812,-0.3591,-0.3971,1.792,1.9169,2.0371,2.1759,2.3032,2.4232,2.5418,2.5696,2.5754,2.5974,2.4579,2.2773,2.0993,1.9097,1.7299,1.5628,1.5017,1.4634,1.4416,1.4047,1.3562,1.285,1.2666,1.2473,1.2164,1.3072,1.3684,1.369,1.3617,1.3564,1.3564,1.3325,1.3161,1.3161,1.3161,1.3161,1.3161,1.3161,1.3161,1.3161,1.2757,1.194,1.0781,1.0123,0.9347,0.8526,0.8099,0.7886,0.7886,0.7873,0.7367,0.666,0.739,0.6353,0.4555,0.5296,0.4768,0.3672,0.3602,0.3589,0.3589,0.3589,0.3589,0.3594,0.3663,0.3677,0.3677,0.3677,0.3705,0.3726,0.3685,0.3707,0.3726,0.3685,0.3677,0.3663,0.3625,0.3589,0.3589,0.3589,0.3589,0.3589,0.3589,0.357,0.3487,0.3261,0.3281,0.3312,0.3271,0.3094,0.2939,0.2902,0.2789,0.2634,0.2477,0.2474,0.2353,0.2082,0.2057,0.1989,0.1807,0.1411,0.1322,0.1573,0.0253,-0.0295,-0.0045,-0.128,-0.1861,-0.1883,-0.2828,-0.3269,1.9649,2.0925,2.2081,2.3603,2.4627,2.5447,2.6164,2.6058,2.5606,2.4819,2.3045,2.1083,1.9118,1.7104,1.5394,1.4432,1.3758,1.3377,1.3419,1.3068,1.2637,1.2151,1.206,1.1931,1.1711,1.2493,1.3075,1.3232,1.3192,1.3202,1.3202,1.2939,1.2807,1.2807,1.2807,1.2807,1.2807,1.2807,1.2807,1.2799,1.1986,1.1009,0.9927,0.8873,0.7947,0.7159,0.667,0.6486,0.6482,0.6481,0.5967,0.5257,0.5987,0.5279,0.3915,0.4643,0.4441,0.3759,0.3677,0.3647,0.3647,0.3647,0.3647,0.3655,0.3696,0.3724,0.374,0.374,0.3768,0.379,0.3751,0.3768,0.379,0.3748,0.374,0.3724,0.3661,0.3647,0.3641,0.3591,0.3589,0.3558,0.3446,0.3337,0.3212,0.2987,0.3019,0.3034,0.3014,0.2855,0.273,0.2706,0.2575,0.2446,0.2275,0.2246,0.2145,0.1869,0.1849,0.178,0.1596,0.1196,0.1136,0.1503,0.0166,-0.0353,0.0023,-0.0937,-0.1403,-0.1425,-0.2426,-0.2889,2.1437,2.2725,2.3998,2.5223,2.6032,2.6398,2.6026,2.5664,2.476,2.2514,2.1163,1.9828,1.7906,1.566,1.4229,1.456,1.3059,1.2018,1.2547,1.2189,1.1955,1.2272,1.1857,1.1671,1.1965,1.2167,1.2377,1.258,1.2735,1.2807,1.2807,1.2807,1.2807,1.2807,1.2807,1.2807,1.2807,1.2807,1.2799,1.2775,1.1162,1.0306,1.0064,0.7284,0.5939,0.5728,0.4441,0.3889,0.3884,0.3888,0.3899,0.3915,0.3888,0.3897,0.3909,0.391,0.3891,0.3872,0.3757,0.3713,0.3713,0.3713,0.3713,0.3713,0.3715,0.3757,0.3803,0.3803,0.3806,0.3806,0.3803,0.3806,0.3806,0.3803,0.3803,0.3787,0.3692,0.3679,0.3659,0.3571,0.3561,0.3449,0.3138,0.2861,0.2666,0.2666,0.2602,0.2558,0.2514,0.2482,0.249,0.2472,0.2468,0.2323,0.2002,0.1974,0.1872,0.1617,0.1592,0.1605,0.1599,0.0625,0.0521,0.1483,-0.0364,-0.085,0.0167,-0.0793,-0.127,-0.1361,-0.2352,-0.2844,2.2696,2.4057,2.5193,2.6047,2.6193,2.5991,2.5461,2.4516,2.3109,2.0698,1.8202,1.5967,1.4298,1.2569,1.1597,1.2233,1.2236,1.2353,1.2881,1.284,1.2645,1.2345,1.2182,1.2085,1.2005,1.2167,1.2377,1.258,1.2735,1.2807,1.2807,1.2807,1.2807,1.2807,1.2807,1.2807,1.2807,1.2807,1.2669,1.241,1.1996,1.0643,0.848,0.7742,0.6342,0.4477,0.406,0.3889,0.3887,0.3904,0.3907,0.3887,0.3904,0.391,0.391,0.3897,0.3891,0.3886,0.3856,0.3814,0.3776,0.3776,0.3776,0.3784,0.3831,0.3856,0.3867,0.3867,0.3869,0.3863,0.388,0.3869,0.3863,0.3878,0.3867,0.3777,0.3412,0.3332,0.326,0.2982,0.2917,0.2889,0.2805,0.2524,0.2328,0.2328,0.2152,0.2132,0.2533,0.2391,0.2267,0.2199,0.2062,0.192,0.1784,0.178,0.1718,0.1618,0.1592,0.1588,0.1606,0.1335,0.1307,0.1569,0.106,0.0955,0.1219,0.0917,0.037,-0.037,-0.1333,-0.2193,2.4262,2.5403,2.6222,2.6442,2.6145,2.5461,2.4362,2.276,2.0713,1.7827,1.5371,1.3252,1.1548,1.0578,1.0264,1.0904,1.1354,1.1841,1.2532,1.2629,1.2637,1.2645,1.2588,1.2524,1.2613,1.271,1.2816,1.2946,1.2865,1.2807,1.2807,1.2807,1.2807,1.2807,1.2807,1.2807,1.2807,1.2807,1.2702,1.2507,1.1952,1.0444,0.8173,0.7529,0.6079,0.4039,0.3955,0.3889,0.3892,0.3947,0.3942,0.3892,0.3947,0.392,0.3899,0.3899,0.3899,0.3899,0.3899,0.3787,0.3695,0.3818,0.3839,0.3845,0.388,0.3817,0.3717,0.3717,0.3618,0.351,0.3511,0.3495,0.351,0.3511,0.3504,0.3419,0.3126,0.3081,0.3009,0.2789,0.2637,0.2519,0.2528,0.2241,0.2037,0.2021,0.1908,0.19,0.2215,0.2129,0.2006,0.197,0.1875,0.1785,0.1711,0.1707,0.1695,0.1639,0.1637,0.163,0.1593,0.1592,0.1592,0.1592,0.16,0.1367,0.0894,0.0867,0.0331,-0.0678,-0.165,-0.2395,2.5798,2.6523,2.6837,2.6516,2.5846,2.4747,2.2794,2.0645,1.8056,1.4596,1.2892,1.1476,0.9694,0.951,0.9826,1.0417,1.0636,1.1086,1.1973,1.2086,1.2313,1.3019,1.2962,1.3003,1.337,1.3427,1.3427,1.341,1.3108,1.2896,1.288,1.2872,1.2864,1.284,1.284,1.2823,1.2807,1.2807,1.2807,1.2766,1.1472,1.0047,0.8556,0.7052,0.5555,0.4109,0.3993,0.3911,0.3916,0.3996,0.3985,0.3916,0.3996,0.398,0.39,0.39,0.3895,0.3889,0.3859,0.3702,0.3541,0.3767,0.3812,0.3781,0.3781,0.3633,0.3425,0.3425,0.324,0.2991,0.2991,0.2991,0.2991,0.2991,0.2991,0.2979,0.2873,0.2798,0.2753,0.2686,0.2445,0.2257,0.2221,0.1984,0.1801,0.18,0.1795,0.1795,0.1795,0.1795,0.1812,0.1814,0.1811,0.1771,0.1712,0.171,0.1699,0.1696,0.1691,0.1677,0.1624,0.1594,0.1592,0.1592,0.1465,0.0933,0.0,-0.0148,-0.0729,-0.1743,-0.2593,-0.3043,2.6544,2.6678,2.6423,2.6157,2.4992,2.3222,2.0584,1.857,1.6234,1.2566,1.1438,1.0713,0.9397,0.9527,1.0111,1.092,1.1082,1.1471,1.2516,1.2564,1.2661,1.3043,1.3068,1.3133,1.3386,1.3506,1.3539,1.3419,1.3457,1.3407,1.3287,1.3313,1.3206,1.3051,1.3051,1.2978,1.2807,1.2807,1.2807,1.2766,1.1266,0.9898,0.8613,0.6993,0.5507,0.427,0.4115,0.4064,0.4064,0.4074,0.4072,0.4064,0.4074,0.4042,0.3988,0.3988,0.3958,0.3859,0.364,0.3548,0.3517,0.3569,0.338,0.3165,0.3165,0.311,0.3086,0.3086,0.3053,0.2991,0.2991,0.2991,0.2991,0.2991,0.2991,0.2917,0.2569,0.2268,0.207,0.2064,0.2003,0.1964,0.1904,0.184,0.1801,0.18,0.1795,0.1795,0.1795,0.1795,0.1793,0.1787,0.1787,0.1803,0.1772,0.1795,0.1756,0.1699,0.1702,0.1686,0.1681,0.163,0.1592,0.1592,0.0732,0.0176,0.0,-0.094,-0.1883,-0.2823,-0.2938,-0.3414,2.6518,2.6514,2.6141,2.559,2.4132,2.2171,1.9765,1.706,1.436,1.1817,1.0588,0.9782,0.9206,0.9527,1.0087,1.0685,1.0863,1.1289,1.2248,1.2337,1.2523,1.3199,1.3319,1.3449,1.3628,1.3815,1.3847,1.366,1.3725,1.366,1.3419,1.3313,1.3189,1.3092,1.3092,1.3051,1.297,1.297,1.2604,1.1862,1.1163,0.9671,0.7569,0.6859,0.5726,0.439,0.424,0.4142,0.4142,0.4142,0.4123,0.4096,0.3934,0.3843,0.3763,0.3604,0.3526,0.3471,0.3287,0.3122,0.2993,0.2968,0.2991,0.2991,0.2991,0.2868,0.2745,0.2745,0.2623,0.2469,0.2469,0.2469,0.2469,0.2469,0.2469,0.2433,0.2231,0.2064,0.1963,0.1963,0.1963,0.1924,0.1863,0.1857,0.1843,0.1797,0.179,0.1813,0.1797,0.1795,0.1795,0.1795,0.1795,0.1789,0.1803,0.1801,0.1787,0.1757,0.1727,0.1704,0.1689,0.1097,0.0757,0.0757,-0.0277,-0.1109,-0.1662,-0.2221,-0.2991,-0.3943,-0.4039,-0.4313,2.619,2.6129,2.5792,2.4895,2.3239,2.1203,1.9022,1.5811,1.287,1.1323,0.9952,0.9047,0.9088,0.9494,0.9933,1.0385,1.0574,1.0972,1.1924,1.2021,1.2361,1.3296,1.353,1.369,1.3937,1.4123,1.4156,1.3977,1.392,1.3782,1.3533,1.3344,1.3254,1.3214,1.3173,1.3133,1.3092,1.3092,1.2393,1.1036,1.0773,0.9254,0.6691,0.643,0.5646,0.4474,0.4254,0.4116,0.4102,0.4036,0.3945,0.3876,0.3689,0.3541,0.3465,0.3209,0.3105,0.3091,0.2961,0.2727,0.2499,0.2439,0.2574,0.2777,0.2777,0.259,0.2406,0.2406,0.2191,0.2008,0.2008,0.2012,0.2019,0.2024,0.2027,0.2027,0.2027,0.2021,0.1986,0.1986,0.2012,0.1964,0.1898,0.1891,0.1871,0.181,0.1802,0.1793,0.1798,0.1795,0.1795,0.1795,0.1795,0.1795,0.1795,0.1795,0.181,0.1807,0.1511,0.1326,0.1325,0.023,-0.0354,-0.0353,-0.1386,-0.2393,-0.3274,-0.3525,-0.4075,-0.4908,-0.5103,-0.5151,2.5862,2.5571,2.5085,2.4202,2.2407,2.0129,1.7505,1.4708,1.2185,1.0404,0.9398,0.887,0.9064,0.929,0.9706,1.0534,1.0523,1.0855,1.2109,1.2102,1.2361,1.3296,1.353,1.3747,1.416,1.431,1.4335,1.4164,1.3993,1.3888,1.3855,1.3839,1.3758,1.3561,1.3433,1.3262,1.3092,1.3092,1.2421,1.109,0.98,0.8398,0.6913,0.5444,0.4676,0.448,0.4099,0.3908,0.3794,0.3457,0.3287,0.3283,0.3253,0.3195,0.3126,0.3126,0.3099,0.3065,0.2737,0.2607,0.2542,0.225,0.2114,0.21,0.21,0.2069,0.2038,0.2038,0.2038,0.2008,0.2008,0.1996,0.2022,0.2081,0.2088,0.2088,0.2088,0.2034,0.2015,0.2015,0.1994,0.1988,0.19,0.1889,0.1869,0.1808,0.18,0.1798,0.1795,0.1795,0.1795,0.1795,0.1795,0.1795,0.1795,0.1795,0.181,0.1807,0.0764,0.0161,0.0156,-0.093,-0.1512,-0.1463,-0.2494,-0.3224,-0.3578,-0.4533,-0.5186,-0.5518,-0.5483,-0.546,2.4994,2.5175,2.4871,2.3793,2.1821,1.9565,1.724,1.4315,1.1698,1.0214,0.9409,0.9007,0.9088,0.9332,0.9673,1.0128,1.0144,1.0428,1.137,1.1435,1.1841,1.3059,1.3368,1.3701,1.4278,1.4497,1.4481,1.4233,1.4143,1.4018,1.3904,1.3807,1.3682,1.3609,1.3536,1.3463,1.339,1.2478,1.1323,0.9946,0.8379,0.6753,0.5183,0.4585,0.4145,0.3873,0.3681,0.3597,0.3549,0.335,0.3253,0.3194,0.2995,0.2885,0.2839,0.2638,0.2562,0.2545,0.236,0.2287,0.2284,0.2134,0.208,0.2057,0.2007,0.199,0.2008,0.2008,0.1989,0.2001,0.2001,0.2023,0.2081,0.2093,0.2096,0.2096,0.2096,0.2039,0.2024,0.2042,0.2039,0.1999,0.1974,0.1925,0.1863,0.1802,0.1794,0.1787,0.1797,0.1795,0.1795,0.1795,0.1795,0.1795,0.1795,0.1795,0.1482,0.075,0.0275,-0.0326,-0.1044,-0.2146,-0.2785,-0.2918,-0.39,-0.4533,-0.4805,-0.5236,-0.5486,-0.5611,-0.5748,-0.5802,2.3638,2.4287,2.4446,2.322,2.1091,1.8768,1.6869,1.3814,1.1098,1.012,0.9427,0.9031,0.9088,0.9348,0.9624,0.9877,0.9958,1.0227,1.0903,1.1041,1.1476,1.2637,1.2946,1.336,1.4087,1.4505,1.4562,1.4241,1.4217,1.4099,1.3912,1.3782,1.3682,1.3682,1.3633,1.3609,1.3609,1.2078,1.0524,0.8929,0.7367,0.5633,0.385,0.3905,0.3769,0.3477,0.3311,0.32,0.3169,0.3021,0.2953,0.2892,0.2658,0.2559,0.2526,0.229,0.2189,0.2185,0.2131,0.2123,0.2119,0.2131,0.2117,0.2106,0.2052,0.2024,0.2033,0.1992,0.2009,0.2034,0.2044,0.2061,0.2111,0.2121,0.2124,0.2124,0.2124,0.2067,0.2052,0.2106,0.2069,0.2028,0.201,0.1951,0.188,0.1821,0.1804,0.179,0.1798,0.1795,0.1767,0.1655,0.143,0.1402,0.1767,0.1486,0.0895,0.0056,-0.0746,-0.156,-0.2382,-0.3543,-0.4242,-0.4398,-0.5006,-0.5441,-0.5712,-0.5712,-0.5762,-0.5837,-0.6037,-0.6117,2.1657,2.2693,2.3536,2.2298,2.0003,1.7645,1.6147,1.3008,1.0308,0.9967,0.9313,0.8854,0.9064,0.9266,0.9518,0.9852,1.0064,0.0,1.0919,1.1118,1.1398,1.194,1.2207,1.2637,1.3528,1.4257,1.4562,1.4241,1.4217,1.4099,1.3912,1.3896,1.3896,1.3896,1.3698,1.3609,1.3609,1.2078,1.0341,0.8389,0.7033,0.5383,0.3498,0.3489,0.3468,0.3393,0.2993,0.2786,0.268,0.2337,0.2223,0.2223,0.2223,0.2189,0.2189,0.2189,0.2189,0.2189,0.2188,0.2188,0.2188,0.2188,0.2167,0.2109,0.2109,0.2087,0.2089,0.2026,0.2039,0.2103,0.2101,0.2109,0.2116,0.2181,0.2188,0.2188,0.2188,0.2129,0.2109,0.2109,0.2084,0.2077,0.2017,0.1951,0.188,0.1821,0.1786,0.1795,0.1795,0.1795,0.1683,0.1346,0.0533,0.0505,0.1711,0.0701,0.0,0.0,-0.2496,-0.3938,-0.3884,-0.5236,-0.5903,-0.5773,-0.5664,-0.5737,-0.5992,-0.5992,-0.6142,-0.6387,-0.6387,-0.6387,1.9481,2.0254,2.0605,1.9816,1.7875,1.5777,1.4286,1.1941,0.9851,0.9161,0.8999,0.9031,0.9088,0.934,0.9616,0.9869,1.0064,1.0292,1.0558,1.107,1.1703,1.2459,1.3498,1.4237,1.4521,1.4643,1.4611,1.4367,1.4245,1.4099,1.3912,1.3904,1.3904,1.3904,1.3847,1.3318,1.2237,1.0441,0.8683,0.7001,0.5265,0.3935,0.3099,0.3085,0.2922,0.2646,0.2518,0.2413,0.2336,0.2258,0.2207,0.2189,0.2189,0.2189,0.2189,0.2189,0.2189,0.2189,0.2189,0.2189,0.2189,0.2189,0.2182,0.217,0.2116,0.2089,0.2099,0.2078,0.2087,0.2102,0.2165,0.2174,0.2177,0.2186,0.2189,0.2189,0.2189,0.2131,0.2116,0.217,0.2132,0.2084,0.2012,0.1981,0.1941,0.188,0.1864,0.1792,0.1543,0.0798,0.017,-0.0168,-0.1175,-0.1371,-0.014,-0.0951,-0.1953,-0.2996,-0.3873,-0.4703,-0.5511,-0.5886,-0.6126,-0.6275,-0.6191,-0.6231,-0.6409,-0.6409,-0.6417,-0.6412,-0.6412,-0.6412,1.7003,1.7952,1.8311,1.7342,1.5579,1.3804,1.2681,1.0847,0.9262,0.8722,0.8875,0.9096,0.9096,0.9364,0.964,0.977,1.0023,1.0227,1.0314,1.1005,1.1809,1.2637,1.3815,1.4562,1.4562,1.4708,1.4732,1.4546,1.4375,1.4196,1.4018,1.3793,1.3682,1.3682,1.3682,1.3218,1.2237,0.9748,0.791,0.6789,0.4405,0.3063,0.266,0.2686,0.253,0.2305,0.2283,0.2252,0.0,0.2204,0.2217,0.2189,0.2189,0.2189,0.2189,0.2189,0.2189,0.2189,0.2189,0.2189,0.2189,0.2189,0.2189,0.2185,0.2165,0.2105,0.212,0.2119,0.2127,0.2131,0.2183,0.2189,0.2189,0.2189,0.2189,0.2189,0.2189,0.2172,0.2165,0.2185,0.2157,0.2121,0.2059,0.2019,0.1945,0.1777,0.1722,0.1408,0.0552,-0.0203,-0.098,-0.1797,-0.2832,-0.3244,-0.2681,-0.2889,-0.3491,-0.4442,-0.5031,-0.5676,-0.6409,-0.6444,-0.652,-0.6682,-0.6594,-0.6605,-0.6661,-0.6661,-0.6623,-0.6547,-0.6498,-0.6482,0.0,1.5662,1.6387,1.4896,1.3211,1.1796,1.1315,0.9844,0.0,0.859,0.8875,0.9096,0.9096,0.9364,0.9607,0.9624,0.9933,1.0194,1.0202,1.1017,1.1841,1.2588,1.3425,1.3945,1.3904,1.4521,1.4854,1.4646,1.4423,1.4253,1.4091,1.3562,1.3218,1.3111,1.3075,1.3039,1.2924,0.9676,0.7765,0.7147,0.4257,0.266,0.2295,0.2305,0.2307,0.2291,0.2237,0.2212,0.2205,0.2211,0.2217,0.2189,0.2189,0.2189,0.2189,0.2189,0.2189,0.2189,0.2189,0.2189,0.2189,0.2189,0.2189,0.2189,0.2189,0.2168,0.2119,0.2181,0.2189,0.2189,0.2189,0.2189,0.2189,0.2189,0.2189,0.2189,0.2189,0.2189,0.2189,0.2189,0.2189,0.2178,0.2079,0.2026,0.1854,0.1517,0.1326,0.0651,-0.0913,-0.1297,-0.1972,-0.3486,-0.4393,-0.5096,-0.5573,-0.5017,-0.4665,-0.4693,-0.5982,-0.6743,-0.6743,-0.692,-0.7024,-0.7024,-0.6877,-0.6817,-0.6817,-0.6806,-0.6801,-0.6801,-0.6661,-0.6607,1.233,0.0,1.2993,1.2115,1.1078,1.026,0.0,0.938,0.859,0.859,0.8875,0.9096,0.9096,0.9364,0.9648,0.9803,1.004,1.0235,1.0355,1.1492,1.2613,1.3269,1.4058,1.4359,1.3945,1.4302,1.434,1.3906,1.366,1.3426,1.3136,1.299,1.2352,1.1119,1.0839,1.0257,0.9316,0.8194,0.6423,0.3969,0.295,0.2405,0.2296,0.2289,0.2315,0.23,0.2286,0.2253,0.221,0.2203,0.2217,0.2189,0.2189,0.2189,0.2189,0.2189,0.2189,0.2189,0.2189,0.2189,0.2189,0.2189,0.2189,0.2189,0.2189,0.2183,0.2179,0.2186,0.2189,0.2189,0.2189,0.2189,0.2189,0.2189,0.2189,0.2189,0.2189,0.2189,0.2189,0.2189,0.2189,0.2104,0.1758,0.1708,0.1558,0.1178,0.0155,-0.0799,-0.1322,-0.3142,-0.4561,-0.4973,-0.6027,-0.6729,-0.6779,-0.6414,-0.6288,-0.6538,-0.6904,-0.7071,-0.7071,-0.7127,-0.7144,-0.7144,-0.7029,-0.6942,-0.6942,-0.685,-0.6801,-0.6801,-0.6774,-0.6757,1.1493,1.1425,1.1398,1.0646,0.9859,0.9318,0.938,0.8992,0.8615,0.8688,0.8901,0.912,0.9225,0.934,0.9515,0.986,0.9961,1.0211,1.0731,1.1686,1.258,1.333,1.395,1.4286,1.4156,1.4135,1.4059,1.3751,1.3398,1.2756,1.1875,1.1597,1.0725,0.9131,0.8739,0.8343,0.7837,0.6753,0.538,0.3714,0.277,0.2296,0.2296,0.2296,0.2318,0.229,0.229,0.2256,0.22,0.22,0.2217,0.2189,0.2189,0.2189,0.2189,0.2189,0.2189,0.2189,0.2189,0.2189,0.2189,0.2189,0.2189,0.2189,0.2189,0.2189,0.2189,0.2189,0.2189,0.2189,0.2189,0.2189,0.2189,0.2189,0.2189,0.2189,0.2189,0.2189,0.2189,0.2189,0.2053,0.1872,0.1635,0.0911,0.0226,-0.0126,-0.1456,-0.2718,-0.3575,-0.4874,-0.597,-0.6632,-0.7105,-0.7365,-0.7357,-0.7079,-0.7015,-0.7182,-0.721,-0.721,-0.721,-0.721,-0.721,-0.721,-0.7122,-0.7089,-0.7089,-0.7024,-0.6991,-0.6991,-0.691,-0.6888,1.1621,1.1433,1.1143,1.0168,0.9565,0.9176,0.9005,0.8913,0.8841,0.881,0.8991,0.9201,0.9371,0.9355,0.9439,0.9834,0.9954,1.0374,1.1375,1.1891,1.2419,1.3144,1.3594,1.3918,1.4135,1.3938,1.3718,1.365,1.2963,1.1935,1.0566,0.9847,0.8739,0.711,0.6789,0.668,0.6713,0.538,0.4584,0.433,0.295,0.2295,0.2289,0.2289,0.2311,0.2283,0.2283,0.2252,0.22,0.22,0.2217,0.2189,0.2189,0.2189,0.2189,0.2189,0.2189,0.2189,0.2189,0.2189,0.2189,0.2189,0.2189,0.2189,0.2189,0.2189,0.2189,0.2189,0.2189,0.2189,0.2189,0.2189,0.2189,0.2189,0.2189,0.2189,0.2189,0.2189,0.2189,0.212,0.1818,0.1575,0.1454,0.0165,-0.0982,-0.1291,-0.2612,-0.4061,-0.5465,-0.572,-0.6298,-0.7588,-0.7436,-0.7301,-0.7489,-0.7312,-0.7209,-0.7209,-0.7221,-0.721,-0.721,-0.721,-0.721,-0.721,-0.721,-0.721,-0.721,-0.721,-0.721,-0.7204,-0.7084,-0.704,1.3048,1.2966,1.2337,1.0843,1.0774,1.085,0.9945,0.9837,0.9746,0.897,0.9088,0.9371,0.9396,0.9624,0.9801,0.9884,1.0515,1.1347,1.2419,1.2791,1.3051,1.3342,1.3519,1.3511,1.3083,1.3121,1.2947,1.2489,1.1178,1.0113,0.9535,0.8208,0.6717,0.5162,0.5093,0.4439,0.3096,0.4148,0.4005,0.266,0.2405,0.2284,0.2297,0.2297,0.2281,0.2217,0.2217,0.2198,0.22,0.22,0.2217,0.2189,0.2189,0.2189,0.2189,0.2189,0.2189,0.2189,0.2189,0.2189,0.2189,0.2189,0.2189,0.2189,0.2189,0.2189,0.2189,0.2189,0.2189,0.2189,0.2189,0.2189,0.2189,0.2189,0.2189,0.2189,0.2189,0.2189,0.2087,0.175,0.1649,0.1407,0.0793,0.0428,0.0131,-0.0194,-0.1466,-0.2447,-0.2642,-0.3692,-0.4826,-0.5941,-0.6004,-0.6403,-0.7407,-0.7359,-0.7278,-0.7278,-0.7242,-0.721,-0.721,-0.721,-0.721,-0.721,-0.721,-0.721,-0.721,-0.721,-0.721,-0.721,-0.7193,-0.7155,1.2999,1.3241,1.3074,1.2059,1.1669,1.1178,0.9799,0.9618,0.9667,0.9305,0.9388,0.9584,0.9779,0.9975,1.0265,1.0639,1.1323,1.195,1.2346,1.2661,1.2813,1.2814,1.3029,1.3083,1.2818,1.2666,1.2121,1.1031,1.0083,0.8781,0.6902,0.6141,0.5017,0.3459,0.3387,0.3059,0.2296,0.304,0.304,0.2296,0.2318,0.2304,0.229,0.2274,0.2214,0.2186,0.2186,0.2203,0.221,0.221,0.2201,0.2189,0.2189,0.2189,0.2189,0.2189,0.2189,0.2189,0.2189,0.2189,0.2189,0.2189,0.2189,0.2189,0.2189,0.2189,0.2189,0.2189,0.2189,0.2189,0.2189,0.2189,0.2189,0.2189,0.2189,0.2189,0.2189,0.2019,0.1818,0.1649,0.1279,0.0905,0.0561,-0.0265,-0.0961,-0.1111,-0.2374,-0.3282,-0.3261,-0.4446,-0.5469,-0.597,-0.6544,-0.71,-0.7684,-0.754,-0.7349,-0.7247,-0.7215,-0.721,-0.721,-0.721,-0.721,-0.721,-0.721,-0.721,-0.721,-0.721,-0.721,-0.721,-0.721,-0.721,1.3059,1.3601,1.3809,1.296,1.2561,1.1922,1.0034,0.9909,1.0121,0.9845,0.9794,0.9875,1.0202,1.0387,1.0725,1.1441,1.2073,1.2467,1.2455,1.2617,1.2692,1.2543,1.2623,1.266,1.2659,1.1972,1.1031,0.9831,0.8817,0.7191,0.4838,0.433,0.3569,0.2333,0.2296,0.2296,0.2296,0.2311,0.2308,0.2287,0.2294,0.2281,0.2279,0.2213,0.2187,0.22,0.2192,0.221,0.2189,0.2189,0.2189,0.2189,0.2189,0.2189,0.2189,0.2189,0.2189,0.2189,0.2189,0.2189,0.2189,0.2189,0.2189,0.2189,0.2189,0.2189,0.2189,0.2189,0.212,0.2087,0.2189,0.2189,0.2189,0.2087,0.2053,0.2053,0.1952,0.1717,0.1446,0.1374,0.0873,0.0469,0.0396,-0.0733,-0.1607,-0.1623,-0.2568,-0.3423,-0.3758,-0.4673,-0.5584,-0.6243,-0.7003,-0.7582,-0.7834,-0.7665,-0.7459,-0.7242,-0.7198,-0.721,-0.721,-0.721,-0.721,-0.721,-0.721,-0.721,-0.721,-0.721,-0.721,-0.721,-0.721,-0.721,1.4141,1.4794,1.4835,1.2972,1.3655,1.413,1.1688,1.1874,1.2138,1.0641,1.0353,1.0361,1.0385,1.0806,1.1304,1.1861,1.2556,1.3165,1.3445,1.3349,1.3247,1.325,1.2659,1.2244,1.223,1.0593,0.9471,0.9363,0.6648,0.4947,0.4729,0.3278,0.2405,0.2296,0.2296,0.2296,0.2296,0.2295,0.2318,0.2293,0.2228,0.2213,0.2213,0.2217,0.2202,0.2199,0.2204,0.219,0.2189,0.2189,0.2189,0.2189,0.2189,0.2189,0.2189,0.2189,0.2189,0.2189,0.2189,0.2189,0.2189,0.2189,0.2189,0.2189,0.2189,0.2189,0.2189,0.2189,0.1918,0.1717,0.2087,0.2189,0.212,0.1717,0.1649,0.1548,0.1245,0.1144,0.104,0.0662,0.0534,0.0402,0.0099,-0.0067,-0.0135,-0.0134,-0.0235,-0.0774,-0.2084,-0.2356,-0.3419,-0.601,-0.6264,-0.6642,-0.7641,-0.7698,-0.7584,-0.7311,-0.7248,-0.721,-0.721,-0.721,-0.721,-0.721,-0.721,-0.721,-0.721,-0.721,-0.721,-0.721,-0.721,-0.721,1.3914,1.3977,1.3745,1.2539,1.295,1.3107,1.1071,1.1177,1.1693,1.1818,1.1538,1.1273,1.1273,1.1614,1.2005,1.2435,1.301,1.3418,1.3413,1.3357,1.3111,1.2653,1.2373,1.2086,1.1835,1.0305,0.8889,0.7946,0.5887,0.4257,0.3278,0.2624,0.2296,0.2296,0.2296,0.2296,0.2296,0.2261,0.2237,0.2228,0.2216,0.2201,0.2217,0.2185,0.2206,0.2206,0.2193,0.2189,0.2189,0.2189,0.2189,0.2189,0.2189,0.2189,0.2189,0.2189,0.2189,0.2189,0.2189,0.2189,0.2189,0.2189,0.2189,0.2154,0.1918,0.1818,0.1784,0.1582,0.1414,0.138,0.1717,0.1683,0.1481,0.1313,0.1279,0.1245,0.1111,0.0909,0.0672,0.0535,0.0335,0.0134,0.0033,0.0,-0.0303,-0.1177,-0.0572,-0.084,-0.3155,-0.3475,-0.4195,-0.6158,-0.7066,-0.7667,-0.7983,-0.7964,-0.7881,-0.7682,-0.7486,-0.7345,-0.7269,-0.7269,-0.7269,-0.7269,-0.722,-0.721,-0.721,-0.721,-0.721,-0.721,-0.721,-0.721,1.35,1.3445,1.317,1.1953,1.237,1.2659,1.0986,1.1145,1.1851,1.2521,1.2226,1.1823,1.1849,1.2101,1.2426,1.275,1.3199,1.3448,1.3309,1.3111,1.276,1.2266,1.2086,1.1727,1.0959,0.9471,0.795,0.6391,0.4836,0.3459,0.2369,0.2296,0.2296,0.2296,0.2296,0.2296,0.2296,0.2257,0.2228,0.221,0.221,0.2194,0.2199,0.2203,0.2193,0.2203,0.2193,0.2189,0.2189,0.2189,0.2189,0.2189,0.2189,0.2189,0.2189,0.2189,0.2189,0.2186,0.2178,0.2114,0.2018,0.2009,0.1946,0.1818,0.1515,0.1447,0.138,0.1178,0.101,0.0976,0.1178,0.1178,0.1077,0.0943,0.0909,0.0875,0.0774,0.0539,0.0336,0.0334,0.0168,0.0,0.0,0.0,-0.0473,-0.1884,-0.1282,-0.1688,-0.4599,-0.4964,-0.5492,-0.6872,-0.7835,-0.8334,-0.8215,-0.816,-0.8072,-0.7913,-0.7758,-0.76,-0.737,-0.7365,-0.7349,-0.7311,-0.729,-0.7259,-0.721,-0.722,-0.722,-0.721,-0.721,-0.721,1.3109,1.3529,1.3438,1.1271,1.2219,1.3291,1.1823,1.2325,1.2982,1.2673,1.2181,1.1863,1.1973,1.2159,1.2426,1.275,1.3088,1.3289,1.3289,1.2653,1.2194,1.2194,1.1835,1.0966,0.9435,0.7873,0.6355,0.4802,0.3205,0.2296,0.2296,0.2296,0.2296,0.2296,0.2296,0.2296,0.2296,0.2296,0.2267,0.221,0.221,0.2194,0.2199,0.2203,0.2206,0.2198,0.2201,0.2189,0.2189,0.2188,0.2188,0.2188,0.2188,0.2188,0.2189,0.2189,0.2189,0.2183,0.212,0.1863,0.1578,0.1589,0.1364,0.1111,0.1111,0.1111,0.1111,0.1077,0.0808,0.0505,0.0505,0.0808,0.0976,0.0606,0.0505,0.0404,0.0067,0.0,0.0,-0.0033,-0.0033,-0.0034,-0.0033,-0.0034,-0.0513,-0.1921,-0.2143,-0.3173,-0.6016,-0.641,-0.6943,-0.8268,-0.8383,-0.8334,-0.8215,-0.8204,-0.8101,-0.7924,-0.8023,-0.7924,-0.7506,-0.7489,-0.7435,-0.7311,-0.743,-0.7399,-0.721,-0.7279,-0.7274,-0.721,-0.721,-0.721,1.3458,1.2892,1.2221,1.2484,1.2171,1.1796,1.1831,1.1918,1.2127,1.2645,1.3189,1.3351,1.2693,1.2743,1.2798,1.261,1.29,1.3016,1.2602,1.2338,1.2086,1.1799,1.0707,0.9801,0.9327,0.6938,0.5201,0.4729,0.3205,0.2296,0.2296,0.2296,0.2296,0.2296,0.2296,0.2287,0.2304,0.2246,0.2217,0.2214,0.2192,0.2211,0.2201,0.2193,0.2193,0.2201,0.2192,0.2189,0.2186,0.2165,0.2123,0.2123,0.2123,0.2003,0.1784,0.1784,0.1616,0.1413,0.1407,0.1341,0.1245,0.1239,0.1174,0.1043,0.0774,0.0673,0.064,0.0404,0.0236,0.0135,0.0135,0.0236,0.0303,0.0168,0.0135,0.0135,0.0034,0.0,-0.0337,-0.1423,-0.1633,-0.1982,-0.3124,-0.3225,-0.3627,-0.5043,-0.4338,-0.4316,-0.6176,-0.7218,-0.7987,-0.8497,-0.8465,-0.8437,-0.8481,-0.8481,-0.8421,-0.8263,-0.8209,-0.8019,-0.766,-0.7649,-0.7627,-0.7595,-0.7516,-0.7414,-0.7285,-0.7289,-0.7274,-0.721,-0.7382,-0.7493,1.2522,1.2037,1.1526,1.2111,1.2091,1.1971,1.2186,1.2296,1.2523,1.3099,1.3561,1.3663,1.3209,1.299,1.2845,1.2749,1.2727,1.262,1.2252,1.2051,1.1871,1.1619,1.0233,0.9069,0.8456,0.6141,0.4439,0.3787,0.2841,0.2296,0.2296,0.2285,0.2316,0.2316,0.2268,0.2255,0.2273,0.222,0.2195,0.22,0.2215,0.22,0.2189,0.2189,0.2189,0.2189,0.2189,0.2189,0.2186,0.1968,0.1888,0.1878,0.1747,0.1585,0.139,0.139,0.1262,0.11,0.1061,0.0967,0.0874,0.0869,0.077,0.0606,0.037,0.0303,0.0269,0.0067,0.0,0.0,0.0,0.0,0.0,0.0,-0.0473,-0.0746,-0.0136,-0.0987,-0.1951,-0.2244,-0.2802,-0.3571,-0.4538,-0.4583,-0.4965,-0.6377,-0.626,-0.6305,-0.7178,-0.7995,-0.8513,-0.8579,-0.8524,-0.8513,-0.8584,-0.859,-0.8541,-0.8394,-0.8318,-0.8166,-0.7886,-0.7796,-0.7747,-0.7703,-0.7671,-0.7551,-0.7305,-0.7497,-0.7544,-0.7449,-0.7735,-0.7881,1.0972,1.1175,1.1265,1.1004,1.2105,1.3171,1.2765,1.3181,1.3666,1.3807,1.3474,1.3237,1.3534,1.3022,1.2673,1.2982,1.2564,1.2194,1.2158,1.1835,1.1548,1.1404,1.0017,0.8492,0.6934,0.538,0.386,0.2405,0.2293,0.2292,0.2292,0.2305,0.2289,0.2286,0.2228,0.2212,0.2206,0.2206,0.2191,0.2196,0.2196,0.2215,0.2189,0.2189,0.2189,0.2154,0.212,0.2085,0.2049,0.168,0.1534,0.1516,0.1219,0.1078,0.1034,0.1034,0.1042,0.0985,0.0939,0.0722,0.0469,0.0463,0.0233,0.0,0.0,0.0,0.0,0.0,-0.0101,-0.0202,-0.0202,-0.0303,-0.0404,-0.0404,-0.1359,-0.1922,-0.0515,-0.2564,-0.4302,-0.2978,-0.3923,-0.494,-0.5086,-0.5013,-0.5333,-0.6607,-0.7834,-0.8606,-0.8606,-0.8584,-0.8579,-0.8584,-0.8579,-0.8579,-0.8584,-0.859,-0.8546,-0.8443,-0.8388,-0.8318,-0.8126,-0.799,-0.7864,-0.778,-0.7878,-0.7763,-0.7424,-0.7852,-0.7991,-0.7863,-0.8211,-0.8359,1.1585,1.1406,1.113,1.2348,1.2895,1.3178,1.3353,1.3636,1.3734,1.3344,1.3514,1.3644,1.3405,1.3216,1.298,1.2451,1.228,1.2086,1.1763,1.1655,1.1145,0.9945,0.842,0.6898,0.5344,0.3748,0.266,0.2333,0.2312,0.23,0.23,0.2294,0.2279,0.2221,0.2273,0.2258,0.221,0.221,0.2195,0.2199,0.2199,0.2195,0.2189,0.2189,0.2019,0.1717,0.1447,0.1304,0.1258,0.1159,0.1123,0.1121,0.1054,0.0855,0.0623,0.0623,0.0457,0.0227,0.0226,0.0163,0.0099,0.0099,0.0067,0.0,0.0,0.0,0.0,0.0,-0.0807,-0.1647,-0.1647,-0.2519,-0.339,-0.339,-0.2818,-0.2196,-0.1887,-0.3328,-0.4946,-0.581,-0.628,-0.6875,-0.8095,-0.8185,-0.8168,-0.8372,-0.8602,-0.8765,-0.8765,-0.8568,-0.8486,-0.8579,-0.8508,-0.8492,-0.8579,-0.859,-0.8579,-0.8552,-0.847,-0.8394,-0.8345,-0.8164,-0.8113,-0.824,-0.8294,-0.8334,-0.8384,-0.8503,-0.8478,-0.8344,-0.864,-0.8756,1.1028,1.1037,1.115,1.2455,1.2775,1.2873,1.3173,1.3298,1.3283,1.3017,1.3314,1.3503,1.3146,1.2904,1.2653,1.2266,1.2051,1.1835,1.1619,1.1584,1.1038,0.9471,0.7946,0.6391,0.4838,0.3241,0.2291,0.2313,0.23,0.2285,0.227,0.2255,0.224,0.2189,0.2225,0.2244,0.2213,0.2213,0.2204,0.2189,0.2019,0.1818,0.1683,0.1851,0.1717,0.1346,0.1178,0.1072,0.1032,0.0832,0.0762,0.0758,0.0593,0.0427,0.0261,0.0261,0.0163,0.0,0.0,0.0,0.0,0.0,0.0,0.0,0.0,0.0,-0.0135,-0.0807,-0.1546,-0.2252,-0.2956,-0.3725,-0.4294,-0.4294,-0.4341,-0.4147,-0.3428,-0.509,-0.6725,-0.6805,-0.7455,-0.8256,-0.9066,-0.9087,-0.8968,-0.8883,-0.8764,-0.8716,-0.8716,-0.8573,-0.8524,-0.8584,-0.8535,-0.8524,-0.8584,-0.859,-0.859,-0.859,-0.853,-0.8541,-0.865,-0.846,-0.8398,-0.8459,-0.8644,-0.8732,-0.8706,-0.8825,-0.8877,-0.8837,-0.9108,-0.9225,1.0268,1.0644,1.1232,1.1993,1.2316,1.2514,1.2714,1.2766,1.2789,1.2717,1.2968,1.3111,1.2753,1.2402,1.2194,1.2122,1.1835,1.1512,1.1253,1.1217,1.0527,0.8714,0.7368,0.5996,0.4439,0.309,0.2316,0.2293,0.2281,0.2264,0.2204,0.2214,0.2198,0.2192,0.2201,0.2189,0.2189,0.2116,0.208,0.208,0.1706,0.1337,0.1003,0.127,0.1273,0.101,0.0943,0.0909,0.0875,0.0539,0.0401,0.0397,0.0099,0.0,0.0,0.0,0.0,0.0,0.0,0.0,0.0,0.0,0.0,-0.0033,-0.0302,-0.037,-0.0673,-0.2084,-0.2653,-0.3123,-0.4361,-0.4864,-0.5031,-0.5031,-0.6024,-0.6523,-0.5031,-0.6936,-0.8557,-0.7292,-0.8137,-0.9098,-0.9098,-0.9,-0.8881,-0.8818,-0.8698,-0.8617,-0.8617,-0.86,-0.859,-0.859,-0.859,-0.859,-0.859,-0.859,-0.8623,-0.8684,-0.8684,-0.8778,-0.9038,-0.8992,-0.8907,-0.8772,-0.8994,-0.9063,-0.8893,-0.9125,-0.9244,-0.9311,-0.9526,-0.9646,1.0528,1.0906,1.127,1.1611,1.2,1.2343,1.2507,1.2656,1.2681,1.2338,1.2581,1.2753,1.2338,1.223,1.2086,1.1727,1.1655,1.1145,0.9801,0.9615,0.8533,0.5673,0.5129,0.4366,0.277,0.2419,0.2294,0.2292,0.2243,0.221,0.2206,0.2202,0.2188,0.2196,0.219,0.2189,0.2189,0.1862,0.1685,0.1685,0.1338,0.0973,0.0584,0.0617,0.0625,0.0572,0.0269,0.0135,0.0135,0.0101,0.0067,0.0067,0.0034,0.0,0.0,0.0,0.0,0.0,0.0,0.0,0.0,0.0,0.0,-0.0235,-0.1445,-0.1815,-0.2118,-0.3591,-0.4897,-0.5871,-0.6071,-0.7078,-0.8017,-0.8017,-0.8195,-0.7968,-0.6596,-0.7761,-0.9005,-0.8788,-0.8945,-0.9098,-0.9098,-0.9,-0.8914,-0.8892,-0.8823,-0.8781,-0.8781,-0.8688,-0.859,-0.859,-0.859,-0.859,-0.859,-0.859,-0.8723,-0.9017,-0.905,-0.9211,-0.957,-0.985,-0.9933,-0.9793,-0.9461,-0.9409,-0.9637,-0.9697,-0.9697,-0.9727,-0.9765,-0.9765,1.0322,1.0438,1.0634,1.1056,1.1339,1.1584,1.1825,1.2002,1.2079,1.1907,1.2015,1.2079,1.1907,1.1871,1.1799,1.1619,1.1584,1.1074,0.9507,0.9291,0.8167,0.5056,0.4693,0.4075,0.2442,0.2307,0.229,0.229,0.2234,0.2192,0.221,0.2158,0.2135,0.2138,0.1972,0.1874,0.1874,0.1502,0.1204,0.0977,0.0841,0.0581,0.0226,0.0226,0.0228,0.0197,0.0066,0.0,0.0,0.0,0.0,0.0,0.0,0.0,0.0,0.0,0.0,0.0,0.0,0.0,-0.0132,-0.0931,-0.1165,-0.1431,-0.2881,-0.3323,-0.3624,-0.5064,-0.5938,-0.6577,-0.7412,-0.8117,-0.859,-0.859,-0.859,-0.8434,-0.7843,-0.8306,-0.8851,-0.8916,-0.8952,-0.8995,-0.8995,-0.9011,-0.8973,-0.8872,-0.8807,-0.8781,-0.871,-0.8622,-0.859,-0.859,-0.859,-0.859,-0.859,-0.859,-0.8751,-0.9084,-0.9117,-0.935,-0.996,-1.005,-1.0136,-1.0266,-1.0074,-1.0004,-1.008,-0.9961,-0.992,-0.9913,-0.9832,-0.9792,0.9874,0.9889,1.0076,1.0397,1.0663,1.0914,1.1172,1.1396,1.1558,1.1558,1.1558,1.1572,1.1577,1.1584,1.1584,1.1584,1.1584,1.093,0.8997,0.8683,0.7553,0.4454,0.4095,0.362,0.2383,0.2298,0.2285,0.2268,0.2225,0.2183,0.2179,0.2121,0.2063,0.1969,0.1703,0.1542,0.1483,0.1124,0.077,0.0385,0.0384,0.0255,0.0,0.0,0.0,0.0,0.0,0.0,0.0,0.0,0.0,0.0,0.0,0.0,0.0,0.0,0.0,-0.0067,-0.0399,-0.053,-0.0763,-0.221,-0.2668,-0.2914,-0.4381,-0.483,-0.5131,-0.6539,-0.6944,-0.7212,-0.8318,-0.859,-0.859,-0.859,-0.859,-0.8606,-0.8666,-0.8655,-0.8721,-0.8907,-0.8897,-0.8919,-0.8919,-0.8995,-0.8968,-0.8792,-0.8787,-0.8759,-0.86,-0.859,-0.859,-0.859,-0.859,-0.8617,-0.8723,-0.8717,-0.8917,-0.935,-0.9383,-0.9655,-1.0293,-1.0215,-1.0287,-1.0548,-1.0548,-1.046,-1.0315,-1.0168,-1.0055,-0.9984,-0.99,-0.9825,0.9113,0.9473,0.9939,0.9728,1.0195,1.0704,1.0718,1.109,1.1402,1.1402,1.1402,1.145,1.1592,1.1584,1.1584,1.1584,1.1584,1.0563,0.7548,0.708,0.5891,0.2793,0.2436,0.2353,0.2217,0.2275,0.2267,0.2208,0.2202,0.2174,0.2114,0.211,0.1964,0.1645,0.1558,0.1399,0.1128,0.0732,0.0348,0.0032,0.0031,0.0031,0.0,0.0,0.0,0.0,0.0,0.0,0.0,0.0,0.0,0.0,0.0,0.0,0.0,0.0,0.0,-0.0202,-0.1512,-0.1981,-0.2249,-0.3691,-0.4191,-0.4456,-0.5871,-0.6276,-0.661,-0.8084,-0.8484,-0.8484,-0.859,-0.859,-0.859,-0.859,-0.859,-0.8649,-0.8849,-0.8845,-0.8896,-0.9209,-0.9065,-0.8919,-0.8919,-0.8924,-0.8843,-0.8633,-0.8732,-0.8759,-0.86,-0.859,-0.859,-0.859,-0.859,-0.8717,-0.905,-0.9084,-0.9383,-1.0093,-1.0127,-1.0293,-1.0651,-1.0677,-1.0677,-1.0677,-1.0677,-1.0568,-1.0315,-1.0301,-1.0195,-0.9984,-0.9977,-0.9927,0.9023,0.8516,0.838,0.936,0.9289,0.926,1.0345,1.0819,1.1076,1.1076,1.1179,1.1295,1.1314,1.1409,1.1151,1.0214,1.0108,0.9021,0.5895,0.5441,0.4624,0.2475,0.2226,0.2222,0.2212,0.2237,0.2232,0.2194,0.2193,0.2085,0.1781,0.1763,0.1607,0.1224,0.0998,0.0717,0.0408,0.025,0.0125,0.0,0.0,0.0,0.0,0.0,0.0,0.0,0.0,0.0,0.0,0.0,0.0,0.0,0.0,0.0,0.0,0.0,0.0,-0.0202,-0.1597,-0.2102,-0.2486,-0.4867,-0.5637,-0.5904,-0.7379,-0.7817,-0.7917,-0.8451,-0.859,-0.859,-0.859,-0.859,-0.859,-0.859,-0.859,-0.8633,-0.8802,-0.8861,-0.8899,-0.8954,-0.9019,-0.9011,-0.893,-0.8979,-0.8952,-0.8776,-0.8776,-0.8759,-0.86,-0.859,-0.8684,-0.8884,-0.8917,-0.9089,-0.9455,-0.9489,-0.9688,-1.016,-1.0193,-1.0359,-1.0684,-1.0684,-1.0684,-1.0684,-1.0684,-1.0637,-1.0561,-1.0466,-1.0385,-1.0331,-1.0236,-1.0114,0.8995,0.8078,0.7477,0.8588,0.8103,0.7719,0.9261,0.9876,1.0233,1.0685,1.0914,1.0906,1.0517,1.0505,1.0214,0.9307,0.8785,0.7567,0.4976,0.4577,0.3967,0.2406,0.2195,0.2191,0.2217,0.2111,0.2008,0.2008,0.1879,0.1711,0.1408,0.1393,0.1209,0.0834,0.0494,0.0216,0.0,0.0,0.0,0.0,0.0,0.0,0.0,0.0,0.0,0.0,0.0,0.0,0.0,0.0,0.0,0.0,0.0,-0.03,-0.0692,-0.0695,-0.1034,-0.1644,-0.3056,-0.353,-0.3928,-0.6339,-0.7145,-0.7312,-0.8318,-0.859,-0.859,-0.859,-0.859,-0.859,-0.859,-0.859,-0.859,-0.859,-0.859,-0.8611,-0.8727,-0.8774,-0.8795,-0.8834,-0.8924,-0.9,-0.8876,-0.8989,-0.9,-0.8787,-0.8776,-0.8793,-0.8767,-0.8751,-0.8917,-0.9256,-0.9289,-0.9455,-0.9827,-0.9861,-0.9994,-1.0359,-1.0359,-1.0459,-1.0684,-1.0684,-1.0684,-1.0684,-1.0684,-1.0684,-1.0684,-1.0616,-1.0541,-1.0487,-1.0392,-1.027,0.0,0.0,0.0,0.7354,0.6636,0.6257,0.7544,0.8154,0.8805,1.0148,1.053,1.0291,0.9188,0.8829,0.8795,0.8946,0.7757,0.6303,0.4736,0.4458,0.3874,0.2369,0.2198,0.2187,0.219,0.1896,0.1663,0.1585,0.1294,0.1079,0.1002,0.0966,0.0826,0.0494,0.0154,0.0,0.0,0.0,0.0,0.0,0.0,0.0,0.0,0.0,0.0,0.0,0.0,0.0,0.0,0.0,0.0,0.0,0.0,-0.0834,-0.2044,-0.2073,-0.3021,-0.4426,-0.5904,-0.6406,-0.664,-0.8117,-0.859,-0.859,-0.859,-0.859,-0.859,-0.859,-0.859,-0.859,-0.859,-0.859,-0.859,-0.859,-0.859,-0.8595,-0.8595,-0.8595,-0.8671,-0.887,-0.8924,-0.8892,-0.8841,-0.8981,-0.9014,-0.8688,-0.8738,-0.89,-0.9112,-0.9123,-0.9289,-0.9667,-0.9734,-0.9861,-1.0193,-1.0226,-1.0359,-1.0684,-1.0691,-1.0691,-1.0684,-1.0691,-1.0691,-1.0684,-1.0684,-1.0684,-1.0684,-1.0684,-1.0643,-1.05,-1.0493,-1.0419,0.7626,0.0,0.0,0.0,0.0,0.0,0.6071,0.6545,0.7062,0.8414,0.8911,0.8992,0.8573,0.7765,0.6804,0.5805,0.5414,0.4681,0.3088,0.2846,0.266,0.2172,0.1918,0.1751,0.1759,0.1469,0.1242,0.1245,0.116,0.098,0.0646,0.0411,0.0249,0.0154,0.0062,0.0,0.0,0.0,0.0,0.0,0.0,0.0,0.0,0.0,0.0,0.0,0.0,0.0,0.0,0.0,0.0,0.0,0.0,-0.0235,-0.0702,-0.1712,-0.2336,-0.298,-0.5519,-0.6365,-0.6584,-0.8092,-0.859,-0.859,-0.859,-0.859,-0.859,-0.859,-0.859,-0.859,-0.859,-0.859,-0.859,-0.859,-0.8688,-0.8754,-0.8754,-0.8791,-0.8838,-0.8903,-0.9054,-0.9193,-0.916,-0.9357,-0.9489,-0.9416,-0.9596,-0.975,-0.9811,-0.9721,-0.9829,-1.0166,-1.0117,-1.0193,-1.0518,-1.0558,-1.0585,-1.0684,-1.0792,-1.0799,-1.0691,-1.0792,-1.0799,-1.0691,-1.0684,-1.0684,-1.0684,-1.0684,-1.0664,-1.0656,-1.0541,-1.0527,0.6566,0.5031,0.379,0.4565,0.0,0.0,0.4576,0.4977,0.5621,0.7448,0.8019,0.8013,0.74,0.673,0.5606,0.367,0.3468,0.3251,0.2343,0.2065,0.1947,0.1882,0.1585,0.1384,0.1405,0.1078,0.0855,0.0833,0.0719,0.0547,0.0288,0.0094,0.0,0.0,0.0,0.0,0.0,0.0,0.0,0.0,0.0,0.0,0.0,0.0,0.0,0.0,0.0,0.0,0.0,0.0,0.0,-0.0067,-0.0638,-0.1239,-0.1966,-0.3383,-0.4273,-0.501,-0.6723,-0.7308,-0.7398,-0.8296,-0.859,-0.859,-0.859,-0.859,-0.859,-0.859,-0.859,-0.859,-0.859,-0.859,-0.859,-0.859,-0.8677,-0.8743,-0.8792,-0.8867,-0.8919,-0.8919,-0.9212,-0.9465,-0.9379,-0.9712,-0.9924,-0.9871,-1.0003,-1.0162,-1.0301,-1.0226,-1.0346,-1.0688,-1.065,-1.0705,-1.0907,-1.0907,-1.0907,-1.0907,-1.0989,-1.0934,-1.0786,-1.0928,-1.0934,-1.0786,-1.0873,-1.0873,-1.0779,-1.0718,-1.0684,-1.0684,-1.0629,-1.0636,0.5584,0.4309,0.3406,0.3392,0.2614,0.0,0.3169,0.3496,0.4262,0.0,0.7289,0.704,0.5898,0.5695,0.4913,0.2391,0.2045,0.2095,0.214,0.1837,0.1576,0.1539,0.1233,0.103,0.1025,0.0675,0.0453,0.0458,0.0162,0.0,0.0,0.0,0.0,0.0,0.0,0.0,0.0,0.0,0.0,0.0,0.0,0.0,0.0,0.0,0.0,0.0,0.0,-0.0094,-0.0225,-0.0227,-0.0228,-0.0363,-0.1604,-0.2996,-0.4443,-0.5874,-0.724,-0.8368,-0.8551,-0.8579,-0.8568,-0.8584,-0.859,-0.859,-0.859,-0.859,-0.859,-0.859,-0.859,-0.859,-0.859,-0.8595,-0.8606,-0.8606,-0.8628,-0.8677,-0.8819,-0.8905,-0.8957,-0.8957,-0.9325,-0.9612,-0.9497,-0.9924,-1.0242,-1.0154,-1.0171,-1.031,-1.0657,-1.0714,-1.0839,-1.1185,-1.1206,-1.12,-1.12,-1.12,-1.12,-1.12,-1.1213,-1.1124,-1.0948,-1.1111,-1.1118,-1.0941,-1.1097,-1.1097,-1.0934,-1.0786,-1.0704,-1.0684,-1.0684,-1.0684,0.4303,0.3082,0.2141,0.2146,0.2008,0.0,0.2096,0.2163,0.2645,0.4204,0.4638,0.4657,0.434,0.4431,0.3976,0.2272,0.205,0.2,0.1765,0.1658,0.1477,0.116,0.0829,0.0605,0.0614,0.0313,0.0095,0.0094,0.0031,0.0,0.0,0.0,0.0,0.0,0.0,0.0,0.0,0.0,0.0,0.0,0.0,0.0,0.0,0.0,0.0,0.0,0.0,-0.0606,-0.1618,-0.1676,-0.1658,-0.1648,-0.1972,-0.2931,-0.4314,-0.5841,-0.656,-0.6938,-0.8186,-0.853,-0.8465,-0.8557,-0.859,-0.859,-0.859,-0.859,-0.859,-0.859,-0.859,-0.859,-0.859,-0.8694,-0.877,-0.877,-0.8883,-0.9,-0.9022,-0.9155,-0.9237,-0.9237,-0.9289,-0.9372,-0.9344,-0.9684,-1.0084,-1.0382,-1.0632,-1.096,-1.1353,-1.1317,-1.1278,-1.1348,-1.1274,-1.12,-1.12,-1.12,-1.12,-1.12,-1.1315,-1.128,-1.1159,-1.1267,-1.1274,-1.1124,-1.1186,-1.1186,-1.1152,-1.0941,-1.0806,-1.0684,-1.0684,-1.0684,0.3024,0.2256,0.1789,0.1789,0.1829,0.0,0.0,0.1789,0.2163,0.3436,0.3756,0.3776,0.3752,0.3837,0.341,0.1954,0.1731,0.16,0.1115,0.1205,0.1161,0.0804,0.0463,0.0245,0.0239,0.0091,0.0,0.0,0.0,0.0,0.0,0.0,0.0,0.0,0.0,0.0,0.0,0.0,0.0,0.0,0.0,0.0,0.0,0.0,-0.037,-0.0988,-0.1003,-0.1734,-0.2965,-0.3055,-0.3471,-0.4071,-0.4195,-0.4645,-0.5417,-0.6927,-0.7479,-0.754,-0.833,-0.8552,-0.8513,-0.8568,-0.859,-0.859,-0.859,-0.859,-0.859,-0.859,-0.859,-0.859,-0.859,-0.8667,-0.871,-0.871,-0.8818,-0.897,-0.8995,-0.9275,-0.9523,-0.9579,-0.9771,-0.9915,-0.9915,-1.0203,-1.0606,-1.1002,-1.1181,-1.1368,-1.1584,-1.1552,-1.1504,-1.1504,-1.1436,-1.1389,-1.1389,-1.1389,-1.1389,-1.1389,-1.1463,-1.1436,-1.1315,-1.1423,-1.147,-1.1396,-1.1389,-1.1314,-1.12,-1.109,-1.0948,-1.0799,-1.0725,-1.0684,0.215,0.1817,0.1824,0.1809,0.1802,0.1823,0.0,0.0,0.0,0.3051,0.3249,0.3263,0.3262,0.3222,0.2791,0.1608,0.1371,0.1112,0.0559,0.0711,0.0769,0.0432,0.015,0.0,0.0,0.0,0.0,0.0,0.0,0.0,0.0,0.0,0.0,0.0,0.0,0.0,0.0,0.0,0.0,0.0,0.0,-0.0123,-0.037,-0.037,-0.1111,-0.2373,-0.238,-0.3109,-0.4298,-0.4438,-0.5266,-0.6485,-0.6432,-0.6564,-0.6922,-0.8146,-0.859,-0.859,-0.859,-0.859,-0.859,-0.859,-0.859,-0.859,-0.859,-0.859,-0.859,-0.859,-0.859,-0.859,-0.859,-0.8606,-0.8628,-0.8649,-0.8821,-0.901,-0.9062,-0.9483,-0.987,-1.0006,-1.0275,-1.0491,-1.0491,-1.0714,-1.1044,-1.144,-1.1476,-1.1512,-1.1584,-1.1584,-1.1584,-1.1584,-1.1584,-1.1584,-1.1584,-1.1584,-1.1584,-1.1584,-1.1584,-1.1565,-1.1443,-1.1552,-1.1584,-1.1584,-1.1584,-1.1497,-1.1288,-1.1254,-1.1104,-1.0867,-1.0745,-1.0684,0.2189,0.1895,0.1873,0.1824,0.1849,0.1865,0.1817,0.0,0.1828,0.1974,0.0,0.2001,0.2005,0.0,0.0,0.142,0.1197,0.0883,0.0477,0.051,0.0426,0.0092,0.003,0.0,0.0,0.0,0.0,0.0,0.0,0.0,0.0,0.0,0.0,0.0,0.0,0.0,0.0,0.0,0.0,0.0,0.0,-0.0617,-0.1788,-0.1788,-0.2464,-0.3694,-0.3683,-0.4428,-0.5686,-0.5815,-0.6665,-0.7791,-0.6802,-0.7128,-0.8219,-0.8485,-0.859,-0.859,-0.859,-0.859,-0.859,-0.859,-0.859,-0.859,-0.859,-0.859,-0.859,-0.859,-0.859,-0.859,-0.859,-0.8699,-0.8774,-0.8849,-0.9247,-0.9618,-0.9774,-1.0102,-1.0401,-1.0413,-1.0455,-1.0491,-1.0491,-1.0527,-1.0678,-1.1008,-1.108,-1.1188,-1.1548,-1.1584,-1.1584,-1.1584,-1.1584,-1.1584,-1.1584,-1.1584,-1.1584,-1.1584,-1.1584,-1.1577,-1.1592,-1.1577,-1.1584,-1.1584,-1.1584,-1.1599,-1.1565,-1.143,-1.1151,-1.0711,-1.0698,-1.0684,0.203,0.1895,0.1903,0.1865,0.1856,0.1844,0.1853,0.1831,0.1787,0.1792,0.0,0.0,0.0,0.0,0.0,0.0,0.1015,0.0753,0.0242,0.0178,0.0148,0.003,0.0,0.0,0.0,0.0,0.0,0.0,0.0,0.0,0.0,0.0,0.0,0.0,0.0,0.0,0.0,0.0,-0.0401,-0.1172,-0.1172,-0.1849,-0.311,-0.311,-0.3815,-0.5046,-0.505,-0.5877,-0.718,-0.7268,-0.7698,-0.8221,-0.7837,-0.7985,-0.8432,-0.8546,-0.859,-0.859,-0.859,-0.859,-0.859,-0.859,-0.859,-0.859,-0.859,-0.859,-0.859,-0.859,-0.8672,-0.871,-0.8606,-0.871,-0.8848,-0.9074,-0.9354,-0.9689,-1.0066,-1.0478,-1.0786,-1.0786,-1.0966,-1.1145,-1.1145,-1.093,-1.093,-1.1296,-1.1368,-1.1404,-1.1584,-1.1584,-1.1584,-1.1584,-1.1584,-1.1584,-1.1584,-1.1584,-1.1584,-1.1584,-1.1584,-1.1584,-1.1584,-1.1584,-1.1584,-1.1584,-1.1584,-1.1572,-1.1484,-1.1423,-1.1246,-1.0975,-1.0975,-1.0975,0.1898,0.1904,0.1914,0.1898,0.1868,0.1837,0.1872,0.1846,0.1824,0.1809,0.1801,0.0,0.0,0.0,0.0,0.0,0.0,0.0598,0.0061,0.0,0.0,0.0,0.0,0.0,0.0,0.0,0.0,0.0,0.0,0.0,0.0,0.0,0.0,0.0,0.0,-0.0182,-0.0555,-0.0555,-0.1203,-0.2527,-0.2527,-0.3202,-0.4459,-0.4459,-0.5168,-0.646,-0.646,-0.7054,-0.8039,-0.81,-0.8209,-0.8329,-0.8443,-0.8459,-0.8432,-0.8546,-0.859,-0.859,-0.859,-0.859,-0.859,-0.859,-0.859,-0.859,-0.859,-0.859,-0.8595,-0.8628,-0.8738,-0.8792,-0.8698,-0.8821,-0.9069,-0.9343,-0.9665,-0.9981,-1.0397,-1.0859,-1.1152,-1.1152,-1.1404,-1.1584,-1.1584,-1.1368,-1.126,-1.1548,-1.1584,-1.1584,-1.1584,-1.1584,-1.1584,-1.1584,-1.1584,-1.1584,-1.1584,-1.1584,-1.1584,-1.1584,-1.1584,-1.1584,-1.1584,-1.1584,-1.1584,-1.1584,-1.1584,-1.1545,-1.1389,-1.1389,-1.1349,-1.12,-1.12,-1.12,0.1899,0.1951,0.1967,0.1908,0.1899,0.1883,0.1826,0.1864,0.1874,0.1817,0.1864,0.1883,0.1884,0.0,0.0,0.0,0.0,0.0,0.0,0.0,0.0,0.0,0.0,0.0,0.0,0.0,0.0,0.0,0.0,0.0,0.0,0.0,0.0,0.0,0.0,-0.0638,-0.1911,-0.1942,-0.2587,-0.3845,-0.3845,-0.4551,-0.5843,-0.5843,-0.6582,-0.7841,-0.7841,-0.7872,-0.7908,-0.7913,-0.7984,-0.811,-0.8198,-0.8285,-0.8432,-0.8546,-0.859,-0.859,-0.859,-0.859,-0.859,-0.859,-0.859,-0.859,-0.859,-0.859,-0.8611,-0.8765,-0.8803,-0.883,-0.8876,-0.9186,-0.9533,-0.966,-1.0289,-1.0899,-1.0969,-1.1289,-1.1584,-1.1584,-1.1584,-1.1584,-1.1584,-1.1584,-1.1584,-1.1584,-1.1584,-1.1584,-1.1584,-1.1584,-1.1584,-1.1584,-1.1584,-1.1584,-1.1584,-1.1584,-1.1584,-1.1584,-1.1584,-1.1584,-1.1584,-1.1584,-1.1584,-1.1584,-1.1584,-1.1545,-1.1389,-1.1389,-1.1349,-1.12,-1.12,-1.12,0.1963,0.2011,0.2059,0.1996,0.1975,0.1951,0.188,0.1879,0.1907,0.1877,0.191,0.194,0.1919,0.0,0.0,0.0,0.0,0.0,0.0,0.0,0.0,0.0,0.0,0.0,0.0,0.0,0.0,0.0,0.0,0.0,0.0,0.0,0.0,0.0,-0.0856,-0.1554,-0.2003,-0.285,-0.3907,-0.523,-0.523,-0.5935,-0.7225,-0.7225,-0.7469,-0.7903,-0.7903,-0.7946,-0.8023,-0.8023,-0.8143,-0.8301,-0.8307,-0.8426,-0.8535,-0.8573,-0.859,-0.859,-0.859,-0.859,-0.859,-0.859,-0.859,-0.859,-0.859,-0.8677,-0.8748,-0.8792,-0.8889,-0.9038,-0.9237,-0.9462,-0.973,-1.0173,-1.062,-1.0985,-1.1209,-1.1438,-1.1584,-1.1584,-1.1584,-1.1584,-1.1584,-1.1584,-1.1584,-1.1584,-1.1584,-1.1584,-1.1584,-1.1584,-1.1584,-1.1584,-1.1584,-1.1584,-1.1584,-1.1584,-1.1584,-1.1584,-1.1584,-1.1584,-1.1584,-1.1584,-1.1584,-1.1584,-1.1584,-1.1592,-1.1545,-1.1545,-1.1518,-1.1463,-1.1463,-1.1409,0.2027,0.2041,0.2092,0.2039,0.202,0.2028,0.1956,0.1924,0.189,0.1761,0.1767,0.1762,0.1605,0.0,0.0,0.0,0.0,0.0,0.0,0.0,0.0,0.0,0.0,0.0,0.0,0.0,0.0,0.0,0.0,-0.02,-0.0617,-0.0644,-0.0849,-0.1332,-0.2193,-0.2882,-0.3396,-0.4193,-0.5291,-0.6613,-0.6613,-0.7072,-0.7903,-0.7903,-0.7903,-0.7903,-0.7903,-0.7946,-0.8023,-0.8066,-0.8203,-0.8323,-0.8367,-0.8486,-0.859,-0.859,-0.859,-0.859,-0.859,-0.859,-0.859,-0.859,-0.859,-0.859,-0.859,-0.8677,-0.8759,-0.8812,-0.8985,-0.9258,-0.9555,-0.9877,-1.0218,-1.0633,-1.0944,-1.1222,-1.1435,-1.1552,-1.1584,-1.1584,-1.1584,-1.1584,-1.1584,-1.1584,-1.1584,-1.1584,-1.1584,-1.1584,-1.1584,-1.1584,-1.1584,-1.1584,-1.1584,-1.1584,-1.1584,-1.1584,-1.1584,-1.1584,-1.1584,-1.1584,-1.1584,-1.1584,-1.1667,-1.1775,-1.1674,-1.1611,-1.1658,-1.1592,-1.1511,-1.1457,-1.1457,-1.1436]},{"header":{"parameterUnit":"m.s-1","parameterCategory":1,"la1":30.6,"la2":29.2853,"lo1":-89.7004,"lo2":-87.6739,"dy":0.0162,"dx":0.0183,"nx":112,"ny":82,"refTime":"2023-10-08T06:00:00:Z","depth":0,"parameterNumber":3,"parameterNumberName":"V-component_of_WINDS"},"data":[0.0,0.0,0.0,0.0,0.0,0.0,0.0,0.0,0.0,0.0,0.0,0.0,0.0,0.0,0.0,0.0,0.0,0.0,0.0,0.0,0.0,0.0,0.0,0.0,0.0,0.0,0.0,0.0,0.0,0.0,0.0,0.0,0.0,0.0,0.0,0.0,0.0,0.0,0.0,0.0,0.0,0.0,0.0,0.0,0.0,0.0,0.0,0.0,0.0,0.0,0.0,0.0,0.0,0.0,0.0,0.0,0.0,0.0,0.0,0.0,0.0,0.0,0.0,0.0,0.0,0.0,0.0,0.0,0.0,0.0,0.0,0.0,0.0,0.0,0.0,0.0,0.0,0.0,0.0,0.0,0.0,0.0,0.0,0.0,0.0,0.0,0.0,0.0,0.0,0.0,2.5697,2.9503,3.4596,3.7546,3.7116,3.6785,3.4579,2.9698,0.0,0.0,0.0,0.0,0.0,0.0,0.0,0.0,0.0,0.0,0.0,0.0,0.0,0.0,0.0,0.0,0.0,0.0,0.0,0.0,0.0,0.0,0.0,0.0,0.0,0.0,0.0,0.0,0.0,0.0,0.0,0.0,0.0,0.0,0.0,0.0,0.0,0.0,0.0,0.0,0.0,0.0,0.0,0.0,0.0,0.0,0.0,0.0,0.0,0.0,0.0,0.0,0.0,0.0,0.0,0.0,0.0,0.0,0.0,0.0,0.0,0.0,0.0,0.0,0.0,0.0,0.0,0.0,0.0,0.0,0.0,0.0,0.0,0.0,0.0,0.0,0.0,0.0,0.0,0.0,0.0,0.0,0.0,0.0,0.0,0.0,0.0,0.0,0.0,0.0,0.0,0.0,0.0,0.0,0.0,0.0,0.0,0.0,0.0,0.0,0.0,0.0,0.0,0.0,2.8305,3.39,3.6552,3.781,3.7369,3.4835,3.2126,2.9549,0.0,0.0,0.0,0.0,0.0,0.0,0.0,0.0,0.0,0.0,0.0,0.0,0.0,0.0,0.0,0.0,0.0,0.0,0.0,0.0,0.0,0.0,0.0,0.0,0.0,0.0,0.0,0.0,0.0,0.0,0.0,0.0,0.0,0.0,0.0,0.0,0.0,0.0,0.0,0.0,0.0,0.0,0.0,0.0,0.0,0.0,0.0,0.0,0.0,0.0,0.0,0.0,0.0,0.0,0.0,0.0,0.0,0.0,0.0,0.0,0.0,0.0,0.0,0.0,0.0,0.0,0.0,0.0,0.0,0.0,0.0,0.0,0.0,0.0,0.0,0.0,0.0,0.0,0.0,0.0,0.0,0.0,0.0,0.0,0.0,0.0,0.0,0.0,0.0,0.0,0.0,0.0,0.0,0.0,0.0,0.0,0.0,0.0,0.0,0.0,0.0,0.0,0.0,2.7164,3.0232,3.4372,3.6283,3.7301,3.7356,3.4379,3.181,3.014,2.8398,0.0,0.0,0.0,0.0,0.0,0.0,0.0,0.0,0.0,0.0,0.0,0.0,0.0,0.0,0.0,0.0,0.0,0.0,0.0,0.0,0.0,0.0,0.0,0.0,0.0,0.0,0.0,0.0,0.0,0.0,0.0,0.0,0.0,0.0,0.0,0.0,0.0,0.0,0.0,0.0,0.0,0.0,0.0,0.0,0.0,0.0,0.0,0.0,0.0,0.0,0.0,0.0,0.0,0.0,0.0,0.0,0.0,0.0,0.0,0.0,0.0,0.0,0.0,0.0,0.0,0.0,0.0,0.0,0.0,0.0,0.0,0.0,0.0,0.0,0.0,0.0,0.0,0.0,0.0,0.0,0.0,0.0,0.0,0.0,0.0,0.0,0.0,0.0,0.0,0.0,0.0,0.0,0.0,0.0,0.0,0.0,0.0,0.0,0.0,0.0,0.0,0.0,2.951,3.1476,3.4228,3.5821,3.6795,3.6994,3.4062,3.1658,3.0458,2.727,0.0,0.0,0.0,0.0,0.0,0.0,0.0,0.0,0.0,0.0,0.0,0.0,0.0,0.0,0.0,0.0,0.0,0.0,0.0,0.0,0.0,0.0,0.0,0.0,0.0,0.0,0.0,0.0,0.0,0.0,0.0,0.0,0.0,0.0,0.0,0.0,0.0,0.0,0.0,0.0,0.0,0.0,0.0,0.0,0.0,0.0,0.0,0.0,0.0,0.0,0.0,0.0,0.0,0.0,0.0,0.0,0.0,0.0,0.0,0.0,0.0,0.0,0.0,0.0,0.0,0.0,0.0,0.0,0.0,0.0,0.0,0.0,0.0,0.0,0.0,0.0,0.0,0.0,0.0,0.0,0.0,0.0,0.0,0.0,0.0,0.0,0.0,0.0,0.0,0.0,0.0,0.0,0.0,0.0,0.0,0.0,0.0,0.0,0.0,0.0,0.0,0.0,2.9919,3.1755,3.5049,3.6196,3.6569,3.6212,3.3164,3.084,2.9725,2.6478,0.0,0.0,0.0,0.0,0.0,0.0,0.0,0.0,0.0,0.0,0.0,0.0,0.0,0.0,0.0,0.0,0.0,0.0,0.0,0.0,0.0,0.0,0.0,0.0,0.0,0.0,0.0,0.0,0.0,0.0,0.0,0.0,0.0,0.0,0.0,0.0,0.0,0.0,0.0,0.0,0.0,0.0,0.0,0.0,0.0,0.0,0.0,0.0,0.0,0.0,0.0,0.0,0.0,0.0,0.0,0.0,0.0,0.0,0.0,0.0,0.0,0.0,0.0,0.0,0.0,0.0,0.0,0.0,0.0,0.0,0.0,0.0,0.0,0.0,0.0,0.0,0.0,0.0,0.0,0.0,0.0,0.0,0.0,0.0,0.0,0.0,0.0,0.0,0.0,0.0,0.0,0.0,0.0,0.0,0.0,0.0,0.0,0.0,0.0,0.0,0.0,0.0,2.9644,3.1132,3.2922,3.3862,3.4193,3.3807,3.1244,2.9384,2.8844,0.0,0.0,0.0,0.0,0.0,0.0,0.0,0.0,0.0,0.0,0.0,0.0,0.0,0.0,0.0,0.0,0.0,0.0,0.0,0.0,0.0,0.0,0.0,0.0,0.0,0.0,0.0,0.0,0.0,0.0,0.0,0.0,0.0,0.0,0.0,0.0,0.0,0.0,0.0,0.0,0.0,0.0,0.0,0.0,0.0,0.0,0.0,0.0,0.0,0.0,0.0,0.0,0.0,0.0,0.0,0.0,0.0,0.0,0.0,0.0,0.0,0.0,0.0,0.0,0.0,0.0,0.0,0.0,0.0,0.0,0.0,0.0,0.0,0.0,0.0,0.0,0.0,0.0,0.0,0.0,0.0,0.0,0.0,0.0,0.0,0.0,0.0,0.0,0.0,0.0,0.0,0.0,0.0,0.0,0.0,0.0,0.0,0.0,0.0,0.0,0.0,0.0,2.7972,2.9471,3.0747,3.1616,3.2403,3.2792,3.2475,3.0163,2.862,2.8479,0.0,0.0,0.0,0.0,0.0,0.0,0.0,0.0,0.0,0.0,0.0,0.0,0.0,0.0,0.0,0.0,0.0,0.0,0.0,0.0,0.0,0.0,0.0,0.0,0.0,0.0,0.0,0.0,0.0,0.0,0.0,0.0,0.0,0.0,0.0,0.0,0.0,0.0,0.0,0.0,0.0,0.0,0.0,0.0,0.0,0.0,0.0,0.0,0.0,0.0,0.0,0.0,0.0,0.0,0.0,0.0,0.0,0.0,0.0,0.0,0.0,0.0,0.0,0.0,0.0,0.0,0.0,0.0,0.0,0.0,0.0,0.0,0.0,0.0,0.0,0.0,0.0,0.0,0.0,0.0,0.0,0.0,0.0,0.0,0.0,0.0,0.0,0.0,0.0,0.0,0.0,0.0,0.0,0.0,0.0,0.0,0.0,0.0,0.0,0.0,0.0,0.0,2.8002,2.9515,3.0794,3.1586,3.2391,3.2794,3.2592,3.019,2.8707,0.0,0.0,0.0,0.0,0.0,0.0,0.0,0.0,0.0,0.0,0.0,0.0,0.0,0.0,0.0,0.0,0.0,0.0,0.0,0.0,0.0,0.0,0.0,0.0,0.0,0.0,0.0,0.0,0.0,0.0,0.0,0.0,0.0,0.0,0.0,0.0,0.0,0.0,0.0,0.0,0.0,0.0,0.0,0.0,0.0,0.0,0.0,0.0,0.0,0.0,0.0,0.0,0.0,0.0,0.0,0.0,0.0,0.0,0.0,0.0,0.0,0.0,0.0,0.0,0.0,0.0,0.0,0.0,0.0,0.0,0.0,0.0,0.0,0.0,0.0,0.0,0.0,0.0,0.0,0.0,0.0,0.0,0.0,0.0,0.0,0.0,0.0,0.0,0.0,0.0,0.0,0.0,0.0,0.0,0.0,0.0,0.0,0.0,0.0,0.0,0.0,0.0,0.0,2.8078,2.9519,3.0571,3.0778,3.1,3.1063,3.0842,2.8965,2.8099,2.8817,0.0,0.0,0.0,0.0,0.0,0.0,0.0,0.0,0.0,0.0,0.0,0.0,0.0,0.0,0.0,0.0,0.0,0.0,0.0,0.0,0.0,0.0,0.0,0.0,0.0,0.0,0.0,0.0,0.0,0.0,0.0,0.0,0.0,0.0,0.0,0.0,0.0,0.0,0.0,0.0,0.0,0.0,0.0,0.0,0.0,0.0,0.0,0.0,0.0,0.0,0.0,0.0,0.0,0.0,0.0,0.0,0.0,0.0,0.0,0.0,0.0,0.0,0.0,0.0,0.0,0.0,0.0,0.0,0.0,0.0,0.0,0.0,0.0,0.0,0.0,0.0,0.0,0.0,0.0,0.0,0.0,0.0,0.0,0.0,0.0,0.0,0.0,0.0,0.0,0.0,0.0,0.0,0.0,0.0,0.0,0.0,0.0,0.0,0.0,0.0,0.0,0.0,2.8557,2.9724,3.0463,3.0411,3.0701,3.0857,3.0739,2.9362,2.8741,2.9334,0.0,0.0,0.0,0.0,0.0,0.0,0.0,0.0,0.0,0.0,0.0,0.0,0.0,0.0,0.0,0.0,0.0,0.0,0.0,0.0,0.0,0.0,0.0,0.0,0.0,0.0,0.0,0.0,0.0,0.0,0.0,0.0,0.0,0.0,0.0,0.0,0.0,0.0,0.0,0.0,0.0,0.0,0.0,0.0,0.0,0.0,0.0,0.0,0.0,0.0,0.0,0.0,0.0,0.0,0.0,0.0,0.0,0.0,0.0,0.0,0.0,0.0,0.0,0.0,0.0,0.0,0.0,0.0,0.0,0.0,0.0,0.0,0.0,0.0,0.0,0.0,0.0,0.0,0.0,0.0,0.0,0.0,0.0,0.0,0.0,0.0,0.0,0.0,0.0,0.0,0.0,0.0,0.0,0.0,0.0,0.0,0.0,0.0,0.0,0.0,0.0,0.0,2.9314,3.0047,3.0471,3.04,3.1178,3.1695,3.1695,3.0832,3.0299,3.0244,0.0,0.0,0.0,0.0,0.0,0.0,0.0,0.0,0.0,0.0,0.0,0.0,0.0,0.0,0.0,0.0,0.0,0.0,0.0,0.0,0.0,0.0,0.0,0.0,0.0,0.0,0.0,0.0,0.0,0.0,0.0,0.0,0.0,0.0,0.0,0.0,0.0,0.0,0.0,0.0,0.0,0.0,0.0,0.0,0.0,0.0,0.0,0.0,0.0,0.0,0.0,0.0,0.0,0.0,0.0,0.0,0.0,0.0,0.0,0.0,2.8115,2.7663,0.0,0.0,0.0,0.0,0.0,0.0,0.0,0.0,0.0,0.0,0.0,0.0,0.0,0.0,0.0,0.0,0.0,0.0,0.0,0.0,0.0,0.0,0.0,0.0,0.0,0.0,0.0,0.0,0.0,0.0,0.0,0.0,0.0,0.0,0.0,0.0,0.0,0.0,0.0,0.0,2.9392,3.0047,3.0471,3.04,3.1178,3.1695,3.1695,3.1363,3.1217,3.1344,2.9386,0.0,0.0,0.0,0.0,0.0,0.0,0.0,0.0,0.0,0.0,0.0,0.0,0.0,0.0,0.0,0.0,0.0,0.0,0.0,0.0,0.0,0.0,0.0,0.0,0.0,0.0,0.0,0.0,0.0,0.0,0.0,0.0,0.0,0.0,0.0,0.0,0.0,0.0,0.0,0.0,0.0,0.0,0.0,0.0,0.0,0.0,0.0,0.0,0.0,0.0,0.0,0.0,0.0,0.0,0.0,0.0,0.0,0.0,0.0,3.1165,2.9361,0.0,0.0,0.0,0.0,0.0,0.0,0.0,0.0,0.0,0.0,0.0,0.0,0.0,0.0,0.0,0.0,0.0,0.0,0.0,0.0,0.0,0.0,0.0,0.0,0.0,0.0,0.0,0.0,0.0,0.0,0.0,0.0,0.0,0.0,0.0,0.0,0.0,0.0,0.0,0.0,3.0543,3.0925,3.1272,3.1642,3.246,3.2943,3.2943,3.2852,3.2625,3.2231,3.0504,0.0,0.0,0.0,0.0,0.0,0.0,0.0,0.0,0.0,0.0,0.0,0.0,0.0,0.0,0.0,0.0,0.0,0.0,0.0,0.0,0.0,0.0,0.0,0.0,0.0,0.0,0.0,0.0,0.0,0.0,0.0,0.0,0.0,0.0,0.0,0.0,0.0,0.0,0.0,0.0,0.0,0.0,0.0,0.0,0.0,0.0,0.0,0.0,0.0,0.0,0.0,0.0,0.0,3.7218,3.8526,4.0228,4.0338,4.0344,4.0025,3.5416,3.2565,3.1184,3.1216,0.0,0.0,0.0,0.0,0.0,0.0,0.0,0.0,0.0,0.0,0.0,0.0,0.0,0.0,0.0,0.0,0.0,0.0,0.0,0.0,0.0,0.0,3.2506,3.3369,3.4555,3.4384,3.0323,0.0,0.0,0.0,0.0,0.0,0.0,0.0,0.0,0.0,0.0,0.0,3.1794,3.2025,3.2305,3.304,3.382,3.4305,3.4305,3.4459,3.4108,3.3111,3.1607,3.0299,0.0,0.0,0.0,0.0,0.0,0.0,0.0,0.0,0.0,0.0,0.0,0.0,0.0,0.0,0.0,0.0,0.0,0.0,0.0,0.0,0.0,0.0,0.0,0.0,0.0,0.0,0.0,0.0,0.0,0.0,0.0,0.0,3.0907,3.0505,0.0,0.0,0.0,0.0,0.0,0.0,0.0,0.0,0.0,0.0,0.0,0.0,0.0,3.685,3.8403,3.9815,4.0219,3.9676,4.0442,4.0514,3.9986,4.0724,4.1043,4.107,4.1005,0.0,3.5437,3.4751,0.0,0.0,0.0,0.0,0.0,0.0,0.0,0.0,0.0,0.0,0.0,0.0,0.0,0.0,0.0,0.0,0.0,0.0,0.0,0.0,0.0,0.0,3.4917,3.5893,3.5793,3.5505,3.5621,3.4063,3.249,3.1782,3.1051,3.056,0.0,0.0,0.0,0.0,0.0,0.0,3.1885,3.2525,3.2962,3.3078,3.382,3.4305,3.4305,3.4999,3.5032,3.4165,3.3064,3.2157,3.1446,2.9647,0.0,0.0,0.0,0.0,0.0,0.0,0.0,0.0,0.0,0.0,0.0,0.0,0.0,0.0,0.0,0.0,0.0,0.0,0.0,0.0,0.0,0.0,0.0,0.0,0.0,0.0,0.0,0.0,0.0,3.1797,3.3027,3.2817,3.3016,3.321,0.0,0.0,0.0,0.0,0.0,0.0,0.0,0.0,0.0,3.8555,3.9449,4.0201,4.081,4.1945,4.2906,4.3734,4.4141,4.5039,4.6359,4.6385,4.662,4.7089,4.6964,4.5092,4.1901,3.9061,3.648,3.4152,0.0,0.0,0.0,0.0,3.2512,3.3221,3.4163,3.4432,3.4326,3.4237,0.0,0.0,0.0,0.0,0.0,0.0,0.0,3.3233,3.4114,3.5972,3.7882,3.923,3.9725,3.9715,3.9174,3.7846,3.6064,3.386,3.274,3.2041,3.1612,3.1096,0.0,0.0,0.0,3.2271,3.3235,3.3621,3.4027,3.4491,3.4864,3.509,3.509,3.5435,3.5281,3.4395,3.3877,3.3028,3.1805,3.0908,3.0215,0.0,0.0,0.0,0.0,0.0,0.0,0.0,0.0,0.0,0.0,0.0,0.0,0.0,0.0,0.0,0.0,0.0,0.0,0.0,0.0,0.0,0.0,0.0,0.0,0.0,0.0,0.0,0.0,3.3105,3.4565,3.417,3.4844,3.5041,0.0,0.0,0.0,0.0,0.0,0.0,3.8354,3.9133,4.0488,4.2515,4.3479,4.4119,4.4393,4.5205,4.6445,4.8127,4.8208,4.9472,5.17,5.1272,5.1404,5.194,5.1283,4.9795,4.7578,4.3257,3.9958,3.7567,3.6858,3.5845,3.4912,3.614,3.6726,3.716,3.8856,3.8947,3.8263,3.8017,3.7295,3.6076,3.3834,0.0,0.0,0.0,0.0,3.554,3.7213,3.8859,4.0498,4.2114,4.2925,4.3015,4.1973,4.076,3.8894,3.5718,3.4276,3.3405,3.2826,3.1953,0.0,3.2284,3.2496,3.3043,3.4298,3.4628,3.4971,3.5629,3.5706,3.5706,3.5706,3.5706,3.5436,3.4781,3.4414,3.3682,3.2441,3.1953,3.137,3.0608,0.0,0.0,0.0,0.0,0.0,0.0,0.0,0.0,0.0,0.0,0.0,0.0,0.0,0.0,0.0,0.0,0.0,0.0,0.0,0.0,0.0,0.0,0.0,0.0,0.0,0.0,0.0,0.0,0.0,3.3332,3.6338,0.0,0.0,0.0,0.0,3.6392,3.8635,4.0785,4.2417,4.2543,4.4059,4.7353,4.8491,4.9806,5.1376,5.2247,5.2748,5.2849,5.274,5.2644,5.2654,5.2809,5.2797,5.266,5.2584,5.2049,5.0846,4.6812,4.3641,4.1266,4.0373,4.0056,4.0127,4.0074,4.0668,4.1443,4.134,4.0814,4.0492,4.191,4.1381,3.9895,3.8176,3.7167,0.0,0.0,3.7192,3.8194,3.9946,4.1029,4.2131,4.4032,4.3859,4.3514,4.4249,4.2476,3.9963,3.7276,3.5446,3.4359,3.4363,0.0,3.3095,3.3138,3.3827,3.4376,3.4412,3.5129,3.5668,3.5706,3.5706,3.5706,3.5706,3.5706,3.5668,3.5629,3.4853,3.435,3.427,3.2607,3.1706,3.1702,3.0821,0.0,0.0,0.0,0.0,0.0,0.0,0.0,0.0,0.0,0.0,0.0,0.0,0.0,0.0,0.0,0.0,0.0,0.0,0.0,0.0,0.0,0.0,0.0,0.0,0.0,0.0,0.0,0.0,4.0799,4.2048,0.0,4.1016,4.1318,4.1531,4.1279,4.3576,4.5788,4.7657,4.8318,5.0028,5.2988,5.3433,5.3883,5.441,5.4033,5.381,5.3702,5.3082,5.3047,5.3449,5.3098,5.3283,5.3838,5.3256,5.257,5.1659,5.0226,4.7674,4.4595,4.3764,4.28,4.2034,4.3058,4.3689,4.4111,4.5109,4.5038,4.4253,4.3191,4.175,4.0304,3.9715,3.8969,3.8418,3.8958,3.9769,4.071,4.1916,4.2886,4.3902,4.5097,4.5146,4.4833,4.4636,4.3892,4.2634,4.0584,3.797,3.6088,3.6106,3.4903,3.4153,3.4708,3.4593,3.4623,3.517,3.5513,3.5706,3.5706,3.5706,3.5706,3.5706,3.5706,3.5706,3.5706,3.5397,3.4739,3.3612,3.2926,3.205,3.0906,3.0565,3.0257,0.0,0.0,0.0,0.0,0.0,0.0,0.0,0.0,0.0,0.0,0.0,0.0,0.0,0.0,0.0,0.0,0.0,0.0,0.0,0.0,0.0,0.0,0.0,0.0,0.0,4.1261,4.4102,4.5941,4.726,4.7729,4.698,4.7302,4.7466,4.7212,4.9239,5.1186,5.274,5.3142,5.4325,5.6412,5.6246,5.6076,5.6011,5.5103,5.4588,5.4511,5.3919,5.3881,5.4319,5.3934,5.4122,5.4721,5.4139,5.3262,5.223,5.2165,5.0363,4.7617,4.715,4.6298,4.5429,4.6633,4.707,4.7195,4.8084,4.8024,4.7314,4.5372,4.3981,4.2996,4.2441,4.1825,4.1401,4.174,4.2252,4.2925,4.3778,4.4516,4.5142,4.5687,4.5803,4.5649,4.5104,4.4791,4.4249,4.3092,4.0408,3.8171,3.789,3.664,3.5898,3.6498,3.6084,3.5916,3.65,3.6314,3.6091,3.6091,3.5861,3.5706,3.5706,3.57,3.5705,3.5709,3.5702,3.517,3.4027,3.37,3.2988,3.1818,3.1782,3.1785,3.1785,0.0,0.0,0.0,0.0,0.0,0.0,0.0,0.0,0.0,0.0,0.0,0.0,0.0,0.0,0.0,0.0,0.0,0.0,0.0,0.0,0.0,0.0,0.0,3.9524,4.4206,4.7853,4.8067,5.1489,5.293,5.0615,5.3186,5.4693,5.3897,5.5375,5.6671,5.7437,5.6755,5.6679,5.7445,5.6833,5.6494,5.6456,5.5842,5.5511,5.5511,5.5505,5.537,5.519,5.5382,5.537,5.519,5.519,5.4281,5.2705,5.2517,5.1563,5.025,5.0353,5.0418,5.0406,5.064,5.0696,5.0604,4.9969,4.9623,4.9341,4.8659,4.843,4.8121,4.6464,4.5923,4.5726,4.4945,4.4713,4.4907,4.5687,4.5881,4.5884,4.5845,4.5845,4.5845,4.581,4.5188,4.4639,4.4604,4.2596,4.0626,3.9733,3.8876,3.8335,3.8337,3.8296,0.0,3.83,3.7482,3.6942,3.6944,3.6254,3.5751,3.5753,3.5727,3.5741,3.5717,3.5688,3.5679,3.5672,3.485,3.4446,3.4499,3.4507,3.4511,3.455,0.0,0.0,0.0,0.0,0.0,0.0,0.0,0.0,0.0,0.0,0.0,0.0,0.0,0.0,0.0,0.0,0.0,0.0,0.0,0.0,0.0,4.4433,4.7231,4.6226,4.9531,5.2717,5.4544,5.6262,5.7066,5.6391,5.7149,5.7581,5.7354,5.8301,5.9025,5.9398,5.9215,5.899,5.8767,5.8597,5.8215,5.7576,5.6677,5.6243,5.6199,5.5421,5.5035,5.4978,5.5042,5.5127,5.519,5.519,5.4586,5.355,5.3529,5.2545,5.1033,5.0477,5.0313,5.0429,5.0476,5.0567,5.0681,5.0587,5.053,5.0351,4.9575,4.9359,4.9126,4.8043,4.7699,4.7657,4.7424,4.7347,4.7424,4.7618,4.7695,4.7555,4.6952,4.677,4.6605,4.6049,4.572,4.535,4.4774,4.4128,4.3114,4.1593,4.1119,4.0551,3.9354,3.9137,3.8929,3.8305,3.8006,3.7865,3.7916,3.7734,3.7359,3.6771,3.6717,3.6431,3.5821,3.5763,3.5499,3.487,3.4587,3.4479,3.4507,3.4509,3.4822,0.0,0.0,0.0,0.0,0.0,0.0,0.0,0.0,0.0,0.0,0.0,0.0,0.0,0.0,0.0,0.0,0.0,0.0,0.0,0.0,0.0,0.0,4.8922,5.234,5.3297,5.5093,5.7081,5.9241,6.0226,6.0909,6.125,6.1288,6.1288,6.1288,6.1401,6.1506,6.162,6.1286,6.0624,5.9588,5.955,5.8793,5.7242,5.6654,5.6202,5.5822,5.5214,5.492,5.492,5.492,5.4956,5.5085,5.5085,5.4597,5.3836,5.3836,5.284,5.1287,0.0,0.0,0.0,0.0,5.0625,5.0799,5.0874,5.0898,5.0821,5.036,5.0206,5.0059,4.9244,4.8984,4.8914,4.8599,4.8493,4.8493,4.8493,4.8493,4.8387,4.7881,4.7746,4.7624,4.7193,4.6754,4.6349,4.5877,4.5506,0.0,4.3379,4.2846,4.2157,4.0878,4.0656,4.0333,3.9481,3.9022,3.8787,3.8853,3.8549,3.8134,3.7693,3.7332,0.0,0.0,0.0,3.5581,3.5082,3.5076,0.0,0.0,0.0,3.5878,3.6384,3.6735,0.0,0.0,3.6237,3.5897,0.0,0.0,0.0,0.0,0.0,0.0,0.0,0.0,0.0,0.0,0.0,0.0,0.0,0.0,0.0,0.0,5.3306,5.6702,5.9856,6.05,6.1136,6.253,6.3402,6.4197,6.4955,6.504,6.5002,6.4926,6.4159,6.3705,6.3629,6.2909,0.0,0.0,0.0,5.8832,5.636,5.633,5.583,5.492,5.492,5.492,5.492,5.492,5.492,5.492,5.492,5.4503,5.3859,5.3859,5.2836,5.1347,5.1288,5.0912,5.0406,5.0645,5.0795,5.0914,5.0914,0.0,0.0,5.0929,5.0929,5.0786,5.0163,4.9951,4.9808,4.9096,4.888,4.888,4.888,4.888,4.8844,4.8774,4.873,4.873,4.8627,4.8002,4.7414,4.7341,4.6675,4.5896,4.5004,4.422,4.341,4.2562,4.2361,4.2066,4.1245,4.0301,3.9751,3.9762,3.9108,0.0,3.8574,3.7891,3.7389,3.7121,3.6364,3.5864,3.5793,3.5859,3.5955,3.6044,3.6811,3.7253,3.7331,3.8111,3.8501,3.8462,3.692,3.618,0.0,0.0,0.0,0.0,0.0,0.0,0.0,0.0,0.0,0.0,0.0,0.0,0.0,0.0,0.0,5.2747,5.7049,6.0605,6.2606,6.4046,6.4775,6.4471,6.5145,6.5675,6.5865,6.5874,6.5609,6.4964,6.4737,6.4349,6.3629,6.3439,6.2606,6.0917,6.0879,5.9666,5.7194,5.7156,5.6398,5.492,5.492,0.0,5.492,5.492,5.492,5.492,5.492,5.4806,5.4655,5.4655,5.3706,5.2144,5.0894,5.0421,5.0406,5.0645,5.0833,5.0995,5.0995,5.1037,5.1043,5.1043,5.1043,5.1046,5.0906,5.0832,0.0,5.0655,5.0619,5.0619,5.0619,5.0619,5.0437,4.9783,4.9648,4.9484,4.8905,4.8582,4.8255,4.7591,4.7296,4.6854,4.6033,4.5699,4.4986,4.35,4.3253,4.2935,4.2062,4.1193,4.0667,4.0733,4.0584,4.0245,3.957,3.9386,3.8676,3.7275,3.639,3.5885,3.5872,3.5883,3.6238,3.6932,3.7094,3.7564,3.8266,3.8432,3.8515,3.8476,3.8149,3.7989,0.0,0.0,0.0,0.0,0.0,0.0,0.0,0.0,0.0,0.0,0.0,4.4215,4.5867,0.0,5.3124,5.6433,6.0163,6.3087,6.4332,6.5784,6.6442,6.5609,6.5865,6.6092,6.6092,6.5751,6.5145,6.4311,6.4235,6.3894,6.3023,6.2985,6.2235,6.0538,6.0958,5.9996,5.7484,5.7491,5.7089,5.6253,5.5417,5.5227,5.5645,5.5189,5.5,5.5,5.5,5.5,5.4962,5.4582,5.3926,5.3055,5.1415,5.0679,5.0538,5.0819,5.0956,5.1034,5.1034,5.1056,5.1083,5.1083,5.1083,5.1127,5.1159,5.1167,5.1172,5.1201,5.1208,5.1208,5.1208,5.1208,5.1099,5.0696,5.0607,5.0488,5.0141,4.9668,4.9231,4.8822,4.8382,4.7987,4.7577,4.7081,4.6156,4.4446,4.421,4.3741,4.2416,4.1871,4.1457,4.1104,4.1031,4.0881,4.0468,4.0041,3.9256,3.7915,3.7448,3.7214,3.7214,3.6785,3.6746,3.7175,3.6753,3.6757,3.7184,3.7236,3.7216,3.7196,3.7192,3.7413,0.0,0.0,0.0,0.0,0.0,0.0,0.0,4.0642,4.2693,4.4933,4.6682,4.8632,5.1403,5.4118,5.6945,6.0051,6.295,6.5053,6.5703,6.6702,6.7125,6.6442,6.6367,6.6206,6.5903,6.5259,6.4463,6.3439,6.3364,6.3098,6.2416,6.2416,6.1772,6.0416,6.1134,6.0369,5.7977,5.8,5.7885,5.7543,5.6036,5.5701,5.6354,5.5493,5.512,5.512,5.512,5.512,5.5043,5.4396,5.4067,5.3776,5.2457,5.1502,5.0885,5.0984,5.1053,5.11,5.11,5.1147,5.1159,5.1159,5.1159,5.1167,5.1211,5.1225,5.1232,5.1271,5.132,5.132,5.132,5.132,5.132,5.132,5.132,5.132,5.132,5.0735,5.019,5.0034,4.9488,4.8982,4.8826,4.8087,4.7035,4.5632,4.5127,4.4385,4.2979,4.2666,4.2237,4.1421,4.1343,4.1265,4.1109,4.0291,3.9511,3.8811,3.8578,3.85,3.85,3.7837,3.7371,3.7218,3.6527,3.6067,3.5913,3.5972,3.5955,3.5894,3.5897,3.6282,3.5168,3.5124,3.6282,3.8246,3.9467,4.1805,0.0,4.927,4.9448,5.1179,5.2801,5.4161,5.4931,5.7989,6.1129,6.3341,6.5577,6.706,6.7174,6.7324,6.7352,6.7276,6.7238,6.667,6.5192,6.4964,6.4235,6.2644,6.253,6.2492,6.2416,6.2416,6.2303,6.2113,6.2235,6.141,5.9644,5.9652,5.8894,5.7415,5.658,5.623,5.6275,5.5465,5.512,5.512,5.512,5.512,5.5082,5.5005,5.4583,5.397,5.3925,5.3074,5.1832,5.0979,5.0896,5.1201,5.1201,5.123,5.1265,5.1265,5.1265,5.1267,5.1271,5.1273,5.1273,5.1318,5.132,5.132,5.132,5.132,5.132,5.132,5.132,5.132,5.132,5.1203,5.093,5.0151,4.9917,4.9644,4.8904,4.8087,4.7425,4.723,4.5905,4.4816,4.4619,4.3914,4.3133,4.2276,4.2159,4.1887,4.1148,4.0291,3.9745,3.9667,3.8927,3.85,3.85,3.8422,3.7999,3.7231,3.7116,3.6694,3.6003,3.5925,3.5896,3.5897,3.5893,3.5967,3.984,3.9659,4.0274,4.1769,4.4114,4.712,5.1104,5.2444,5.3603,5.6138,5.79,5.9325,6.0322,6.2129,6.3901,6.5122,6.6284,6.7051,6.7118,6.6924,6.6251,6.4799,6.5036,6.5229,6.4935,6.4008,6.2947,6.1743,6.1717,6.1552,6.102,6.1023,6.1047,6.1047,6.1132,6.0859,6.0144,5.9657,5.9337,5.9123,5.7322,5.6726,5.7184,5.5877,5.5273,5.5273,5.5273,5.5273,5.5273,5.5273,5.5123,5.4821,5.3778,5.3229,5.2852,5.1911,5.1453,5.1252,5.1252,5.1265,5.132,5.132,5.132,5.132,5.132,5.132,5.132,5.132,5.132,5.132,5.132,5.132,5.132,5.132,5.132,5.132,5.132,5.132,5.1203,5.0813,5.0774,5.0657,5.0307,4.9527,4.8787,4.8321,4.6762,4.5477,4.4972,4.458,4.4033,4.3133,4.3056,4.2939,4.2588,4.2237,4.201,4.2022,4.1242,4.0778,4.0788,3.9812,3.9073,3.8728,3.8214,3.7798,3.745,3.7421,3.7408,3.7352,3.7331,3.7349,4.2411,4.3063,4.4196,4.5427,4.876,5.2202,5.4037,5.5703,5.761,6.0375,6.1666,6.2654,6.3769,6.4573,6.5273,6.5836,6.6538,6.6966,6.6806,6.5933,6.4603,6.2503,6.2016,6.2091,6.2834,6.2408,6.1771,6.0907,6.0925,6.0691,6.0045,6.0061,6.0091,6.0091,6.0189,6.0257,6.0257,5.966,5.9695,6.0275,5.8234,5.7477,5.7783,5.6193,5.5471,5.5477,5.5505,5.5535,5.5535,5.5261,5.5369,5.5507,5.3925,5.3565,5.3838,5.298,5.2088,5.132,5.132,5.132,5.132,5.132,5.132,5.132,5.132,5.132,5.132,5.132,5.132,5.132,5.132,5.132,5.132,5.132,5.132,5.132,5.132,5.132,5.132,5.132,5.132,5.132,5.132,5.0579,4.98,4.9216,4.7854,4.6529,4.5399,4.505,4.4658,4.4031,4.3757,4.3603,4.3609,4.3611,4.3619,4.3639,4.3092,4.2667,4.2404,4.1403,4.0507,3.9795,3.941,3.8945,3.8515,3.8496,3.8454,3.8413,3.8397,3.84,4.0591,4.3416,4.6975,4.934,5.289,5.6428,5.8854,6.0616,6.2245,6.3889,6.3685,6.3321,6.3791,6.4397,6.4966,6.5427,6.67,6.7296,6.6535,6.4291,6.2389,6.156,5.8592,5.6956,5.7748,6.0007,6.1073,6.0205,6.0129,6.0129,6.0091,6.0091,6.0091,6.0091,6.0099,6.0099,6.0099,6.0099,6.0061,6.0099,5.9304,5.8501,5.7676,5.6249,5.5577,5.5588,5.5793,5.5874,5.5836,5.4976,5.5135,5.5801,5.4899,5.4665,5.4734,5.3877,5.2593,5.132,5.132,5.132,5.132,5.132,5.132,5.132,5.132,5.132,5.132,5.132,5.132,5.132,5.132,5.132,5.132,5.132,5.132,5.132,5.132,5.132,5.132,5.132,5.132,5.132,5.132,5.0579,4.9995,4.9956,4.9255,4.8087,4.6373,4.5438,4.4894,4.4855,4.4109,4.3609,4.3592,4.3593,4.3639,4.3694,4.3655,4.3264,4.2443,4.3108,4.2332,3.9847,4.0546,4.0108,3.8515,3.843,3.8416,3.8413,3.8387,3.8389,4.4285,4.7446,5.0499,5.3941,5.7007,5.9977,6.2911,6.3599,6.3744,6.4287,6.2698,6.1214,6.1186,6.115,6.1723,6.3415,6.4565,6.5334,6.5703,6.4024,6.1651,5.8568,5.7728,5.6851,5.5439,5.7478,5.898,5.9299,5.9877,6.025,6.025,6.0263,6.0299,6.0299,6.0299,6.0299,6.0299,6.0299,6.0299,6.0299,5.8908,5.7564,5.6281,5.5808,5.5666,5.5798,5.5861,5.5892,5.5892,5.5578,5.5726,5.6012,5.4974,5.4435,5.4105,5.3174,5.2518,5.2097,5.1515,5.132,5.132,5.132,5.132,5.1398,5.198,5.2175,5.2175,5.2175,5.2565,5.2877,5.2292,5.2604,5.2877,5.2292,5.2175,5.198,5.1435,5.132,5.132,5.132,5.132,5.132,5.132,5.1047,5.0661,5.0167,4.8835,4.7737,4.7152,4.6812,4.6391,4.5806,4.6009,4.594,4.5362,4.5323,4.5369,4.5421,4.4875,4.4448,4.4143,4.3844,4.3261,4.2393,4.2109,4.1639,4.1094,4.0448,4.0113,4.0112,4.0135,4.014,4.8558,5.1792,5.4738,5.842,6.0955,6.2983,6.4758,6.4801,6.4182,6.3107,6.1028,5.9127,5.819,5.751,5.783,5.9967,6.0646,6.1451,6.2961,6.1478,5.9453,5.732,5.674,5.6129,5.5097,5.6646,5.8078,5.8923,5.9812,6.033,6.033,6.0387,6.0415,6.0415,6.0415,6.0415,6.0415,6.0415,6.0415,6.0377,5.8751,5.7471,5.6478,5.602,5.5883,5.6029,5.6089,5.6111,5.6072,5.5797,5.5893,5.62,5.5223,5.4824,5.4704,5.3745,5.3448,5.3344,5.2175,5.1747,5.1747,5.1747,5.1747,5.1863,5.2448,5.2838,5.3071,5.3071,5.3461,5.3773,5.3227,5.3461,5.3773,5.3188,5.3071,5.2838,5.1941,5.1747,5.1669,5.1359,5.132,5.1283,5.129,5.1337,5.1149,5.0654,4.9361,4.8303,4.7991,4.7962,4.7617,4.6758,4.7156,4.7163,4.6311,4.6234,4.6239,4.629,4.5783,4.5316,4.5011,4.475,4.4321,4.3724,4.3437,4.3163,4.2851,4.1903,4.1461,4.146,4.1139,4.0992,5.3059,5.6247,5.9398,6.2526,6.4432,6.5337,6.4519,6.4327,6.3466,6.0518,5.8642,5.6877,5.4805,5.3619,5.3572,5.5424,5.5596,5.639,5.8873,5.7192,5.6243,5.7734,5.5785,5.4906,5.6441,5.7396,5.823,5.9026,5.9911,6.0415,6.0415,6.0415,6.0415,6.0415,6.0415,6.0415,6.0415,6.0415,6.0377,6.0262,5.8793,5.8077,5.8,5.6761,5.621,5.6272,5.6427,5.6507,5.6429,5.5606,5.5762,5.6427,5.5606,5.5723,5.6349,5.5487,5.5214,5.4942,5.3305,5.2682,5.2682,5.2682,5.2682,5.2682,5.2721,5.3305,5.3968,5.3968,5.4007,5.4007,5.3968,5.4007,5.4007,5.3968,5.3968,5.3734,5.2801,5.2606,5.2333,5.1478,5.1322,5.1329,5.131,5.1366,5.1415,5.1415,5.0714,4.9856,4.8998,4.8882,4.853,4.767,4.7592,4.7287,4.6441,4.6364,4.6368,4.63,4.6301,4.5948,4.5089,4.5816,4.5466,4.3842,4.453,4.4523,4.375,4.2766,4.2325,4.2283,4.1418,4.0995,5.6174,5.9542,6.2454,6.4468,6.483,6.4533,6.3819,6.1841,5.933,5.6483,5.343,5.0833,4.9256,4.9604,5.1123,5.4063,5.6063,5.8116,6.0599,6.0408,5.9491,5.8077,5.7313,5.6855,5.6632,5.7396,5.823,5.9026,5.9911,6.0415,6.0415,6.0415,6.0415,6.0415,6.0415,6.0415,6.0415,6.0415,5.9765,5.8543,5.815,5.7778,5.7384,5.6424,5.6481,5.7286,5.673,5.6507,5.6468,5.6271,5.631,5.6468,5.6271,5.5918,5.5487,5.5292,5.5214,5.5137,5.4708,5.4123,5.3578,5.3578,5.3578,5.3695,5.4357,5.4708,5.4864,5.4864,5.5333,5.5686,5.5059,5.5333,5.5686,5.502,5.4864,5.4439,5.2937,5.259,5.2359,5.1515,5.1362,5.1364,5.1369,5.1383,5.1392,5.1392,5.1205,5.0736,4.9897,4.9786,4.944,4.8544,4.9058,4.8868,4.7388,4.7271,4.7,4.6339,4.6301,4.6184,4.5987,4.6152,4.6075,4.5637,4.5183,4.4873,4.4671,4.3115,4.2381,4.2342,4.1424,4.0996,6.005,6.2875,6.4903,6.5446,6.5018,6.3819,6.1356,5.9004,5.6145,5.1865,4.9504,4.7685,4.5994,4.6628,4.8416,5.1435,5.3416,5.5708,5.8956,5.9415,5.9453,5.9491,5.9224,5.9078,5.9338,5.9797,6.0293,6.0745,6.0523,6.0415,6.0415,6.0415,6.0415,6.0415,6.0415,6.0415,6.0415,6.0415,5.9918,5.9001,5.9076,5.9044,5.8849,5.7675,5.7531,5.8219,5.7011,5.6507,5.6546,5.6894,5.6816,5.6546,5.6894,5.6505,5.5762,5.5762,5.5762,5.5762,5.5762,5.5457,5.4993,5.4593,5.4474,5.4552,5.5059,5.5455,5.5775,5.5775,5.6133,5.6375,5.5905,5.6141,5.6375,5.5905,5.5788,5.5402,5.4011,5.374,5.3509,5.266,5.2512,5.2439,5.2048,5.1983,5.1835,5.1445,5.141,5.1215,5.0733,5.0658,5.0351,4.9453,4.9808,4.9577,4.8251,4.8134,4.7782,4.6924,4.6885,4.669,4.634,4.6301,4.6301,4.6301,4.5831,4.5565,4.5538,4.4171,4.3319,4.2885,4.1999,4.1376,6.3852,6.575,6.6634,6.5837,6.4885,6.2926,5.8237,5.5962,5.3191,4.7372,4.6488,4.6133,4.4183,4.4743,4.6353,4.9142,5.0174,5.2155,5.6479,5.7014,5.8084,6.1249,6.0981,6.1172,6.2732,6.2999,6.2999,6.2923,6.1669,6.0835,6.0759,6.0721,6.0683,6.0568,6.0568,6.0492,6.0415,6.0415,6.0415,6.0384,6.0603,6.0856,6.1123,5.9584,5.9036,5.9232,5.7557,5.6819,5.6896,5.7596,5.744,5.6896,5.7596,5.7362,5.6663,5.6663,5.6585,5.6507,5.6509,5.648,5.6373,5.5615,5.5377,5.5379,5.5379,5.5898,5.6498,5.6498,5.6509,5.6483,5.6483,5.6483,5.6483,5.6483,5.6483,5.6249,5.5394,5.5124,5.4814,5.4074,5.3968,5.3702,5.2844,5.2697,5.2391,5.1531,5.1414,5.1414,5.1414,5.1414,5.1101,5.0358,5.028,4.9929,4.9032,4.8954,4.8642,4.7821,4.7665,4.7275,4.6495,4.6379,4.6301,4.6301,4.6305,4.624,4.6211,4.5312,4.4525,4.3754,4.2773,4.1882,6.57,6.6656,6.6758,6.5981,6.3753,6.0794,5.694,5.2806,4.8693,4.4835,4.4128,4.3988,4.3169,4.4819,4.757,5.1511,5.2276,5.411,5.9039,5.9109,5.9408,6.1363,6.1478,6.1784,6.2808,6.3541,6.3694,6.2961,6.3312,6.3243,6.251,6.2464,6.2128,6.1402,6.1402,6.1058,6.0415,6.0415,6.0415,6.0384,6.0602,6.1197,6.2022,6.0495,6.0296,6.1062,5.931,5.857,5.857,5.8726,5.8687,5.857,5.8726,5.8258,5.7479,5.7479,5.705,5.6509,5.6484,5.649,5.6492,5.6332,5.6266,5.6278,5.6278,5.6399,5.6517,5.6517,5.648,5.6483,5.6483,5.6483,5.6483,5.6483,5.6483,5.6252,5.537,5.4679,5.4179,5.4023,5.3986,5.3714,5.2856,5.2702,5.2391,5.1531,5.1414,5.1414,5.1414,5.1414,5.1336,5.118,5.118,5.0827,4.9968,4.985,4.95,4.8642,4.7978,4.7548,4.7392,4.669,4.6301,4.6301,4.6244,4.621,4.6211,4.5342,4.4804,4.4559,4.3025,4.2206,6.6468,6.731,6.733,6.57,6.2662,5.8811,5.4121,4.9899,4.5892,4.2164,4.2369,4.3123,4.285,4.4819,4.7455,5.0403,5.1244,5.311,5.7778,5.8039,5.8918,6.1929,6.2662,6.3274,6.4114,6.4993,6.5146,6.4267,6.4573,6.4267,6.2961,6.2464,6.2051,6.1593,6.1593,6.1402,6.1019,6.1019,6.1096,6.1205,6.1733,6.238,6.3063,6.2319,6.2315,6.2776,6.0633,5.97,5.97,5.97,5.9427,5.9038,5.9518,5.9133,5.8394,5.8404,5.8174,5.7786,5.7328,5.718,5.7109,5.6641,5.6483,5.6483,5.6483,5.649,5.6496,5.6496,5.6541,5.6548,5.6548,5.6548,5.6548,5.6548,5.6548,5.6432,5.601,5.5626,5.5356,5.5356,5.5356,5.5083,5.4187,5.403,5.3601,5.2274,5.2078,5.1921,5.1453,5.1414,5.1414,5.1414,5.1414,5.1219,5.0827,5.0788,5.0398,4.9539,4.868,4.8056,4.7626,4.6745,4.6244,4.6244,4.621,4.6198,4.6142,4.5727,4.5253,4.4788,4.3955,4.3301,6.6808,6.7628,6.7631,6.5172,6.154,5.7088,5.1647,4.7599,4.3976,4.0315,4.1157,4.2565,4.2756,4.4546,4.6729,4.8989,4.9748,5.162,5.625,5.6708,5.8154,6.2388,6.3656,6.458,6.5566,6.6445,6.6598,6.5757,6.549,6.484,6.3496,6.2777,6.2357,6.2166,6.1975,6.1784,6.1593,6.1593,6.1777,6.2192,6.311,6.3825,6.434,6.421,6.4127,6.3984,6.1807,6.0759,6.0564,6.0569,6.0183,5.964,6.0317,6.0052,5.9313,5.9366,5.9254,5.8981,5.8323,5.81,5.7954,5.7292,5.6817,5.6533,5.6533,5.6503,5.6511,5.6511,5.6559,5.6605,5.6605,5.6722,5.6917,5.7073,5.7151,5.7151,5.7151,5.6995,5.6879,5.6879,5.6722,5.6255,5.5202,5.5006,5.4421,5.2664,5.243,5.2157,5.1492,5.1414,5.1414,5.1414,5.1414,5.1414,5.1414,5.1414,5.1022,5.0163,4.9469,4.8615,4.7638,4.6874,4.6366,4.6209,4.619,4.6149,4.6095,4.6076,4.5717,4.5046,4.4788,4.435,6.6935,6.7381,6.698,6.4516,6.0433,5.5776,5.1109,4.656,4.2669,4.032,4.0807,4.1843,4.2641,4.3591,4.554,4.9557,4.9639,5.1206,5.6969,5.7091,5.8154,6.2388,6.3656,6.4848,6.6437,6.7324,6.7439,6.6636,6.5834,6.5337,6.5184,6.5108,6.4726,6.3969,6.3197,6.2395,6.1593,6.1593,6.209,6.3095,6.4138,6.5164,6.6124,6.5516,6.4831,6.4062,6.307,6.2221,6.1484,6.1465,6.1435,6.1357,6.1437,6.0971,6.027,6.027,5.9763,5.91,5.8999,5.8966,5.8969,5.8902,5.7813,5.6602,5.6602,5.6603,5.6604,5.6604,5.6604,5.6605,5.6605,5.7153,5.7894,5.8674,5.8869,5.8869,5.8869,5.8246,5.7699,5.7699,5.7113,5.6058,5.442,5.4108,5.3522,5.1765,5.1531,5.1492,5.1414,5.1414,5.1414,5.1414,5.1414,5.1414,5.1414,5.1414,5.1022,5.0163,5.0033,4.9257,4.7578,4.7374,4.6968,4.6227,4.6143,4.6098,4.6111,4.6027,4.5958,4.5762,4.5058,4.4667,6.5971,6.7447,6.7643,6.471,5.9649,5.4401,5.0786,4.566,4.1305,4.0127,4.1165,4.2374,4.2756,4.3902,4.5507,4.7646,4.7723,4.906,5.3492,5.3798,5.5708,6.144,6.2892,6.4458,6.7171,6.8203,6.8126,6.6781,6.6361,6.5948,6.5413,6.4955,6.4542,6.4198,6.3854,6.351,6.3166,6.3273,6.3609,6.4155,6.4733,6.5276,6.5851,6.6091,6.6003,6.5667,6.4817,6.3961,6.3103,6.2606,6.2063,6.1597,6.1646,6.1456,6.1184,6.1193,6.0962,6.0571,6.0071,5.9878,5.98,5.9258,5.8635,5.801,5.7465,5.6996,5.6605,5.6605,5.6957,5.7309,5.7309,5.7933,5.8674,5.9025,5.9103,5.9103,5.9103,5.8402,5.7972,5.848,5.7503,5.6371,5.5668,5.5123,5.4187,5.243,5.2196,5.2,5.1453,5.1414,5.1414,5.1414,5.1414,5.1414,5.1414,5.1414,5.1268,5.0893,5.039,4.9764,4.9051,4.796,4.7223,4.6862,4.632,4.6027,4.596,4.5953,4.5923,4.5908,4.5576,4.5412,6.3434,6.5943,6.705,6.3796,5.8543,5.3275,4.9963,4.4834,4.062,4.003,4.1241,4.2488,4.2756,4.3978,4.5277,4.6342,4.6724,4.7985,5.1156,5.1805,5.3989,5.9453,6.0905,6.2853,6.6453,6.8241,6.8508,6.6819,6.6705,6.633,6.5452,6.484,6.4542,6.4542,6.4313,6.4198,6.4198,6.4385,6.4617,6.4817,6.5289,6.5618,6.5903,6.6213,6.6377,6.6354,6.5228,6.4413,6.3788,6.2896,6.2195,6.1612,6.1661,6.1705,6.1706,6.1715,6.1719,6.1602,6.1017,6.0783,6.0666,6.0079,5.9689,5.9377,5.8753,5.7972,5.7308,5.7035,5.7543,5.8246,5.8519,5.9026,5.9533,5.9806,5.9884,5.9884,5.9884,5.9183,5.8753,5.9377,5.8323,5.719,5.6683,5.5864,5.4694,5.2976,5.2469,5.2078,5.1492,5.1414,5.1415,5.1419,5.1386,5.1387,5.1415,5.1385,5.1281,5.1015,5.0658,5.0171,4.9591,4.8386,4.7585,4.7296,4.641,4.5968,4.5896,4.5896,4.589,4.588,4.5854,4.5883,5.9002,6.2242,6.4554,6.1263,5.6981,5.2546,4.8434,4.4179,4.0868,4.0068,4.0746,4.1767,4.2641,4.3477,4.4541,4.6227,4.7221,0.0,5.1232,5.2308,5.3766,5.6326,5.7428,5.9613,6.3816,6.7255,6.8508,6.6819,6.6705,6.633,6.5452,6.5375,6.5375,6.5375,6.4619,6.4198,6.4198,6.4385,6.4607,6.4811,6.5876,6.654,6.6744,6.5884,6.5494,6.542,6.3758,6.3024,6.2951,6.2065,6.1718,6.1718,6.1718,6.1719,6.1719,6.1719,6.1719,6.1719,6.168,6.168,6.168,6.168,6.1094,6.0393,6.0393,5.9768,5.8908,5.8011,5.8402,5.9299,6.0159,6.0393,6.0588,6.1485,6.168,6.168,6.168,6.0978,6.0393,6.0393,5.969,5.8557,5.6878,5.5864,5.4694,5.2976,5.1961,5.1414,5.1414,5.1414,5.1418,5.1389,5.1403,5.1404,5.1417,5.1401,5.1016,5.0156,5.0798,5.0393,4.8673,4.8546,4.8076,4.7227,4.6335,4.5893,4.59,4.59,4.588,4.5807,4.5807,4.5807,5.3434,5.5647,5.6517,5.4352,5.1187,4.8021,4.5833,4.2697,4.0257,4.018,4.1336,4.2488,4.2756,4.394,4.5239,4.6304,4.7221,4.829,4.9671,5.2079,5.5059,5.8772,6.3503,6.698,6.8317,6.889,6.8738,6.7591,6.7018,6.633,6.5452,6.5413,6.5413,6.5413,6.5146,6.5097,6.5229,6.5461,6.5678,6.5918,6.6432,6.672,6.6803,6.6491,6.6107,6.5532,6.499,6.4095,6.2964,6.2694,6.2226,6.1719,6.1719,6.1719,6.1719,6.1719,6.1719,6.1719,6.1719,6.1719,6.1719,6.1719,6.1524,6.1172,6.0588,5.9807,5.9181,5.9495,5.9768,6.0198,6.1055,6.1289,6.1368,6.1641,6.1719,6.1719,6.1719,6.1017,6.0588,6.1172,6.0118,5.8752,5.7621,5.6723,5.5591,5.3834,5.3366,5.2977,5.236,5.2259,5.1992,5.1406,5.1275,5.1271,5.1328,5.128,5.1134,5.081,5.0986,5.0877,5.0324,4.9731,4.923,4.8896,4.804,4.7326,4.6711,4.6711,4.6394,4.5803,4.5803,4.5803,4.8016,5.0871,5.2069,5.0545,4.8127,4.5776,4.4315,4.194,4.0117,4.0277,4.1643,4.2794,4.2794,4.4174,4.5474,4.5965,4.703,4.7985,4.8525,5.1773,5.5556,5.9453,6.4993,6.8508,6.8508,6.9196,6.9311,6.8432,6.763,6.6789,6.5948,6.5597,6.542,6.542,6.542,6.5516,6.5626,6.5963,6.6209,6.6333,6.6651,6.6805,6.6783,6.6508,6.6241,6.6014,6.539,6.4492,0.0,6.3125,6.25,6.1719,6.1719,6.1719,6.1719,6.1719,6.1719,6.1719,6.1719,6.1719,6.1719,6.1719,6.1719,6.1602,6.1055,6.0276,5.9767,6.0666,6.09,6.1017,6.1563,6.1719,6.1719,6.1719,6.1719,6.1719,6.1719,6.125,6.1055,6.1602,6.0821,5.9806,5.8948,5.7816,5.6568,5.5206,5.4426,5.3771,5.3239,5.3124,5.2842,5.2274,5.1876,5.1656,5.1688,5.1364,5.1131,5.1096,5.1081,5.1053,5.1044,5.0213,4.9731,4.9709,4.8854,4.8143,4.7583,4.7583,4.7312,4.677,4.6422,4.6306,0.0,4.7237,4.9877,4.8629,4.6844,4.5003,4.3554,4.1705,0.0,4.0306,4.1643,4.2794,4.2794,4.4174,4.5321,4.5397,4.6729,4.7832,4.787,5.1691,5.5708,5.9064,6.3159,6.5605,6.5413,6.8317,6.9884,6.909,6.8218,6.7416,6.6652,6.5924,6.5516,6.5537,6.5544,6.5552,6.5534,6.5974,6.6226,6.6256,6.6622,6.6783,6.6757,6.6014,6.6053,6.664,6.5079,6.4337,6.4142,6.3321,6.25,6.1719,6.1719,6.1719,6.1719,6.1719,6.1719,6.1719,6.1719,6.1719,6.1719,6.1719,6.1719,6.1719,6.1719,6.1133,6.0666,6.1485,6.1719,6.1719,6.1719,6.1719,6.1719,6.1719,6.1719,6.1719,6.1719,6.1719,6.1719,6.1719,6.1719,6.1407,6.0472,5.8949,5.7587,5.6737,5.5257,5.4215,5.4016,5.4047,5.3948,5.3637,5.2865,5.233,5.2203,5.1514,5.1076,5.1074,5.1018,5.1001,5.1001,5.0229,4.978,4.978,4.8933,4.8508,4.8508,4.843,4.8392,4.8392,4.7583,4.7196,3.7189,0.0,4.0137,4.0655,4.0545,4.0397,0.0,4.053,4.0306,4.0306,4.1643,4.2794,4.2794,4.4174,4.5512,4.6118,4.7106,4.8023,4.8716,5.4065,5.9179,6.2593,6.6139,6.7553,6.5605,6.7286,6.8196,6.7409,6.6582,6.5992,6.5851,6.5681,6.5645,6.5785,6.5872,6.5925,6.6026,6.6135,6.633,6.6679,6.6732,6.6792,6.6796,6.6601,6.6288,6.5858,6.5468,6.4531,6.3282,6.3086,6.25,6.1719,6.1719,6.1719,6.1719,6.1719,6.1719,6.1719,6.1719,6.1719,6.1719,6.1719,6.1719,6.1719,6.1719,6.1563,6.1446,6.1641,6.1719,6.1719,6.1719,6.1719,6.1719,6.1719,6.1719,6.1719,6.1719,6.1719,6.1719,6.1719,6.1719,6.1214,5.9661,5.9077,5.8299,5.6824,5.6718,5.6361,5.5062,5.534,5.4889,5.2852,5.2389,5.1988,5.1272,5.1083,5.0981,5.0949,5.094,5.0917,5.0917,5.0712,5.0631,5.0631,4.9819,4.9397,4.9397,4.874,4.8392,4.8392,4.8198,4.8082,3.4791,3.6373,3.8097,3.88,3.9451,4.0063,4.053,4.0458,4.042,4.0764,4.1877,4.2908,4.3286,4.4419,4.562,4.6385,4.7242,4.8826,5.1591,5.5422,5.9505,6.3738,6.6162,6.7209,6.6598,6.7401,6.7776,6.74,6.6595,6.6204,6.6288,6.5981,6.5851,6.6012,6.6104,6.6156,6.6217,6.6337,6.6501,6.6693,6.6778,6.6796,6.6796,6.6796,6.6366,6.5585,6.5585,6.4609,6.3008,6.3008,6.25,6.1719,6.1719,6.1719,6.1719,6.1719,6.1719,6.1719,6.1719,6.1719,6.1719,6.1719,6.1719,6.1719,6.1719,6.1719,6.1719,6.1719,6.1719,6.1719,6.1719,6.1719,6.1719,6.1719,6.1719,6.1719,6.1719,6.1719,6.1719,6.1719,6.1684,6.126,5.9939,5.968,5.9218,5.789,5.8028,5.7905,5.6919,5.6783,5.6207,5.4756,5.3515,5.2612,5.214,5.139,5.0925,5.0902,5.0898,5.0898,5.0898,5.0898,5.0898,5.0898,5.0476,5.0244,5.0244,4.978,4.9548,4.9548,4.9165,4.901,3.4543,3.7107,3.9594,3.9493,4.0326,4.1177,4.1255,4.0835,4.0611,4.1337,4.2297,4.3171,4.3854,4.4855,4.5755,4.6391,4.7723,5.0428,5.5447,5.6856,5.906,6.3537,6.5,6.6009,6.7041,6.7562,6.7806,6.766,6.7079,6.6833,6.6945,6.6383,6.6104,6.626,6.6333,6.6344,6.6302,6.6501,6.66,6.6617,6.6732,6.6757,6.6601,6.6601,6.617,6.539,6.539,6.4492,6.3008,6.3008,6.25,6.1719,6.1719,6.1719,6.1719,6.1719,6.1719,6.1719,6.1719,6.1719,6.1719,6.1719,6.1719,6.1719,6.1719,6.1719,6.1719,6.1719,6.1719,6.1719,6.1719,6.1719,6.1719,6.1719,6.1719,6.1719,6.1719,6.1719,6.1719,6.1682,6.1692,6.1425,6.0568,6.0351,6.0031,5.9165,5.9083,5.9001,5.877,5.8078,5.7508,5.7155,5.5086,5.3646,5.3502,5.2028,5.1095,5.1095,5.0975,5.0898,5.0898,5.0898,5.0898,5.0898,5.0898,5.0898,5.0898,5.0898,5.0898,5.0859,5.0206,4.9896,3.6404,3.8541,3.973,3.7893,3.8603,3.9797,4.0073,4.0583,4.1086,4.1423,4.2756,4.3854,4.3968,4.5277,4.6358,4.65,4.9601,5.3817,5.89,6.0339,6.1402,6.2937,6.5175,6.5855,6.3949,6.5774,6.6804,6.6175,6.6132,6.6185,6.6271,6.6251,6.634,6.6519,6.6563,6.661,6.6725,6.6629,6.6677,6.6783,6.6792,6.6445,6.578,6.578,6.5312,6.4493,6.4493,6.3946,6.3008,6.3008,6.25,6.1719,6.1719,6.1719,6.1719,6.1719,6.1719,6.1719,6.1719,6.1719,6.1719,6.1719,6.1719,6.1719,6.1719,6.1719,6.1719,6.1719,6.1719,6.1719,6.1719,6.1719,6.1719,6.1719,6.1719,6.1719,6.1719,6.1719,6.1683,6.1694,6.1697,6.1429,6.0542,6.0389,6.0117,5.9296,5.9708,5.9794,5.9042,5.879,5.8081,5.6524,5.5378,5.4351,5.3553,5.2573,5.1993,5.1993,5.1327,5.0898,5.0898,5.0898,5.0898,5.0898,5.0898,5.0898,5.0898,5.0898,5.0898,5.0898,5.0782,5.0709,3.5716,3.7455,3.8793,3.8835,4.0948,4.2742,4.1716,4.2079,4.2829,4.3428,4.4169,4.4967,4.5883,4.7439,4.9214,5.1012,5.3702,5.6524,5.9354,6.0047,6.0933,6.2808,6.4039,6.4666,6.4441,6.5545,6.6204,6.5919,6.5992,6.6138,6.6361,6.6435,6.653,6.6707,6.6711,6.6727,6.6796,6.6297,6.6297,6.6796,6.6366,6.5975,6.5585,6.5116,6.4415,6.3595,6.3595,6.3086,6.2304,6.2304,6.207,6.1719,6.1719,6.1719,6.1719,6.1719,6.1719,6.1719,6.1719,6.1719,6.1719,6.1719,6.1719,6.1719,6.1719,6.1719,6.1719,6.1719,6.1719,6.1719,6.1719,6.1719,6.1719,6.1719,6.1719,6.1719,6.1719,6.1686,6.1692,6.1697,6.1705,6.1439,6.0544,6.0741,6.0774,5.9911,6.0422,6.0732,6.0341,5.9835,5.9162,5.8328,5.6615,5.5327,5.4894,5.3652,5.2496,5.1563,5.1134,5.0898,5.0898,5.0898,5.0898,5.0898,5.0898,5.0898,5.0898,5.0898,5.0898,5.0898,5.0898,5.0898,3.5819,3.7367,3.8994,4.064,4.3008,4.4687,4.3787,4.4015,4.4728,4.5949,4.62,4.6582,4.787,4.9667,5.1991,5.5154,5.7416,5.9129,6.0209,6.0495,6.1357,6.342,6.3643,6.4193,6.5507,6.5795,6.5919,6.603,6.6133,6.633,6.6582,6.6617,6.6701,6.6795,6.6796,6.6796,6.6796,6.617,6.6092,6.6523,6.5702,6.5312,6.5273,6.4376,6.3634,6.3008,6.2774,6.2304,6.1719,6.1719,6.1719,6.1719,6.1719,6.1719,6.1719,6.1719,6.1719,6.1719,6.1719,6.1719,6.1719,6.1719,6.1719,6.1719,6.1719,6.1719,6.1719,6.1719,6.1682,6.1683,6.1719,6.1719,6.1719,6.1683,6.1684,6.1684,6.1688,6.1695,6.1624,6.143,6.1556,6.1404,6.0545,6.1089,6.1385,6.072,6.1118,6.1467,6.1448,6.064,6.0053,6.0028,5.7819,5.617,5.5741,5.4542,5.3072,5.1327,5.1018,5.0898,5.0898,5.0898,5.0898,5.0898,5.0898,5.0898,5.0898,5.0898,5.0898,5.0898,5.0898,5.0898,3.8917,4.0716,4.2112,4.2763,4.2181,4.223,4.5193,4.5709,4.6206,4.8375,4.8837,4.8875,4.8989,5.0976,5.3466,5.6103,5.923,6.1936,6.3594,6.4532,6.5111,6.531,6.5507,6.5665,6.5787,6.5951,6.6082,6.6098,6.6387,6.6574,6.659,6.6716,6.6792,6.6796,6.6796,6.6796,6.6796,6.6757,6.6366,6.5663,6.4805,6.4376,6.4376,6.3477,6.3047,6.2969,6.2148,6.1758,6.1719,6.1719,6.1719,6.1719,6.1719,6.1719,6.1719,6.1719,6.1719,6.1719,6.1719,6.1719,6.1719,6.1719,6.1719,6.1719,6.1719,6.1719,6.1719,6.1719,6.1689,6.1695,6.1683,6.1719,6.1682,6.1695,6.1697,6.1699,6.1706,6.1708,6.1475,6.066,6.1169,6.1405,6.0547,6.1133,6.1679,6.1601,6.164,6.1675,6.1605,6.0814,6.0215,6.0012,5.8376,5.6643,5.5019,5.4774,5.3962,5.2225,5.1366,5.0898,5.0898,5.0898,5.0898,5.0898,5.0898,5.0898,5.0898,5.0898,5.0898,5.0898,5.0898,5.0898,3.8293,4.0094,4.2069,4.2933,4.3545,4.4517,4.6674,4.8294,4.9537,5.019,5.1777,5.3034,5.3034,5.4639,5.6632,5.8657,6.137,6.364,6.4838,6.5288,6.5537,6.5667,6.576,6.5813,6.5859,6.5997,6.6124,6.6204,6.6458,6.6622,6.6716,6.6784,6.6796,6.6796,6.6796,6.6796,6.6796,6.5781,6.5079,6.4805,6.4454,6.4025,6.3477,6.2579,6.2187,6.2187,6.1836,6.1719,6.1719,6.1719,6.1719,6.1719,6.1719,6.1719,6.1719,6.1719,6.1719,6.1719,6.1719,6.1719,6.1719,6.1719,6.1719,6.1681,6.1689,6.1692,6.1693,6.1698,6.1702,6.1703,6.1695,6.1696,6.1701,6.1705,6.1705,6.1706,6.1709,6.1712,6.1598,6.1287,6.1483,6.1601,6.1289,6.1484,6.1679,6.1629,6.1677,6.1635,6.1481,6.119,6.0949,6.0822,5.97,5.8484,5.7258,5.667,5.5853,5.4658,5.3265,5.226,5.1718,5.1718,5.1718,5.1718,5.1173,5.0898,5.0898,5.0898,5.0898,5.0898,5.0898,5.0898,3.8523,4.0111,4.2171,4.31,4.4889,4.7037,4.9299,5.1063,5.2507,5.3435,5.4585,5.5473,5.5747,5.6931,5.8459,6.0148,6.2768,6.4831,6.5417,6.5537,6.5646,6.578,6.5813,6.5878,6.5931,6.6082,6.6243,6.6373,6.6543,6.6707,6.6794,6.6796,6.6796,6.6796,6.6796,6.6796,6.6796,6.5664,6.4805,6.4298,6.4298,6.3829,6.2969,6.2109,6.1836,6.2109,6.1836,6.1719,6.1719,6.1719,6.1719,6.1719,6.1719,6.1719,6.1719,6.1719,6.1719,6.1641,6.1407,6.1487,6.1647,6.1373,6.1493,6.1692,6.17,6.1702,6.1703,6.1707,6.171,6.1711,6.1707,6.1707,6.1709,6.1711,6.1712,6.1712,6.1714,6.1716,6.1601,6.1327,6.1523,6.1601,6.1328,6.1758,6.199,6.1651,6.1862,6.1891,6.143,6.1362,6.1238,6.0902,6.0274,5.9537,5.8685,5.8062,5.7207,5.6085,5.52,5.4078,5.2651,5.2612,5.2496,5.2225,5.1873,5.1443,5.0898,5.1173,5.1173,5.0898,5.0898,5.0898,4.0346,4.1482,4.2865,4.3485,4.5901,4.9173,5.3194,5.3922,5.4731,5.8367,5.7154,5.5664,5.6479,5.7358,5.8459,6.0148,6.327,6.5501,6.5501,6.5667,6.5793,6.5793,6.5859,6.597,6.6088,6.6213,6.6376,6.6585,6.672,6.6796,6.6796,6.6796,6.6796,6.6796,6.6796,6.6796,6.6796,6.6796,6.5937,6.4298,6.4298,6.3829,6.2969,6.2109,6.2187,6.293,6.207,6.1719,6.1719,6.168,6.168,6.168,6.168,6.168,6.1719,6.1719,6.1719,6.1563,6.0705,6.0987,6.1542,6.0682,6.1,6.1709,6.1709,6.1709,6.1709,6.1709,6.1713,6.1717,6.1717,6.1713,6.1711,6.1716,6.1717,6.1717,6.1719,6.1719,6.1445,6.0586,6.1133,6.1445,6.0586,6.1875,6.2693,6.1767,6.2346,6.2497,6.1425,6.1306,6.0934,6.0019,5.9885,5.9537,5.8685,5.8608,5.7873,5.6162,5.6859,5.6162,5.3618,5.3502,5.3115,5.2225,5.3076,5.2647,5.0898,5.1796,5.1757,5.0898,5.0898,5.0898,4.2203,4.3521,4.5213,4.579,4.8254,5.1478,5.5071,5.4893,5.5127,5.9172,5.8733,5.7975,5.9081,5.995,6.0697,6.1294,6.3229,6.4879,6.5597,6.5767,6.5813,6.5865,6.5973,6.6074,6.6103,6.6357,6.6555,6.659,6.672,6.6796,6.6796,6.6796,6.6796,6.6796,6.6796,6.6523,6.5975,6.5352,6.4493,6.3399,6.2774,6.2343,6.207,6.1836,6.1836,6.207,6.1797,6.1719,6.1641,6.1055,6.0783,6.0783,6.0783,6.1178,6.1693,6.1693,6.1697,6.1663,6.139,6.147,6.1667,6.1394,6.1473,6.171,6.1714,6.1715,6.1715,6.1717,6.1718,6.1718,6.1718,6.1718,6.1718,6.1718,6.1718,6.1718,6.1719,6.1719,6.1796,6.2093,6.2361,6.2625,6.2891,6.2847,6.2668,6.2335,6.2036,6.1724,6.133,6.0705,6.0412,6.0697,6.0228,6.0035,6.0344,6.0344,5.9919,5.8797,5.841,5.7056,5.4503,5.4426,5.4271,5.4039,5.3695,5.296,5.1834,5.207,5.1757,5.0898,5.0913,5.0897,4.3223,4.4535,4.6443,4.7907,5.0607,5.3721,5.6873,5.7848,5.8918,6.1791,6.1011,6.0227,6.1647,6.1774,6.1924,6.2661,6.3981,6.5116,6.5703,6.582,6.5852,6.5897,6.6008,6.6099,6.6181,6.6435,6.661,6.6689,6.6736,6.6796,6.6796,6.6484,6.6327,6.6327,6.5977,6.5586,6.5077,6.4571,6.3868,6.3008,6.2461,6.2031,6.1719,6.1719,6.1719,6.1719,6.1719,6.1719,6.1641,6.114,6.0713,6.04,6.0404,6.0526,6.0687,6.0687,6.0885,6.1123,6.0772,6.1125,6.1634,6.1283,6.1401,6.1716,6.1717,6.1718,6.1718,6.1719,6.1719,6.1719,6.1719,6.1719,6.1719,6.1719,6.1951,6.2183,6.2226,6.2414,6.2743,6.328,6.3375,6.3493,6.3901,6.3546,6.3086,6.2645,6.1832,6.1278,6.1221,6.0726,6.0576,6.1041,6.0654,6.0576,6.1079,6.1118,6.077,5.9962,5.942,5.8101,5.5892,5.547,5.5122,5.4813,5.4581,5.373,5.2186,5.2514,5.2231,5.1377,5.1374,5.1391,4.4004,4.5242,4.7149,4.9895,5.3091,5.6212,5.8946,6.2013,6.4466,6.4955,6.3388,6.244,6.4015,6.3124,6.2637,6.4168,6.5207,6.5793,6.58,6.5859,6.591,6.5935,6.6041,6.6176,6.6318,6.6501,6.6685,6.6792,6.6718,6.6679,6.6679,6.6014,6.5546,6.5468,6.4805,6.4337,6.4181,6.4181,6.3751,6.2891,6.2891,6.2461,6.1719,6.1719,6.1719,6.1681,6.1682,6.1644,6.1567,6.1579,6.1113,6.0411,6.0417,5.9912,5.921,5.921,5.9678,6.0187,5.9367,6.0191,6.1443,6.0662,6.0976,6.1719,6.1719,6.1719,6.1719,6.1719,6.1719,6.1679,6.1679,6.1679,6.1678,6.1678,6.229,6.29,6.2966,6.3503,6.4035,6.4189,6.4138,6.4107,6.4174,6.414,6.3762,6.2857,6.1849,6.1234,6.1234,6.1079,6.1041,6.1079,6.1041,6.1041,6.1079,6.1118,6.0809,6.0074,5.9923,5.9184,5.7593,5.6626,5.5737,5.492,5.5617,5.4804,5.2406,5.3134,5.3074,5.2224,5.221,5.2226,4.7233,4.8441,4.9947,5.2312,5.6556,6.0695,6.2655,6.4153,6.4611,6.2777,6.3579,6.471,6.5159,6.4958,6.4886,6.5387,6.5658,6.5813,6.5872,6.5891,6.594,6.6052,6.6185,6.6322,6.6504,6.6652,6.6783,6.6795,6.6209,6.5858,6.5858,6.5702,6.5273,6.461,6.5077,6.4648,6.3282,6.3282,6.2852,6.1992,6.1992,6.1875,6.1719,6.1719,6.1686,6.1695,6.1702,6.1314,6.069,6.0692,6.0575,6.0419,6.0381,6.0306,6.0114,6.0114,5.9842,5.9413,5.9257,5.9843,6.0664,6.0469,6.0976,6.1719,6.1719,6.1719,6.1719,6.1719,6.1674,6.1618,6.1618,6.155,6.1469,6.1469,6.2202,6.2891,6.2901,6.3506,6.4185,6.4779,6.4853,6.5067,6.5635,6.5191,6.4485,6.3592,6.2694,6.2119,6.2119,6.0963,6.0383,6.1041,6.0538,6.0422,6.1041,6.1118,6.1041,6.0847,6.0267,5.9725,5.9377,5.7864,5.6609,5.5761,5.5912,5.5353,5.408,5.426,5.3908,5.3059,5.3051,5.3032,4.8007,4.9527,5.1902,5.5895,5.9943,6.3274,6.4568,6.5181,6.5104,6.3803,6.4539,6.5457,6.553,6.5618,6.5667,6.578,6.582,6.5859,6.5897,6.5904,6.5958,6.6082,6.6204,6.6373,6.6582,6.6718,6.664,6.6249,6.5858,6.5429,6.4999,6.457,6.414,6.3673,6.3711,6.328,6.2383,6.2383,6.2148,6.1719,6.1686,6.1692,6.1696,6.1691,6.1695,6.1704,6.1707,6.1436,6.1007,6.101,6.0776,6.0386,6.0388,6.0155,5.9843,5.9843,5.9804,5.9765,5.9765,6.0039,6.0469,6.0898,6.1055,6.1172,6.1562,6.1719,6.1679,6.1674,6.1621,6.1599,6.153,6.145,6.1412,6.1412,6.2075,6.2754,6.2797,6.335,6.3983,6.4407,6.4807,6.5182,6.5548,6.4914,6.4063,6.3207,6.2356,6.1771,6.1771,6.1002,6.0654,6.1079,6.0731,6.0654,6.1079,6.1118,6.1118,6.1118,6.0692,6.0296,5.9886,5.8572,5.7476,5.6598,5.657,5.5924,5.4583,5.4564,5.4318,5.389,5.3884,5.3864,4.8176,5.0212,5.3561,5.8948,6.227,6.4381,6.5217,6.5486,6.5601,6.5615,6.5566,6.5537,6.5608,6.5715,6.5793,6.5807,6.5859,6.5916,6.5921,6.5927,6.6001,6.6187,6.6271,6.6449,6.661,6.6608,6.6327,6.5663,6.5312,6.4843,6.4103,6.3399,6.293,6.2774,6.207,6.1719,6.1719,6.1565,6.1488,6.1488,6.1304,6.1274,6.1281,6.1276,6.1432,6.171,6.1711,6.1712,6.1712,6.1716,6.1288,6.0624,6.0625,6.0117,5.9414,5.9414,5.9726,6.0195,6.0195,6.0273,6.0508,6.125,6.1094,6.0742,6.1483,6.1678,6.1676,6.1605,6.1544,6.1522,6.1408,6.137,6.1356,6.1356,6.1856,6.2394,6.2611,6.3332,6.3922,6.4,6.4528,6.4991,6.4991,6.4295,6.3444,6.2743,6.1892,6.1311,6.1311,6.1195,6.1118,6.1118,6.1118,6.1118,6.1118,6.1118,6.1113,6.1065,6.1065,6.0775,6.0026,5.9283,5.8505,5.7617,5.7188,5.6227,5.4791,5.4713,5.4693,5.4721,5.4724,5.4703,4.9798,5.2432,5.5707,5.8706,6.1377,6.3499,6.4342,6.5109,6.5622,6.5767,6.5681,6.5608,6.5767,6.5787,6.5813,6.5878,6.5891,6.594,6.6074,6.6062,6.621,6.6516,6.656,6.6615,6.6778,6.6167,6.5702,6.5624,6.4219,6.3282,6.3164,6.3047,6.2657,6.1914,6.1758,6.1719,6.1719,6.0948,6.0562,6.0562,5.9829,5.9484,5.9528,5.9528,6.0348,6.1716,6.1718,6.1718,6.1718,6.1719,6.164,6.1523,6.1523,6.1015,6.0234,6.0234,5.9883,5.9375,5.9375,5.9805,6.043,6.0547,6.1015,6.1523,6.1584,6.1614,6.1604,6.1458,6.1367,6.1321,6.1301,6.1233,6.1156,6.1156,6.1212,6.1557,6.2426,6.3787,6.4846,6.4837,6.4933,6.4991,6.4991,6.4295,6.3676,6.3521,6.2781,6.2235,6.2235,6.1577,6.1118,6.1118,6.1118,6.1118,6.1118,6.1118,6.1099,6.1017,6.1012,6.0948,6.0853,6.069,6.0162,5.9314,5.7112,5.5853,5.5537,5.5527,5.5527,5.5521,5.5555,5.5555,5.0877,5.2926,5.5514,5.8058,6.0628,6.2887,6.4193,6.5154,6.5775,6.5846,6.5826,6.5775,6.5846,6.5852,6.5865,6.5897,6.5904,6.5952,6.6077,6.6108,6.6217,6.6566,6.6592,6.6633,6.6791,6.6053,6.5585,6.5585,6.3984,6.2774,6.2304,6.1798,6.1134,6.0274,6.0241,6.0244,6.0244,5.9864,5.9675,5.9718,5.933,5.9177,5.9218,5.9218,5.9609,6.0312,6.0781,6.0976,6.1015,6.1484,6.1406,6.1015,6.1523,6.1172,6.039,6.039,6.0508,6.0547,6.0039,6.0117,6.0468,6.093,6.1004,6.0999,6.1378,6.1473,6.1456,6.1354,6.1315,6.1289,6.1193,6.1143,6.1118,6.1118,6.1118,6.1219,6.1651,6.23,6.2975,6.3439,6.3947,6.4256,6.4256,6.4372,6.4101,6.3129,6.2665,6.2235,6.1732,6.135,6.1118,6.1118,6.1118,6.1118,6.1118,6.1118,6.1056,6.1007,6.1002,6.0967,6.0949,6.0459,5.997,5.9551,5.8435,5.7654,5.7165,5.667,5.6439,5.6401,5.5939,5.5708,5.1245,5.2872,5.4864,5.679,5.9521,6.2095,6.3358,6.4628,6.5551,6.5551,6.5551,6.5628,6.5865,6.5904,6.5904,6.5904,6.5904,6.5976,6.6109,6.5954,6.5975,6.6296,6.6358,6.6307,6.6168,6.5819,6.5429,6.496,6.3711,6.2501,6.1446,6.0744,6.0003,5.9147,5.8882,5.8886,5.9083,5.8895,5.8823,5.8866,5.8631,5.8554,5.8555,5.8789,5.8867,5.8906,5.9726,6.0195,6.0469,6.1094,6.1133,6.0781,6.1445,6.1289,6.0742,6.0742,6.1133,6.1601,6.0936,6.0701,6.0815,6.1366,6.1114,6.0672,6.121,6.1373,6.1348,6.1253,6.1248,6.1217,6.1116,6.1118,6.1118,6.1118,6.1118,6.1234,6.166,6.1582,6.181,6.3125,6.356,6.3715,6.3715,6.4256,6.4063,6.2312,6.2274,6.208,6.1195,6.1118,6.1118,6.1118,6.1118,6.1075,6.1099,6.106,6.1032,6.0967,6.0962,6.0959,6.0894,6.0234,5.9865,5.9819,5.9819,5.9319,5.8313,5.7665,5.7209,5.6983,5.6324,5.5901,5.0711,5.2551,5.4452,5.4649,5.7819,6.0902,6.0979,6.2897,6.4666,6.4666,6.4666,6.4936,6.5743,6.5904,6.5904,6.5904,6.5904,6.5996,6.6251,6.5635,6.5281,6.5604,6.5658,6.5348,6.4493,6.5155,6.4921,6.3243,6.3047,6.2267,6.0549,6.0432,6.0007,5.9118,5.8299,5.8264,5.9091,5.8355,5.7968,5.7969,5.7148,5.6758,5.6758,5.7578,5.7969,5.8008,5.8906,5.9687,6.039,6.0469,6.0937,6.164,6.168,6.168,6.164,6.164,6.164,6.1679,6.1583,6.153,6.1521,6.1452,6.138,6.1323,6.1321,6.132,6.1285,6.1147,6.1093,6.1093,6.1118,6.1118,6.1118,6.1118,6.1118,6.1543,6.3212,6.2936,6.3047,6.5528,6.4759,6.3715,6.3715,6.3753,6.3173,6.1427,6.1887,6.208,6.1195,6.1118,6.1118,6.1118,6.1118,6.106,6.1012,6.1007,6.0962,6.0927,6.0922,6.0894,6.0793,6.0748,6.0748,6.0748,6.0748,5.9935,5.8313,5.8236,5.7819,5.6983,5.6945,5.6478,5.0687,5.1409,5.2539,5.4118,5.6072,5.8055,5.9617,6.1556,6.3018,6.3018,6.3397,6.3852,6.4166,6.4705,6.5107,6.5181,6.5672,6.5751,6.4928,6.5046,6.5109,6.4796,6.4766,6.4649,6.4337,6.4062,6.3906,6.3829,6.2813,6.1644,6.0442,5.9857,5.8923,5.7526,5.7179,5.7183,5.7498,5.7226,5.707,5.707,5.6758,5.6601,5.6601,5.6914,5.707,5.7109,5.8008,5.914,6.043,6.1015,6.1094,6.0937,6.1484,6.1367,6.0859,6.0859,6.1211,6.1601,6.0995,6.1136,6.1551,6.1409,6.1343,6.1318,6.1197,6.1182,6.1169,6.1098,6.1118,6.1118,6.1118,6.1118,6.1118,6.1118,6.1118,6.1427,6.2627,6.3052,6.3323,6.371,6.4174,6.4372,6.3792,6.414,6.3947,6.2196,6.2196,6.208,6.1195,6.1118,6.1065,6.1036,6.1032,6.1046,6.099,6.0985,6.0953,6.0916,6.0911,6.0883,6.0787,6.0787,6.0787,6.0787,6.0787,6.0517,5.9896,5.9358,5.8896,5.8588,5.805,5.7357,5.0692,5.1005,5.1767,5.3653,5.4834,5.6033,5.7857,5.9617,6.0944,6.1183,6.1897,6.2651,6.3272,6.3631,6.4034,6.4685,6.535,6.5462,6.4574,6.4447,6.4292,6.39,6.3868,6.3751,6.3477,6.3441,6.3445,6.3445,6.2628,6.1499,6.0022,5.9398,5.8347,5.6634,5.6599,5.6601,5.6601,5.6601,5.6601,5.6601,5.6601,5.6601,5.6601,5.6914,5.7031,5.707,5.7969,5.8984,6.0078,6.0898,6.0937,6.0508,6.1367,6.1132,6.0387,6.0699,6.1124,6.1501,6.0861,6.0992,6.1476,6.1274,6.1225,6.1205,6.1116,6.1118,6.1118,6.1118,6.1118,6.1118,6.1118,6.1118,6.1118,6.1118,6.1118,6.1273,6.1848,6.2433,6.2825,6.2859,6.3753,6.4295,6.3405,6.4217,6.4295,6.2274,6.2196,6.2075,6.1172,6.1056,6.1032,6.1021,6.1016,6.099,6.0971,6.0965,6.0944,6.0883,6.0883,6.0866,6.0787,6.0787,6.0787,6.0787,6.0787,6.0787,6.0787,6.0204,5.9781,5.9473,5.8934,5.8242,0.0,0.0,0.0,5.3166,5.4047,5.4918,5.5663,5.7116,5.8481,5.9254,6.01,6.129,6.3124,6.282,6.2825,6.4421,6.4929,6.5086,6.518,6.375,6.2771,6.2924,6.293,6.2618,6.1758,6.3175,6.3494,6.1815,6.2447,6.1787,5.9249,5.9054,5.8275,5.6638,5.6601,5.6601,5.6601,5.6601,5.6601,5.6601,5.6601,5.6601,5.664,5.7461,5.7851,5.789,5.8828,5.9219,5.9258,6.0078,6.043,6.0508,6.1367,6.1127,6.0434,6.1293,6.1488,6.1364,6.1318,6.1267,6.1243,6.1143,6.1118,6.1118,6.1118,6.1118,6.1118,6.1118,6.1118,6.1118,6.1118,6.1118,6.1118,6.1118,6.1118,6.1157,6.1157,6.1157,6.1698,6.3366,6.3753,6.3521,6.266,6.3903,6.4135,6.1577,6.1926,6.21,6.12,6.1041,6.1016,6.1036,6.1025,6.0965,6.0911,6.0905,6.0883,6.0787,6.0825,6.0825,6.0787,6.0825,6.0825,6.0787,6.0787,6.0787,6.0787,6.0787,6.0358,5.955,5.9511,5.9088,5.0837,0.0,0.0,0.0,0.0,0.0,5.4074,5.5042,5.6002,5.6723,5.811,5.9283,5.9818,6.1307,6.2443,6.2426,6.348,6.393,6.2854,6.2826,6.2482,6.125,6.1689,6.1733,6.0834,6.1193,6.155,6.1706,6.077,5.9875,5.9215,5.7967,5.707,5.6601,5.6601,5.6601,5.6601,5.6601,5.6601,5.6601,5.6601,5.6601,5.6601,5.6836,5.6953,5.7031,5.8555,5.9219,5.9258,6.0078,6.0781,6.1367,6.1601,6.1523,6.1324,6.1539,6.1166,6.0669,6.1158,6.0879,6.0423,6.0949,6.1118,6.1118,6.1118,6.1118,6.1118,6.1118,6.1118,6.1118,6.1118,6.1118,6.1118,6.1118,6.1577,6.2042,6.2042,6.2549,6.3134,6.3598,6.4682,6.5412,6.518,6.5033,6.4698,6.3959,6.3498,6.3118,6.2832,6.2253,6.1841,6.1786,6.128,6.0911,6.0816,6.0848,6.0804,6.0787,6.1402,6.1441,6.0825,6.1402,6.1441,6.0825,6.0787,6.0787,6.0787,6.0787,6.0671,6.0435,5.9781,5.9704,5.0946,5.1081,5.1384,5.2183,0.0,0.0,5.2967,5.3519,5.4044,5.473,5.5952,5.7018,5.7416,5.9071,6.0287,6.0005,6.1073,6.2024,6.2221,6.2036,6.1532,6.0517,6.0526,6.0414,5.9905,5.9873,6.0267,6.1088,5.9917,5.8982,5.8671,5.7344,5.6601,5.6601,5.6601,5.6601,5.6601,5.6601,5.6601,5.6601,5.6601,5.6601,5.6601,5.6601,5.6601,5.664,5.7656,5.8515,5.9258,5.9726,6.039,6.1172,6.152,6.1394,6.1062,6.1352,6.1101,6.0692,6.1076,6.0891,6.0526,6.0961,6.1118,6.1118,6.1118,6.1118,6.1118,6.1118,6.1118,6.1118,6.1118,6.1118,6.1118,6.1118,6.15,6.1964,6.2312,6.3091,6.3715,6.3715,6.4778,6.5531,6.5188,6.4981,6.4712,6.4365,6.383,6.3489,6.3466,6.3004,6.2667,6.261,6.218,6.1893,6.1858,6.1858,6.1858,6.1858,6.232,6.221,6.1364,6.2172,6.221,6.1364,6.1666,6.1666,6.1325,6.0979,6.0787,6.0787,6.0281,6.0319,5.0984,5.1186,5.1528,5.2194,5.2044,0.0,5.2287,5.2462,5.2679,0.0,5.4002,5.4863,5.5822,5.6864,5.7603,5.7646,5.8558,6.0002,6.2268,6.1222,6.0175,6.0019,5.9479,5.9014,5.8702,5.8902,5.9295,5.992,5.9336,5.8555,5.7812,5.7031,5.6601,5.6601,5.6601,5.6601,5.6601,5.6601,5.6601,5.6601,5.6601,5.6601,5.6601,5.6601,5.6601,5.6601,5.6797,5.7695,5.9062,5.9335,5.9843,6.0468,6.1268,6.0981,6.0227,6.1007,6.1174,6.0991,6.1084,6.1041,6.0963,6.1079,6.1118,6.1118,6.1118,6.1118,6.1118,6.1118,6.1118,6.1118,6.1118,6.1157,6.1234,6.1234,6.1389,6.1737,6.2506,6.3362,6.3985,6.3985,6.4564,6.4799,6.4026,6.4475,6.4663,6.3885,6.3764,6.3742,6.3685,6.3596,6.3495,6.3435,6.3352,6.3314,6.3314,6.3314,6.3314,6.3314,6.3391,6.3089,6.2287,6.3012,6.3051,6.2249,6.2935,6.2935,6.221,6.1364,6.0902,6.0787,6.0787,6.0787,5.1108,5.1783,5.23,5.1752,5.2579,0.0,5.1911,5.2143,5.2668,5.2684,5.3353,5.4253,5.5142,5.7094,5.8224,5.7025,5.8714,6.0084,5.9896,5.9586,5.8849,5.7488,5.8431,5.8356,5.6247,5.7304,5.7929,5.7383,5.7187,5.7031,5.6875,5.668,5.6601,5.6601,5.6601,5.6601,5.6601,5.6601,5.6601,5.6601,5.6601,5.6601,5.6601,5.6601,5.6601,5.668,5.8086,5.8434,5.8141,6.025,6.0798,6.0407,6.1257,6.1023,6.0275,6.101,6.0819,6.0305,6.0897,6.0692,6.0228,6.0886,6.1118,6.1118,6.1118,6.1118,6.1118,6.1118,6.1118,6.1118,6.1118,6.1616,6.2158,6.2158,6.3207,6.4295,6.445,6.5141,6.5721,6.5721,6.5832,6.5899,6.5706,6.5775,6.5755,6.555,6.551,6.5495,6.5428,6.48,6.4371,6.4359,6.3737,6.3314,6.3314,6.3314,6.3314,6.3314,6.3968,6.3974,6.3083,6.3897,6.3935,6.3089,6.3237,6.3237,6.3045,6.2249,6.1479,6.0787,6.0787,6.0787,5.1278,5.1669,5.2039,5.2039,5.239,0.0,0.0,5.2039,5.2143,5.2426,5.2483,5.2756,5.3658,5.4866,5.5755,5.5942,5.6653,5.7517,5.8388,5.8112,5.7527,5.6713,5.66,5.6093,5.4765,5.5429,5.5781,5.5351,5.5703,5.5937,5.5937,5.5937,5.6133,5.6601,5.6601,5.6601,5.6601,5.6601,5.6601,5.6601,5.6601,5.6601,5.6601,5.6601,5.6561,5.6593,5.7452,5.7786,5.7775,5.9531,5.9978,5.9627,6.0949,6.1152,6.0775,6.1093,6.091,6.0587,6.0957,6.0847,6.0576,6.0963,6.1118,6.1118,6.1118,6.1118,6.1118,6.1118,6.1118,6.1118,6.1118,6.1423,6.1732,6.1732,6.2743,6.3826,6.4256,6.4966,6.568,6.6067,6.6118,6.6096,6.6096,6.6052,6.6029,6.5964,6.5933,6.5941,6.5904,6.5513,6.5243,6.5243,6.4859,6.4589,6.4589,6.4589,6.4589,6.4589,6.5013,6.4859,6.3968,6.4782,6.5051,6.4628,6.4589,6.4166,6.3314,6.2897,6.2287,6.1441,6.1018,6.0787,5.183,5.2038,5.2234,5.2625,5.243,5.2195,0.0,0.0,0.0,5.2216,5.1734,5.1498,5.2398,5.2675,5.3247,5.4586,5.4631,5.5106,5.6911,5.6675,5.6401,5.6561,5.5078,5.3984,5.3984,5.3867,5.3828,5.3984,5.4648,5.5117,5.5273,5.5312,5.5703,5.6562,5.6601,5.6601,5.6601,5.6601,5.6601,5.6601,5.6601,5.6601,5.6561,5.6561,5.6551,5.6473,5.663,5.6946,5.7417,5.8425,5.871,5.8627,6.0558,6.1172,6.1054,6.11,6.1118,6.1118,6.1118,6.1118,6.1118,6.1118,6.1118,6.1118,6.1118,6.1118,6.1118,6.1118,6.1118,6.1118,6.1118,6.1234,6.1389,6.1543,6.2269,6.311,6.3971,6.466,6.5313,6.5964,6.6041,6.6007,6.6007,6.6011,6.5996,6.5929,6.5923,6.5916,6.5904,6.5904,6.5904,6.5904,6.5904,6.5904,6.5904,6.5904,6.5904,6.5904,6.5904,6.559,6.4897,6.5513,6.5904,6.5904,6.5904,6.5205,6.3814,6.3622,6.2974,6.1826,6.1133,6.0787,5.3471,5.4264,5.4499,5.3054,5.3796,5.4265,5.2038,0.0,5.2351,5.1681,0.0,5.1641,5.2501,0.0,0.0,5.3106,5.487,5.5852,5.4607,5.5037,5.574,5.6523,5.5078,5.3984,5.3984,5.3281,5.3164,5.3945,5.4101,5.4492,5.5273,5.5312,5.5703,5.6562,5.6601,5.6601,5.6601,5.6601,5.6601,5.6601,5.6601,5.6559,5.6495,5.6495,5.643,5.6363,5.7147,5.7055,5.6472,5.8069,5.8213,5.7719,6.0281,6.0794,6.0144,6.0856,6.1118,6.1118,6.1118,6.1118,6.1118,6.1118,6.1118,6.1118,6.1118,6.1118,6.1118,6.1118,6.1118,6.1118,6.1118,6.1655,6.2433,6.3212,6.4023,6.4837,6.5643,6.587,6.5903,6.598,6.6013,6.6007,6.6007,6.6001,6.6017,6.6002,6.599,6.5972,6.591,6.5904,6.5904,6.5904,6.5904,6.5904,6.5904,6.5904,6.5904,6.5904,6.5904,6.5865,6.5743,6.5865,6.5904,6.5904,6.5904,6.5782,6.559,6.482,6.3243,6.0941,6.0864,6.0787,5.3907,5.4264,5.4498,5.4265,5.3991,5.364,5.3053,5.2429,5.2,5.2118,0.0,0.0,0.0,0.0,0.0,0.0,5.4717,5.519,5.5468,5.4531,5.4297,5.5664,5.4297,5.3047,5.2539,5.2617,5.2656,5.25,5.2969,5.3398,5.3789,5.3789,5.4414,5.5781,5.5859,5.6094,5.6601,5.6601,5.6561,5.655,5.655,5.6493,5.6399,5.6399,5.6316,5.6258,5.665,5.6806,5.6932,5.8141,5.8716,5.8961,6.0549,6.0648,5.9996,6.0809,6.1118,6.1118,6.1118,6.1118,6.1118,6.1118,6.1118,6.1118,6.1118,6.1118,6.1118,6.1118,6.1461,6.1732,6.1234,6.1732,6.2462,6.2824,6.3534,6.4353,6.5164,6.5693,6.5999,6.5999,6.597,6.594,6.594,6.5976,6.5976,6.5954,6.5941,6.5935,6.5904,6.5904,6.5904,6.5904,6.5904,6.5904,6.5904,6.5904,6.5904,6.5904,6.5904,6.5904,6.5904,6.5904,6.5904,6.5904,6.5904,6.5628,6.5128,6.4782,6.3782,6.2243,6.2243,6.2243,5.4342,5.4537,5.481,5.5202,5.4343,5.3445,5.36,5.2858,5.2234,5.2625,5.2391,0.0,0.0,0.0,0.0,0.0,0.0,5.4801,5.6055,5.4609,5.3867,5.5156,5.418,5.3086,5.2187,5.2891,5.2969,5.1836,5.2578,5.2969,5.2695,5.2695,5.3516,5.5234,5.5312,5.5703,5.656,5.656,5.655,5.6467,5.6467,5.6393,5.6269,5.6269,5.6247,5.6153,5.6153,5.6436,5.6975,5.7637,5.841,5.9261,6.0074,6.019,5.9996,6.0809,6.1118,6.1118,6.1118,6.1118,6.1118,6.1118,6.1118,6.1118,6.1118,6.1118,6.1157,6.1389,6.1926,6.2312,6.1892,6.2269,6.2786,6.2983,6.3487,6.415,6.4954,6.5552,6.5978,6.5978,6.5935,6.5904,6.5904,6.5941,6.596,6.591,6.5904,6.5904,6.5904,6.5904,6.5904,6.5904,6.5904,6.5904,6.5904,6.5904,6.5904,6.5904,6.5904,6.5904,6.5904,6.5904,6.5904,6.5904,6.5904,6.5474,6.4589,6.4589,6.416,6.3314,6.3314,6.3314,5.5241,5.5864,5.6333,5.5514,5.5241,5.4772,5.3133,5.3366,5.3678,5.2859,5.3366,5.3912,5.3951,0.0,0.0,0.0,0.0,0.0,0.0,5.5273,5.5234,5.5273,5.5234,5.4883,5.3984,5.4726,5.4492,5.2773,5.3476,5.3594,5.2734,5.2695,5.3516,5.5234,5.5312,5.5699,5.6491,5.649,5.6425,5.6314,5.6314,5.6261,5.6181,5.6181,5.6139,5.6016,5.6016,5.6012,5.6046,5.6085,5.6588,5.7477,5.8333,5.9188,5.9996,6.0809,6.1118,6.1118,6.1118,6.1118,6.1118,6.1118,6.1118,6.1118,6.1118,6.1118,6.1273,6.2119,6.239,6.2583,6.3405,6.3598,6.3784,6.4634,6.4734,6.4912,6.5771,6.5915,6.5904,6.5904,6.5904,6.5904,6.5904,6.5904,6.5904,6.5904,6.5904,6.5904,6.5904,6.5904,6.5904,6.5904,6.5904,6.5904,6.5904,6.5904,6.5904,6.5904,6.5904,6.5904,6.5904,6.5904,6.5904,6.5904,6.5904,6.5474,6.4589,6.4589,6.416,6.3314,6.3314,6.3314,5.7115,5.7582,5.8049,5.7153,5.6567,5.5864,5.4694,5.4655,5.4615,5.3756,5.4693,5.5552,5.4966,0.0,0.0,0.0,0.0,0.0,0.0,5.3437,5.3164,5.4297,5.4453,5.4336,5.4023,5.4258,5.3945,5.2773,5.2969,5.2773,5.1875,5.1836,5.2383,5.3555,5.4095,5.4783,5.5628,5.6139,5.631,5.6242,5.6242,5.6172,5.606,5.606,5.6028,5.6008,5.6008,5.6317,5.6859,5.6859,5.7709,5.9068,5.9343,5.9957,6.0731,6.1002,6.1118,6.1118,6.1118,6.1118,6.1118,6.1118,6.1118,6.1118,6.1118,6.15,6.2003,6.2312,6.3245,6.4053,6.3709,6.4031,6.4386,6.4001,6.4324,6.4778,6.5017,6.5493,6.5904,6.5904,6.5904,6.5904,6.5904,6.5904,6.5904,6.5904,6.5904,6.5904,6.5904,6.5904,6.5904,6.5904,6.5904,6.5904,6.5904,6.5904,6.5904,6.5904,6.5904,6.5904,6.5904,6.5904,6.5904,6.5904,6.5904,6.5743,6.5474,6.5474,6.532,6.5013,6.5013,6.4705,5.805,5.8441,5.8986,5.8402,5.7855,5.719,5.602,5.5982,5.5866,5.4698,5.5831,5.6652,5.5524,0.0,0.0,0.0,0.0,0.0,0.0,5.2773,5.2266,5.3398,5.3828,5.4101,5.4414,5.4453,5.3984,5.2773,5.2695,5.2304,5.1402,5.1363,5.1907,5.3069,5.3588,5.4416,5.5521,5.6015,5.6236,5.6135,5.6135,5.6079,5.6008,5.6008,5.6008,5.6008,5.6008,5.6317,5.6859,5.7168,5.8135,5.9459,5.9769,6.0383,6.1118,6.1118,6.1118,6.1118,6.1118,6.1118,6.1118,6.1118,6.1118,6.1118,6.1118,6.15,6.208,6.2704,6.3429,6.41,6.4412,6.464,6.4745,6.4401,6.4746,6.5094,6.5057,6.5513,6.5904,6.5904,6.5904,6.5904,6.5904,6.5904,6.5904,6.5904,6.5904,6.5904,6.5904,6.5904,6.5904,6.5904,6.5904,6.5904,6.5904,6.5904,6.5904,6.5904,6.5904,6.5904,6.5904,6.5904,6.6167,6.6782,6.6205,6.6058,6.6327,6.5743,6.5282,6.4974,6.4974,6.4859]}]]